     2              OBSERVATION DATA    GPS                 RINEX VERSION / TYPE
ASRINEXO V2.2.0 UX USGS 28-MAR-94 15:19                     PGM / RUN BY / DATE
                                                            COMMENT
Original Marker Name: nasa Nasa_Site_94_USGS                COMMENT
Campaign Name: new garlock                                  COMMENT
4-Character Station Name: NASA                              COMMENT
6-Character Antenna Code: ASHL12                            COMMENT
Vertical Measurement Point: BBE                             COMMENT
Vertical Offset to Rinex Ref. Point: 0.0595                 COMMENT
Radial Measurement Point: EGP                               COMMENT
Radial Offset to Rinex Ref. Point: 0.1424                   COMMENT
Antenna Height from Field Measurement: 1.3850 m             COMMENT
Additional Antenna Identification Info.:                    COMMENT
Original Ashtech L1/L2 (700228ABC)                          COMMENT
Original XYZ: -2349468.8800 -4678207.2500 3632298.8100      COMMENT
New XYZ position is based on association with SCEC monument COMMENT
E1F4G4I3+0011. Position of that monument is believed to be  COMMENT
valid to within 1 m horizontally; vertical accuracy         COMMENT
should be no worse than 3-times this value.                 COMMENT
                                                            COMMENT
Revised Rinex header created by UCSD GPS archive for        COMMENT
GSAC on 17-Jul-2003 (2003:198) 21:10:05 GMT                 COMMENT
For assistance contact dagnew@ucsd.edu                      COMMENT
or anderson@python.ucsd.edu                                 COMMENT
                                                            COMMENT
NASA SITE 94                                                MARKER NAME
                                                            MARKER NUMBER
KWC US GEOLOGICAL SURVEY                                    OBSERVER / AGENCY
763 ASHTECH L-XII 7A                                        REC # / TYPE / VERS
0718 ASHTECH GEODETIC L                                     ANT # / TYPE
 -2330658.7818 -4660194.5022  3667682.6971                  APPROX POSITION XYZ
        1.3182        0.0000        0.0000                  ANTENNA: DELTA H/E/N
     1     2     0                                          WAVELENGTH FACT L1/2
     3    C1    L1    L2                                    # / TYPES OF OBSERV
    30                                                      INTERVAL
  1994     3    24    17    28   30.000000                  TIME OF FIRST OBS
  1994     3    25     0    38   30.000000                  TIME OF LAST OBS
                                                            END OF HEADER
 94  3 24 17 28 30.0000000  0  2  6 14
  24831914.703    18451956.55214    -22392.389 1
  22322362.350    20496840.64417    184017.453 1
 94  3 24 17 29  0.0000000  0  2  6 14
  24829971.119    18441626.939 5    -30441.353 1
  22342441.490    20602366.361 7    266245.229 2
 94  3 24 17 29 30.0000000  0  5 18  6 22 19 14
  20824292.482     9183638.15619    -72526.379 1
  24828084.585    18431824.883 5    -38079.397 1
  22475231.711   -22784497.49917    179906.299
  22140758.452    10524679.65617   -115483.885
  22362593.209    20708262.591 6    348761.716 3
 94  3 24 17 30  0.0000000  0  6 18  6 22 19 29 14
  20816647.775     9143477.297 9   -103822.295 1
  24826308.554    18422565.762 4    -45294.220 1
  22491768.593   -22697585.969 7    247627.036
  22131396.293    10475451.489 7   -153844.185 1
  20585813.818    -8560258.72018     20308.805 1
  22382813.311    20814529.073 6    431566.709 4
 94  3 24 17 30 30.0000000  0  6 18  6 22 19 29 14
  20809072.139     9103674.262 9   -134836.913 1
  24824664.522    18413824.299 5    -52105.696 2
  22508392.414   -22610210.705 7    315703.782 1
  22122079.703    10426533.353 7   -191962.156 3
  20588167.578    -8547904.523 8     29934.837 5
  22403101.436    20921129.225 7    514631.738 4
 94  3 24 17 31  0.0000000  0  6 18  6 22 19 29 14
  20801565.006     9064213.579 9   -165585.416 6
  24823094.179    18405582.918 5    -58527.513 2
  22525106.773   -22522386.304 7    384138.334 2
  22112830.596    10377896.357 7   -229861.102 4
  20590597.096    -8535123.682 8     39893.901 8
  22423442.024    21028028.570 6    597929.861 5
 94  3 24 17 31 30.0000000  0  6 18  6 22 19 29 14
  20794116.063     9025081.708 9   -196077.763 8
  24821628.134    18397826.278 5    -64571.593 2
  22541902.166   -22434136.646 7    452904.296 4
  22103618.993    10329512.296 7   -267562.926 5
  20593110.226    -8521924.429 8     50179.038 9
  22443840.323    21135209.872 6    681447.722 5
 94  3 24 17 32  0.0000000  0  7 28 18  6 22 19 29 14
  24226562.710     3441462.60015   -125024.239
  20786733.014     8986282.178 9   -226311.167 9
  24820237.337    18390546.666 5    -70244.030 2
  22558771.457   -22345493.334 7    521976.948 4
  22094462.702    10281371.305 7   -305075.357 5
  20595702.592    -8508315.936 8     60783.035 9
  22464290.365    21242688.170 6    765196.993 5
 94  3 24 17 32 30.0000000  0  7 28 18  6 22 19 29 14
  24215926.763     3385593.537 4   -168558.484 1
  20779413.102     8947806.338 9   -256292.340 9
  24818939.356    18383739.427 5    -75548.319 2
  22575709.162   -22256464.861 7    591349.765 5
  22085348.411    10233470.178 7   -342400.880 5
  20598363.040    -8494326.903 8     71683.567 9
  22484801.716    21350467.314 6    849180.661 5
 94  3 24 17 33  0.0000000  0  7 28 18  6 22 19 29 14
  24205344.629     3329966.601 4   -211904.090 2
  20772151.918     8909647.021 9   -286026.877 9
  24817734.610    18377400.723 5    -80487.516 2
  22592720.165   -22167072.460 7    661006.150 5
  22076273.184    10185805.463 7   -379542.212 6
  20601095.109    -8479979.456 8     82863.376 9
  22505362.262    21458546.245 6    933397.953 5
 94  3 24 17 33 30.0000000  0  7 28 18  6 22 19 29 14
  24194816.127     3274618.109 5   -255032.635 2
  20764952.882     8871817.025 9   -315504.797 9
  24816621.241    18371537.854 5    -85055.982 2
  22609800.721   -22077325.603 6    730938.706 5
  22067248.951    10138376.449 7   -416499.859 6
  20603892.682    -8465275.757 8     94320.777 9
  22525995.418    21566938.538 6   1017859.424 5
 94  3 24 17 34  0.0000000  0  7 28 18  6 22 19 29 14
  24184346.206     3219577.058 5   -297921.693 2
  20757818.241     8834326.510 9   -344718.179 9
  24815580.961    18366154.052 5    -89251.136 2
  22626948.220   -21987222.519 7    801148.872 5
  22058268.878    10091180.897 7   -453275.581 6
  20606756.269    -8450230.413 8    106044.415 9
  22546675.371    21675632.734 6   1102556.135 5
 94  3 24 17 34 30.0000000  0  7 28 18  6 22 19 29 14
  24173936.182     3164857.470 5   -340560.230 2
  20750748.506     8797174.974 9   -373667.428 9
  24814644.229    18361250.525 4    -93072.034 2
  22644160.924   -21896758.003 6    871640.637 6
  22049330.236    10044209.876 7   -489876.351 6
  20609681.884    -8434844.598 8    118033.351 9
  22567423.588    21784599.376 7   1187465.154 5
 94  3 24 17 35  0.0000000  0  8 31 28 18  6 22 19 29 14
  24569039.498      494384.24115   -173875.189
  24163579.132     3110474.201 4   -382936.728 2
  20743744.514     8760365.715 9   -402349.953 9
  24813823.847    18356835.582 5    -96512.221 2
  22661448.875   -21805931.591 7    942414.437 6
  22040436.323     9997462.762 7   -526302.647 6
  20612682.687    -8419085.100 8    130313.461 9
  22588200.824    21893837.098 6   1272585.429 5
 94  3 24 17 35 30.0000000  0  8 31 28 18  6 22 19 29 14
  24553983.051      415213.240 5   -235566.767 1
  24153303.686     3056454.885 4   -425029.625 2
  20736808.906     8723913.691 9   -430754.129 9
  24813077.634    18352930.699 5    -99555.001 2
  22678809.137   -21714704.400 6   1013500.522 6
  22031586.120     9950966.454 7   -562533.500 6
  20615760.866    -8402909.259 8    142917.999 9
  22609041.286    22003357.486 6   1357925.919 5
 94  3 24 17 36  0.0000000  0  8 31 28 18  6 22 19 29 14
  24538917.761      336072.054 5   -297235.164 1
  24143094.733     3002755.843 5   -466872.924 3
  20729932.836     8687780.772 9   -458909.651 9
  24812409.966    18349512.122 5   -102218.836 2
  22696240.989   -21623100.046 7   1084880.495 6
  22022778.368     9904706.322 7   -598580.348 6
  20618915.252    -8386324.558 8    155841.110 9
  22629925.099    22113130.662 6   1443463.372 5
 94  3 24 17 36 30.0000000  0  8 31 28 18  6 22 19 29 14
  24523849.442      256971.420 4   -358871.915 1
  24132927.482     2949359.701 5   -508480.251 3
  20723115.346     8651948.056 9   -486831.240 9
  24811854.600    18346579.913 5   -104503.621 2
  22713737.807   -21531118.745 6   1156554.189 5
  22014029.614     9858696.619 7   -634432.025 6
  20622152.951    -8369318.804 8    169092.323 9
  22650865.602    22223174.911 6   1529212.117 5
 94  3 24 17 37  0.0000000  0  8 31 28 18  6 22 19 29 14
  24508812.272      177932.448 4   -420460.627 2
  24122826.695     2896275.214 5   -549844.663 3
  20716350.439     8616427.400 9   -514509.679 9
  24811399.276    18344146.616 5   -106399.659 2
  22731315.748   -21438755.968 6   1228525.147 6
  22005323.671     9812962.529 7   -670068.959 6
  20625466.347    -8351880.203 8    182680.825 9
  22671871.850    22333514.832 6   1615191.200 5
 94  3 24 17 37 30.0000000  0  8 31 28 18  6 22 19 29 14
  24493791.561       98953.116 5   -482002.858 2
  24112776.602     2843492.587 5   -590973.895 3
  20709657.662     8581237.030 9   -541930.731 9
  24811040.784    18342213.335 5   -107906.170 2
  22748969.206   -21346012.315 6   1300792.906 5
  21996675.379     9767512.139 7   -705484.833 6
  20628866.173    -8334033.979 8    196586.952 9
  22692925.435    22444147.025 6   1701398.047 5
 94  3 24 17 38  0.0000000  0  8 31 28 18  6 22 19 29 14
  24478759.997       20013.149 5   -543514.431 2
  24102788.657     2790996.830 5   -631879.590 3
  20703028.652     8546395.173 9   -569080.228 9
  24810773.039    18340777.315 5   -109025.106 2
  22766687.210   -21252897.097 6   1373350.161 5
  21988076.401     9722330.754 7   -740691.074 6
  20632333.183    -8315802.137 8    210793.579 9
  22714037.539    22555078.005 6   1787837.704 5
 94  3 24 17 38 30.0000000  0  9 27 31 28 18  6 22 19 29 14
  24315551.844     -276160.87914   -171154.938 1
  24463749.659      -58897.442 5   -605003.108 2
  24092856.503     2738807.096 5   -672546.860 3
  20696462.777     8511914.562 9   -595948.245 9
  24810551.583    18339836.806 4   -109757.983 2
  22784476.715   -21159408.344 6   1446198.521 5
  21979533.845     9677414.378 7   -775690.824 6
  20635878.589    -8297189.882 8    225296.624 9
  22735190.565    22666288.975 6   1874495.535 5
 94  3 24 17 39  0.0000000  0  9 27 31 28 18  6 22 19 29 14
  24301875.911     -348040.448 5   -227164.929 1
  24448736.562     -137776.965 4   -666467.536 2
  24082985.056     2686936.864 5   -712965.162 3
  20689975.808     8477815.322 9   -622519.088 9
  24810484.399    18339394.602 5   -110102.573 2
  22802337.360   -21065551.810 6   1519333.428 5
  21971031.551     9632753.166 7   -810491.741 6
  20639491.837    -8278190.404 8    240101.386 9
  22756404.779    22777750.348 6   1961348.484 5
 94  3 24 17 39 30.0000000  0  9 27 31 28 18  6 22 19 29 14
  24288221.834     -419783.128 5   -283068.222 2
  24433742.502     -216624.039 5   -727906.674 2
  24073168.802     2635383.074 5   -753136.862 3
  20683557.821     8444097.272 9   -648792.890 9
  24810512.759    18339451.914 5   -110057.923 2
  22820268.487   -20971323.392 6   1592758.112 5
  21962579.023     9588339.289 7   -845099.940 6
  20643181.803    -8258796.739 8    255213.327 9
  22777652.000    22889446.690 6   2048384.539 5
 94  3 24 17 40  0.0000000  0  9 27 31 28 18  6 22 19 29 14
  24274574.472     -491407.869 4   -338879.684 2
  24418743.945     -295443.166 5   -789324.024 2
  24063421.020     2584132.763 5   -793072.112 3
  20677210.135     8410727.484 9   -674795.316 9
  24810600.419    18339994.069 5   -109635.433 2
  22838265.388   -20876744.639 6   1666455.815 5
  21954172.543     9544150.540 7   -879532.706 6
  20646947.915    -8239014.348 8    270628.161 9
  22798950.035    23001351.848 6   2135583.302 5
 94  3 24 17 40 30.0000000  0  9 27 31 28 18  6 22 19 29 14
  24260975.826     -562922.085 5   -394605.012 2
  24403752.014     -374212.941 4   -850702.955 2
  24053733.197     2533176.013 5   -832778.612 3
  20670918.361     8377672.808 9   -700552.197 9
  24810807.365    18341012.364 5   -108841.995 2
  22856325.155   -20781842.495 6   1740405.504 5
  21945804.106     9500180.616 7   -913794.962 6
  20650786.488    -8218846.843 8    286343.089 9
  22820284.945    23113435.321 6   2222920.994 5
 94  3 24 17 41  0.0000000  0  9 27 31 28 18  6 22 19 29 14
  24247382.576     -634331.596 5   -450248.715 2
  24388766.139     -452918.278 4   -912031.662 2
  24044083.268     2482502.958 5   -872264.039 3
  20664688.284     8344926.678 9   -726068.667 9
  24811088.691    18342503.454 5   -107680.099 2
  22874439.995   -20686637.854 6   1814590.890 5
  21937480.099     9456409.696 7   -947902.149 7
  20654694.313    -8198302.783 8    302351.417 9
  22841643.329    23225710.309 6   2310407.947 5
 94  3 24 17 41 30.0000000  0  9 27 31 28 18  6 22 19 29 14
  24233842.480     -705640.794 5   -505814.263 2
  24373809.913     -531552.675 5   -973305.100 2
  24034495.005     2432117.442 5   -911525.422 3
  20658518.345     8312489.521 9   -751344.380 9
  24811463.191    18344473.054 5   -106145.388 2
  22892611.525   -20591127.293 6   1889014.661 5
  21929184.452     9412840.799 7   -981851.913 7
  20658675.736    -8177382.003 8    318653.309 9
  22863050.250    23338207.478 6   2398068.019 5
 94  3 24 17 42  0.0000000  0  9 27 31 28 18  6 22 19 29 14
  24220265.089     -776842.075 5   -561295.728 2
  24358851.618     -610116.110 4  -1034523.222 2
  24024967.931     2382033.797 5   -950551.561 3
  20652405.337     8280368.293 9   -776373.905 9
  24811920.405    18346923.839 5   -104235.698 2
  22910847.510   -20495318.115 6   1963671.118 5
  21920929.336     9369475.046 7  -1015643.385 7
  20662730.459    -8156084.111 8    335249.038 9
  22884507.025    23450934.113 6   2485906.877 5
 94  3 24 17 42 30.0000000  0  9 27 31 28 18  6 22 19 29 14
  24206743.640     -847932.852 5   -616691.094 2
  24343922.193     -688599.993 5  -1095679.343 2
  24015495.868     2332274.216 5   -989325.265 3
  20646353.067     8248579.244 9   -801144.605 9
  24812498.795    18349859.240 5   -101948.398 2
  22929138.718   -20399203.663 6   2038565.438 5
  21912720.629     9326317.849 7  -1049272.348 7
  20666851.227    -8134403.134 8    352143.273 9
  22905994.290    23563897.719 6   2573930.411 5
 94  3 24 17 43  0.0000000  0  9 27 31 28 18  6 22 19 29 14
  24193239.339     -918912.512 5   -671999.870 2
  24328994.987     -767014.657 5  -1156781.550 2
  24006101.212     2282865.936 5  -1027825.132 3
  20640372.717     8217145.878 9   -825638.137 9
  24813128.089    18353290.639 5    -99274.519 2
  22947489.853   -20302765.660 6   2113711.885 5
  21904554.522     9283395.648 7  -1082718.204 7
  20671051.559    -8112331.613 8    369341.842 9
  22927545.051    23677118.179 6   2662154.096 5
 94  3 24 17 43 30.0000000  0  9 27 31 28 18  6 22 19 29 14
  24179737.946     -989772.207 5   -727215.172 2
  24314096.351     -845368.013 5  -1217835.931 2
  23996758.390     2233801.044 5  -1066057.478 2
  20634461.290     8186070.202 9   -849852.940 9
  24813882.966    18357222.634 5    -96210.624 2
  22965907.093   -20205991.019 6   2189120.668 5
  21896435.123     9240733.863 7  -1115961.120 7
  20675328.998    -8089876.945 8    386838.990 9
  22949142.879    23790580.773 6   2750566.436 5
 94  3 24 17 44  0.0000000  0  9 27 31 28 18  6 22 19 29 14
  24166285.569    -1060517.890 5   -782341.631 2
  24299195.317     -923665.998 5  -1278847.195 2
  23987477.415     2185070.053 5  -1104029.619 3
  20628612.159     8155339.543 9   -873798.918 9
  24814737.705    18361644.152 5    -92765.332 2
  22984384.232   -20108898.403 6   2264777.208 5
  21888359.194     9198324.648 7  -1149007.232 7
  20679668.134    -8067053.344 8    404623.595 9
  22970777.522    23904245.547 6   2839136.320 5
 94  3 24 17 44 30.0000000  0  9 27 31 28 18  6 22 19 29 14
  24152846.532    -1131157.052 5   -837385.066 2
  24284305.885    -1001909.860 5  -1339816.284 2
  23978278.343     2136668.883 5  -1141744.702 3
  20622827.604     8124951.999 9   -897477.507 9
  24815679.892    18366552.220 5    -88940.867 2
  23002917.042   -20011487.812 6   2340681.527 5
  21880340.915     9156167.815 7  -1181856.699 7
  20684081.019    -8043857.459 8    422698.294 9
  22992439.985    24018111.054 6   2927862.636 5
 94  3 24 17 45  0.0000000  0  9 27 31 28 18  6 22 19 29 14
  24139413.822    -1201687.933 5   -892344.142 2
  24269427.065    -1080112.671 5  -1400753.427 2
  23969120.463     2088573.887 5  -1179221.291 3
  20617110.861     8094900.643 9   -920894.158 9
  24816669.627    18371944.077 4    -84739.439 2
  23021511.789   -19913760.755 6   2416832.431 5
  21872370.723     9114255.023 7  -1214515.999 7
  20688568.312    -8020293.753 8    441059.590 9
  23014148.766    24132174.249 6   3016742.959 5
 94  3 24 17 45 30.0000000  0  9 27 31 28 18  6 22 19 29 14
  24126024.431    -1272092.149 5   -947204.496 2
  24254538.502    -1158263.189 5  -1461649.795 2
  23960010.790     2040789.826 5  -1216455.597 3
  20611457.105     8065190.957 9   -944044.581 9
  24817782.217    18377825.646 4    -80156.446 2
  23040171.501   -19815707.280 6   2493237.689 5
  21864431.679     9072569.558 7  -1246998.170 7
  20693124.228    -7996342.997 8    459722.499 9
  23035878.353    24246428.975 6   3105772.567 5
 94  3 24 17 46  0.0000000  0  9 27 31 28 18  6 22 19 29 14
  24112650.509    -1342378.582 5  -1001973.140 2
  24239688.793    -1236351.395 5  -1522497.620 2
  23951000.677     1993339.716 5  -1253429.618 3
  20605870.743     8035824.090 9   -966927.850 9
  24819023.268    18384200.023 5    -75189.394 2
  23058896.478   -19717334.208 6   2569891.966 5
  21856540.062     9031103.061 7  -1279309.698 7
  20697763.307    -7971983.151 8    478704.189 9
  23057666.700    24360874.802 6   3194951.064 5
 94  3 24 17 46 30.0000000  0  9 27 31 28 18  6 22 19 29 14
  24099295.205    -1412544.563 5  -1056647.909 2
  24224847.297    -1314371.038 5  -1583291.992 2
  23942031.277     1946219.391 5  -1290146.700 3
  20600346.587     8006805.948 9   -989539.374 9
  24820333.631    18391069.491 5    -69836.560 2
  23077672.780   -19618638.049 6   2646798.018 5
  21848686.549     8989844.273 7  -1311459.385 7
  20702478.412    -7947215.742 8    498003.454 9
  23079463.440    24475524.738 5   3284288.597 5
 94  3 24 17 47  0.0000000  0  9 27 31 28 18  6 22 19 29 14
  24085975.366    -1482590.600 5  -1111229.138 3
  24209990.063    -1392321.374 4  -1644032.434 2
  23933126.841     1899419.133 5  -1326614.387 3
  20594891.473     7978134.641 9  -1011880.666 9
  24821717.892    18398428.672 5    -64102.163 2
  23096510.089   -19519644.188 6   2723936.034 5
  21840875.277     8948778.163 7  -1343458.941 7
  20707262.051    -7922050.101 8    517613.013 9
  23101330.841    24590360.223 6   3373770.719 5
 94  3 24 17 47 30.0000000  0  9 27 31 28 18  6 22 19 29 14
  24072665.990    -1552512.582 5  -1165713.747 3
  24195186.161    -1470189.289 5  -1704708.599 2
  23924283.593     1852953.672 5  -1362821.197 3
  20589503.573     7949816.717 9  -1033946.572 9
  24823220.062    18406280.903 5    -57983.512 2
  23115400.851   -19420370.141 6   2801292.392 5
  21833099.530     8907913.308 7  -1375301.651 7
  20712131.909    -7896476.402 8    537540.572 9
  23123223.905    24705372.294 6   3463390.435 4
 94  3 24 17 48  0.0000000  0  9 27 31 28 18  6 22 19 29 14
  24059374.602    -1622317.204 5  -1220106.918 3
  24180381.780    -1547959.854 5  -1765308.910 2
  23915494.428     1806822.083 5  -1398767.849 3
  20584181.238     7921859.906 9  -1055731.105 9
  24824810.671    18414629.187 4    -51478.365 2
  23134348.604   -19320836.745 6   2878850.817 5
  21825364.135     8867267.291 7  -1406973.862 7
  20717075.877    -7870493.648 8    557786.856 9
  23145133.218    24820581.659 6   3553163.874 4
 94  3 24 17 48 30.0000000  0  9 27 31 28 18  6 22 19 29 14
  24046124.734    -1691994.600 5  -1274400.935 3
  24165620.119    -1625643.813 5  -1825841.714 2
  23906783.058     1761023.843 5  -1434454.698 3
  20578931.242     7894271.171 9  -1077228.824 9
  24826488.909    18423471.738 4    -44588.091 2
  23153333.801   -19221042.377 6   2956612.607 5
  21817669.332     8826843.175 7  -1438473.156 7
  20722095.272    -7844112.216 8    578343.784 9
  23167100.900    24935991.043 6   3643093.207 4
 94  3 24 17 49  0.0000000  0  9 27 31 28 18  6 22 19 29 14
  24032881.342    -1761543.217 5  -1328594.616 3
  24150849.015    -1703237.959 5  -1886304.599 2
  23898130.628     1715577.711 5  -1469867.238 3
  20573754.066     7867057.091 9  -1098434.610 9
  24828261.312    18432811.536 4    -37310.346 2
  23172373.799   -19120986.115 6   3034578.465 5
  21810024.864     8786666.206 7  -1469779.889 7
  20727191.864    -7817315.890 8    599224.024 9
  23189105.966    25051590.001 6   3733170.248 4
 94  3 24 17 49 30.0000000  0  9 27 31 28 18  6 22 19 29 14
  24019666.101    -1830982.178 5  -1382702.858 3
  24136097.517    -1780726.623 5  -1946685.275 2
  23889559.982     1670501.816 5  -1504991.281 3
  20568645.093     7840220.335 9  -1119346.355 9
  24830143.140    18442653.835 5    -29640.982 2
  23191466.562   -19020652.466 6   3112760.477 5
  21802431.811     8746750.960 7  -1500882.646 7
  20732370.928    -7790109.588 8    620423.723 9
  23211146.947    25167383.435 6   3823398.794 4
 94  3 24 17 50  0.0000000  0  9 27 31 28 18  6 22 19 29 14
  24006479.610    -1900315.600 5  -1436728.855 3
  24121366.525    -1858111.967 5  -2006985.445 2
  23881053.221     1625811.140 5  -1539815.135 3
  20563614.156     7813765.470 9  -1139960.542 9
  24832101.204    18452998.505 5    -21580.206 2
  23210607.591   -18920023.997 6   3191172.218 5
  21794882.947     8707089.996 7  -1531787.273 7
  20737623.022    -7762509.375 8    641930.334 9
  23233211.942    25283368.929 6   3913777.021 4
 94  3 24 17 50 30.0000000  0  9 27 31 28 18  6 22 19 29 14
  23993309.967    -1969543.012 5  -1490672.246 3
  24106651.992    -1935387.069 5  -2067199.691 2
  23872631.181     1581525.269 5  -1574323.552 3
  20558651.422     7787692.464 9  -1160277.164 9
  24834164.885    18463847.962 5    -13126.123 2
  23229821.979   -18819083.280 6   3269827.263 5
  21787380.760     8667677.487 7  -1562498.299 7
  20742947.606    -7734520.753 8    663739.618 9
  23255310.124    25399522.387 6   4004286.143 4
 94  3 24 17 51  0.0000000  0  9 27 31 28 18  6 22 19 29 14
  23980138.256    -2038669.605 5  -1544537.086 3
  24091991.811    -2012539.691 5  -2127318.567 2
  23864269.550     1537641.804 5  -1608518.407 3
  20553761.027     7761997.722 9  -1180299.038 9
  24836333.764    18475201.121 5     -4279.510 2
  23249089.580   -18717847.272 6   3348712.389 5
  21779934.695     8628509.217 7  -1593019.021 7
  20748345.219    -7706144.320 8    685851.102 9
  23277451.476    25515837.651 6   4094921.296 4
 94  3 24 17 51 30.0000000  0  9 27 31 28 18  6 22 19 29 14
  23967021.226    -2107687.985 5  -1598317.587 3
  24077334.868    -2089576.100 5  -2187346.825 2
  23856004.871     1494167.188 5  -1642394.708 3
  20548941.504     7736681.560 9  -1200025.916 9
  24838578.670    18487062.663 5      4963.305 2
  23268411.624   -18616313.120 6   3427829.878 5
  21772524.125     8589569.349 8  -1623361.754 7
  20753820.449    -7677386.724 8    708259.613 9
  23299605.209    25632321.260 5   4185687.673 4
 94  3 24 17 52  0.0000000  0  9 27 31 28 18  6 22 19 29 14
  23953905.606    -2176580.658 5  -1652000.165 3
  24062663.175    -2166525.124 4  -2247306.998 2
  23847806.777     1451081.410 5  -1675967.982 3
  20544191.892     7711734.027 9  -1219465.550 9
  24840934.199    18499423.119 4     14594.782 2
  23287785.022   -18514500.222 6   3507164.528 5
  21765153.728     8550846.071 7  -1653535.717 7
  20759365.710    -7648243.391 8    730968.669 9
  23321796.506    25748955.841 5   4276571.662 4
 94  3 24 17 52 30.0000000  0  9 27 31 28 18  6 22 19 29 14
  23940825.961    -2245338.025 5  -1705577.266 3
  24048054.258    -2243374.075 5  -2307189.234 2
  23839691.065     1408376.674 5  -1709244.342 3
  20539521.365     7687163.218 9  -1238611.632 9
  24843388.420    18512286.058 5     24617.869 2
  23307206.327   -18412434.918 6   3586695.868 5
  21757826.620     8512344.953 7  -1683536.574 8
  20764988.258    -7618693.094 8    753994.860 9
  23344033.402    25865749.607 6   4367579.689 4
 94  3 24 17 53  0.0000000  0  9 27 31 28 18  6 22 19 29 14
  23927769.730    -2313939.117 5  -1759032.647 3
  24033451.907    -2320127.404 5  -2366996.929 2
  23831611.599     1366036.702 5  -1742236.526 3
  20534917.692     7662987.122 9  -1257450.147 9
  24845959.380    18525658.076 5     35037.622 2
  23326670.532   -18310125.466 6   3666417.478 5
  21750538.905     8474069.705 7  -1713361.433 8
  20770692.289    -7588723.935 8    777347.422 9
  23366288.555    25982707.343 6   4458715.482 4
 94  3 24 17 53 30.0000000  0  9 27 31 28 18  6 22 19 29 14
  23914742.578    -2382382.421 5  -1812365.035 3
  24018868.174    -2396779.518 5  -2426725.758 2
  23823634.961     1324071.231 5  -1774936.858 3
  20530397.152     7639211.231 9  -1275976.821 9
  24848606.188    18539540.662 5     45855.218 2
  23346193.197   -18207568.498 6   3746331.904 5
  21743297.748     8436014.789 7  -1743014.587 8
  20776475.076    -7558333.236 8    801028.457 9
  23388570.809    26099831.310 6   4549980.849 4
 94  3 24 17 54  0.0000000  0  9 27 31 28 18  6 22 19 29 14
  23901757.248    -2450652.770 5  -1865562.707 3
  24004295.142    -2473286.118 5  -2486341.210 2
  23815715.433     1282493.952 5  -1807334.712 3
  20525950.030     7615855.083 9  -1294176.418 9
  24851325.395    18553949.357 5     57082.719 2
  23365754.445   -18104762.409 6   3826440.496 5
  21736104.198     8398202.219 7  -1772478.911 7
  20782342.104    -7527504.059 8    825051.167 9
  23410909.005    26217137.578 6   4641388.198 4
 94  3 24 17 54 30.0000000  0  9 27 31 28 18  6 22 19 29 14
  23888785.708    -2518782.125 5  -1918650.435 3
  23989765.521    -2549633.934 5  -2545832.935 2
  23807889.861     1241295.779 5  -1839437.120 3
  20521581.575     7592895.591 9  -1312066.920 9
  24854177.081    18568866.248 4     68706.314 2
  23385364.919   -18001722.972 6   3906730.936 5
  21728948.032     8360608.196 7  -1801772.951 7
  20788287.888    -7496267.017 8    849391.723 9
  23433258.982    26334622.942 6   4732935.107 4
 94  3 24 17 55  0.0000000  0  9 27 31 28 18  6 22 19 29 14
  23875849.004    -2586782.299 5  -1971637.530 3
  23975281.828    -2625820.073 5  -2605198.666 2
  23800119.000     1200483.889 5  -1871238.569 3
  20517283.031     7570320.472 9  -1329657.920 9
  24857105.934    18584297.617 4     80730.742 2
  23405020.571   -17898427.773 6   3987220.619 5
  21721835.966     8323226.892 7  -1830901.211 8
  20794306.881    -7464632.121 8    874042.261 9
  23455656.987    26452284.319 6   4824619.216 4
 94  3 24 17 55 30.0000000  0  9 27 31 28 18  6 22 19 29 14
  23862921.473    -2654667.701 5  -2024535.195 3
  23960806.409    -2701830.897 5  -2664427.818 2
  23792427.615     1160076.829 5  -1902724.550 3
  20513060.634     7548112.564 9  -1346962.790
  24860130.420    18600245.530 4     93157.666 2
  23424723.921   -17794873.729 6   4067912.014 4
  21714758.855     8286068.294 7  -1859855.953 8
  20800403.071    -7432602.054 8    899000.730 9
  23478067.912    26570132.179 5   4916448.625 4
 94  3 24 17 56  0.0000000  0  9 27 31 28 18  6 22 19 29 14
  23850024.432    -2722450.146 5  -2077352.675 3
  23946390.019    -2777669.727 5  -2723523.005 2
  23784802.994     1120063.200 5  -1933904.002 3
  20508904.911     7526265.567 9  -1363986.417 1
  24863266.309    18616710.733 4    105987.698 2
  23444486.240   -17691052.233 6   4148811.818 4
  21707734.688     8249140.939 7  -1888630.525 8
  20806573.009    -7400167.908 8    924274.059 9
  23500540.564    26688151.352 6   5008411.482 4
 94  3 24 17 56 30.0000000  0  9 27 31 28 18  6 22 19 29 14
  23837158.149    -2790151.614 5  -2130107.017 3
  23931977.856    -2853371.711 5  -2782511.464 2
  23777273.286     1080431.657 5  -1964785.654 3
  20504812.534     7504769.531 9  -1380736.585 1
  24866484.311    18633684.567 5    119214.064 2
  23464292.688   -17586962.861 5   4229920.339 5
  21700756.629     8212436.258 7  -1917231.552 8
  20812824.941    -7367324.011 8    949866.671 9
  23523002.664    26806310.062 5   5100483.100 4
 94  3 24 17 57  0.0000000  0  9 27 31 28 18  6 22 19 29 14
  23824294.204    -2857752.294 5  -2182782.851 3
  23917591.116    -2928945.324 5  -2841399.904 2
  23769805.606     1041193.269 5  -1995361.021 3
  20500790.758     7483653.242 9  -1397190.849 1
  24869813.446    18651178.505 5    132845.729 2
  23484151.420   -17482589.784 6   4311249.933 5
  21693814.275     8175980.259 7  -1945638.806 8
  20819155.778    -7334054.599 8    975790.860 9
  23545525.292    26924589.536 6   5192648.807 4
 94  3 24 17 57 30.0000000  0  9 27 31 28 18  6 22 19 29 14
  23811433.558    -2925242.962 5  -2235372.959 3
  23903216.278    -3004387.805 5  -2900186.208 2
  23762417.431     1002348.456 5  -2025629.666 3
  20496849.566     7462928.430 9  -1413340.052 2
  24873242.862    18669184.255 4    146876.158 2
  23504063.935   -17377943.276 6   4392792.602 5
  21686926.213     8139783.073 7  -1973844.387 8
  20825567.829    -7300354.236 8   1002050.846 9
  23568055.565    27042975.260 6   5284897.319 4
 94  3 24 17 58  0.0000000  0  9 27 31 28 18  6 22 19 29 14
  23798611.194    -2992612.125 5  -2287868.360 3
  23888909.822    -3079686.676 5  -2958860.569 2
  23755095.150      963900.725 5  -2055588.895 3
  20492986.171     7442612.707 9  -1429170.499 2
  24876775.047    18687702.770 5    161306.226 2
  23524029.783   -17273022.611 6   4474548.917 5
  21680090.016     8103837.605 7  -2001853.832 8
  20832066.041    -7266218.520 8   1028650.075 9
  23590598.459    27161464.077 5   5377226.131 4
 94  3 24 17 58 30.0000000  0  9 27 31 28 18  6 22 19 29 14
  23785825.076    -3059838.979 5  -2340252.868 3
  23874611.760    -3154820.033 5  -3017405.965 2
  23747866.614      925853.639 5  -2085235.928 3
  20489195.985     7422714.520 9  -1444675.585 2
  24880392.313    18706731.855 5    176134.076 2
  23544047.045   -17167846.906 6   4556503.929 5
  21673295.700     8068143.957 7  -2029667.036 8
  20838637.641    -7231665.403 8   1055574.567 9
  23613171.212    27280066.489 5   5469643.487 4
 94  3 24 17 59  0.0000000  0  9 27 31 28 18  6 22 19 29 14
  23773072.744    -3126885.829 5  -2392497.169 3
  23860361.485    -3229736.323 5  -3075782.200 2
  23740697.107      888229.723 5  -2114553.227 3
  20485493.428     7403254.846 9  -1459838.985 2
  24884101.645    18726287.027 5    191371.878 2
  23564110.985   -17062408.113 6   4638663.986 4
  21666552.498     8032713.234 7  -2057275.382 8
  20845290.276    -7196689.238 8   1082828.688 9
  23635769.957    27398819.782 5   5562178.376 4
 94  3 24 17 59 30.0000000  0  9 27 31 28 18  6 22 19 29 14
  23760331.445    -3193761.275 5  -2444607.867 3
  23846136.663    -3304414.953 5  -3133973.243 2
  23733625.213      851036.107 6  -2143535.257 3
  20481874.723     7384234.644 9  -1474659.926 2
  24887929.995    18746370.156 5    207021.029 2
  23584220.944   -16956721.356 6   4721017.230 4
  21659855.404     7997526.206 7  -2084693.827 8
  20852030.899    -7161277.606 8   1110422.151 9
  23658409.624    27517738.095 6   5654841.874 4
 94  3 24 18  0  0.0000000  0  9 27 31 28 18  6 22 19 29 14
  23747651.663    -3260488.190 5  -2496602.825 3
  23831981.333    -3378870.854 5  -3191990.760 2
  23726629.886      814260.466 6  -2172191.554 3
  20478337.442     7365645.593 9  -1489144.921 2
  24891870.167    18766974.119 5    223076.085 2
  23604376.800   -16850809.841 6   4803545.583 4
  21653206.097     7962562.029 7  -2111938.618 8
  20858853.576    -7125447.151 8   1138341.955 9
  23681057.475    27636814.969 5   5747628.917 4
 94  3 24 18  0 30.0000000  0  9 27 31 28 18  6 22 19 29 14
  23734969.722    -3327065.579 5  -2548481.288 3
  23817840.632    -3453125.312 5  -3249851.317 2
  23719696.975      777909.944 5  -2200516.584 3
  20474884.283     7347491.759 9  -1503290.765 2
  24895885.647    18788101.806 5    239539.214 2
  23624568.661   -16744674.980 6   4886248.032 4
  21646594.055     7927821.810 7  -2139008.910 8
  20865751.351    -7089191.815 8   1166592.831 9
  23703731.318    27756032.742 5   5840525.772 4
 94  3 24 18  1  0.0000000  0  9 27 31 28 18  6 22 19 29 14
  23722335.389    -3393504.729 5  -2600252.039 3
  23803748.108    -3527203.291 5  -3307574.336 3
  23712868.693      742003.052 5  -2228495.949 3
  20471512.367     7329780.304 9  -1517091.913 1
  24900002.667    18809760.081 5    256415.760 2
  23644811.518   -16638312.228 6   4969128.011 4
  21640023.713     7893301.677 7  -2165907.707 8
  20872733.187    -7052499.393 8   1195184.288 9
  23726458.944    27875380.581 5   5933523.974 4
 94  3 24 18  1 30.0000000  0  9 27 31 28 18  6 22 19 29 14
  23709716.555    -3459841.056 5  -2651942.630 3
  23789680.017    -3601137.363 5  -3365185.231 3
  23706122.283      706534.944 6  -2256133.439 3
  20468222.534     7312498.443 9  -1530558.306 1
  24904218.798    18831941.370 5    273699.894 2
  23665093.437   -16531734.241 6   5052175.725 4
  21633500.589     7859000.993 8  -2192635.492 8
  20879796.747    -7015379.856 8   1224108.586 9
  23749196.224    27994843.593 5   6026611.854 4
 94  3 24 18  2  0.0000000  0  9 27 31 28 18  6 22 19 29 14
  23697111.331    -3526064.658 5  -2703545.412 3
  23775628.445    -3674938.259 5  -3422692.345 3
  23699458.496      671506.016 5  -2283428.672 3
  20465015.175     7295632.776 9  -1543700.394 1
  24908530.083    18854645.141 5    291391.154 2
  23685413.280   -16424937.250 6   5135394.088 4
  21627016.018     7824936.948 8  -2219178.892 8
  20886938.793    -6977844.130 8   1253357.171 9
  23771958.625    28114420.163 5   6119788.289 4
 94  3 24 18  2 30.0000000  0  9 27 31 28 18  6 22 19 29 14
  23684520.048    -3592170.938 5  -2755056.769 3
  23761617.704    -3748592.872 5  -3480085.475 3
  23692880.360      636918.656 6  -2310379.827 3
  20461885.312     7279178.355 9  -1556522.032 1
  24912965.873    18877870.276 5    309488.631 2
  23705781.719   -16317916.878 6   5218786.526 4
  21620581.903     7791120.170 8  -2245529.604 8
  20894165.260    -6939886.188 8   1282934.770 9
  23794719.498    28234109.586 5   6213052.593 4
 94  3 24 18  3  0.0000000  0  9 27 31 28 18  6 22 19 29 14
  23671968.967    -3658168.575 5  -2806483.446 3
  23747641.650    -3822071.883 5  -3537341.792 3
  23686379.930      602771.525 5  -2336987.953 3
  20458830.426     7263136.741 9  -1569021.997 1
  24917476.970    18901619.341 5    327994.375 2
  23726189.791   -16210672.520 6   5302353.494 4
  21614195.694     7757563.532 8  -2271677.634 8
  20901464.068    -6901512.668 8   1312836.187 9
  23817522.972    28353933.646 5   6306421.918 4
 94  3 24 18  3 30.0000000  0  9 27 31 28 18  6 22 19 29 14
  23659429.548    -3724057.825 5  -2857825.682 3
  23733701.690    -3895352.346 5  -3594443.374 3
  23679955.018      569058.739 5  -2363257.661 3
  20455853.397     7247501.296 9  -1581205.457 1
  24922113.470    18925887.349 5    346904.507 3
  23746639.444   -16103204.464 6   5386094.767 4
  21607861.619     7724262.281 8  -2297626.650 8
  20908848.795    -6862722.521 8   1343062.235 9
  23840346.861    28473892.243 5   6399895.987 3
 94  3 24 18  4  0.0000000  0  9 27 31 28 18  6 22 19 29 14
  23646931.980    -3789805.093 5  -2909057.278 3
  23719790.960    -3968412.604 5  -3651373.380 3
  23673628.798      535777.783 5  -2389190.829 3
  20452958.931     7232272.308 9  -1593072.199 1
  24926814.455    18950671.190 4    366216.535 2
  23767128.190   -15995520.568 6   5470004.230 4
  21601566.786     7691209.740 8  -2323381.843 8
  20916305.833    -6823520.113 8   1373609.552 9
  23863193.025    28593968.080 5   6493461.473 3
 94  3 24 18  4 30.0000000  0  9 27 31 28 18  6 22 19 29 14
  23634427.246    -3855407.433 5  -2960175.978 3
  23705930.926    -4041234.356 5  -3708117.568 3
  23667383.311      502940.623 6  -2414778.245 3
  20450140.852     7217468.475 9  -1604607.665 1
  24931638.146    18975974.072 5    385933.060 2
  23787664.752   -15887616.284 6   5554085.406 4
  21595321.660     7658399.062 8  -2348948.609 8
  20923844.564    -6783899.233 8   1404482.923 9
  23886058.526    28714155.740 5   6587114.011 3
 94  3 24 18  5  0.0000000  0  9 27 31 28 18  6 22 19 29 14
  23621971.559    -3920853.937 5  -3011173.211 3
  23692123.384    -4113811.492 5  -3764671.098 3
  23661219.219      470563.817 6  -2440006.874 3
  20447408.484     7203093.504 9  -1615808.944 1
  24936535.646    19001803.098 4    406059.559 3
  23808238.789   -15779484.780 6   5638343.644 4
  21589125.939     7625823.541 8  -2374332.109 8
  20931464.629    -6743855.065 8   1435686.137 9
  23908968.036    28834454.453 5   6680853.122 3
 94  3 24 18  5 30.0000000  0  9 27 31 28 18  6 22 19 29 14
  23609561.531    -3986127.606 5  -3062035.790 3
  23678352.118    -4186154.630 5  -3821042.327 3
  23655142.995      438657.421 5  -2464868.988 3
  20444752.113     7189145.019 9  -1626677.897 1
  24941549.704    19028162.003 4    426598.908 3
  23828864.600   -15671127.602 6   5722777.734 4
  21582969.791     7593476.962 8  -2399537.220 8
  20939171.243    -6703371.931 8   1467231.414 9
  23931871.490    28954853.501 5   6774670.412 3
 94  3 24 18  6  0.0000000  0  8 27 31 28 18 22 19 29 14
  23597169.909    -4051232.800 5  -3112767.070 3
  23664628.219    -4258279.244 5  -3877243.246 3
  23649173.498      407229.622 6  -2489358.164 3
  20442179.234     7175631.218 9  -1637208.138 1
  23849523.119   -15562549.023 6   5807384.359 4
  21576855.404     7561356.139 8  -2424566.431 8
  20946956.674    -6662448.116 8   1499120.067 9
  23954793.262    29075348.718 4   6868562.650 3
 94  3 24 18  6 30.0000000  0  8 27 31 28 18 22 19 29 14
  23584799.063    -4116225.009 5  -3163410.309 4
  23650929.262    -4330210.248 5  -3933293.342 3
  23643273.702      376263.900 5  -2513487.306 3
  20439690.507     7162545.045 9  -1647405.154 2
  23870227.835   -15453757.485 5   5892156.922 4
  21570784.517     7529442.494 8  -2449434.180 9
  20954825.716    -6621083.140 8   1531352.488 9
  23977747.051    29195933.142 5   6962524.367 3
 94  3 24 18  7  0.0000000  0  8 27 31 28 18 22 19 29 14
  23572447.914    -4181114.891 5  -3213973.789 4
  23637294.971    -4401952.536 5  -3989196.362 3
  23637472.808      345749.660 6  -2537264.611 3
  20437275.858     7149881.023 9  -1657273.237 2
  23890965.469   -15344763.771 5   5977086.976 4
  21564749.155     7497726.810 8  -2474147.692 9
  20962788.414    -6579271.018 8   1563933.331 9
  24000714.031    29316601.861 5   7056551.796 3
 94  3 24 18  7 30.0000000  0  8 27 31 28 18 22 19 29 14
  23560120.808    -4245910.349 5  -3264463.736 4
  23623672.612    -4473504.915 5  -4044951.402 3
  23631746.203      315676.931 6  -2560697.852 3
  20434949.379     7137653.332 9  -1666801.293 2
  23911744.384   -15235586.170 6   6062160.415 4
  21558751.627     7466209.062 8  -2498706.954 9
  20970825.819    -6537016.862 8   1596858.623 9
  24023687.997    29437340.831 5   7150633.940 3
 94  3 24 18  8  0.0000000  0  8 27 31 28 18 22 19 29 14
  23547803.685    -4310615.315 5  -3314883.150 4
  23610107.093    -4544839.169 5  -4100536.490 3
  23626106.807      286039.524 5  -2583791.919 3
  20432709.210     7125869.760 9  -1675983.308 2
  23932552.289   -15126227.065 5   6147375.200 4
  21552790.883     7434894.113 8  -2523108.211 9
  20978946.358    -6494335.033 8   1630117.164 9
  24046670.956    29558142.791 5   7244765.163 3
 94  3 24 18  8 30.0000000  0  8 27 31 28 18 22 19 29 14
  23535515.402    -4375222.744 5  -3365226.574 4
  23596575.691    -4615933.281 5  -4155934.431 3
  23620548.624      256825.910 5  -2606555.754 3
  20430549.715     7114520.444 9  -1684826.933 2
  23953395.449   -15016690.353 5   6232728.393 4
  21546874.030     7403789.379 8  -2547345.649 9
  20987151.138    -6451240.572 8   1663697.244 9
  24069668.635    29678998.656 5   7338938.409 3
 94  3 24 18  9  0.0000000  0  8 27 31 28 18 22 19 29 14
  23523246.935    -4439693.919 5  -3415463.816 4
  23583082.841    -4686773.171 5  -4211134.290 3
  23615063.742      228054.654 5  -2628974.882 3
  20428476.110     7103613.907 9  -1693325.540 1
  23974274.525   -14906979.325 5   6318217.452 4
  21540995.519     7372909.083 8  -2571408.209 9
  20995426.729    -6407754.174 8   1697582.700 9
  24092688.529    29799910.636 6   7433155.335 3
 94  3 24 18  9 30.0000000  0  8 27 31 28 18 22 19 29 14
  23511011.985    -4504014.159 5  -3465583.464 4
  23569647.642    -4757352.221 5  -4266130.937 3
  23609683.366      199739.293 5  -2651038.773 3
  20426483.270     7093147.799 9  -1701480.961 1
  23995187.957   -14797080.893 5   6403852.526 4
  21535166.714     7342266.234 8  -2595285.747 9
  21003771.152    -6363886.160 8   1731765.548 9
  24115709.951    29920885.976 5   7527421.685 3
 94  3 24 18 10  0.0000000  0  8 27 31 28 18 22 19 29 14
  23498798.650    -4568186.667 6  -3515587.976 4
  23556271.023    -4827681.107 5  -4320932.584 3
  23604381.627      171879.688 6  -2672747.530 3
  20424566.187     7083092.624 9  -1709316.172 1
  24016137.784   -14686997.121 5   6489631.986 3
  21529376.853     7311856.514 8  -2618981.621 9
  21012190.433    -6319644.570 8   1766239.475 9
  24138732.723    30041928.585 5   7621740.388 3
 94  3 24 18 10 30.0000000  0  8 27 31 28 18 22 19 29 14
  23486613.316    -4632209.100 6  -3565475.529 4
  23542933.556    -4897776.559 5  -4375552.353 3
  23599175.341      144488.745 6  -2694091.085 3
  20422737.663     7073454.595 8  -1716826.322 1
  24037123.975   -14576722.274 5   6575560.359 3
  21523634.028     7281683.160 8  -2642493.303 9
  21020684.993    -6275014.980 8   1801015.740 9
  24161783.945    30163043.672 6   7716115.579 3
 94  3 24 18 11  0.0000000  0  8 27 31 28 18 22 19 29 14
  23474462.578    -4696100.017 6  -3615260.642 4
  23529644.806    -4967666.738 5  -4430012.172 3
  23594045.292      117559.948 6  -2715074.532 4
  20420980.190     7064223.503 8  -1724019.399
  24058135.649   -14466271.123 5   6661626.082 3
  21517940.850     7251738.606 8  -2665826.723 9
  21029251.772    -6229984.309 8   1836104.538 9
  24184835.797    30284223.405 4   7810541.191 3
 94  3 24 18 11 30.0000000  0  8 27 31 28 18 22 19 29 14
  23462319.754    -4759866.284 6  -3664948.592 4
  23516392.240    -5037345.683 6  -4484307.396 3
  23589015.374       91097.101 6  -2735694.904 4
  20419300.812     7055400.645 9  -1730894.363
  24079193.341   -14355648.034 5   6747825.828 3
  21512280.528     7222016.420 8  -2688986.848 9
  21037905.011    -6184519.762 8   1871531.426 9
  24207911.212    30405460.021 5   7905011.062 3
 94  3 24 18 12  0.0000000  0  8 27 31 28 18 22 19 29 14
  23450205.141    -4823514.371 5  -3714544.466 4
  23503161.080    -5106812.712 5  -4538437.482 3
  23584051.381       65093.043 6  -2755957.780 4
  20417702.409     7047005.009 9  -1737436.424 1
  24100273.008   -14244873.289 5   6834143.757 3
  21506670.002     7192515.216 8  -2711974.775 9
  21046640.544    -6138605.930 8   1907308.392 9
  24231001.916    30526746.766 5   7999520.037 3
 94  3 24 18 12 30.0000000  0  8 27 31 28 18 22 19 29 14
  23438124.704    -4887054.289 6  -3764056.078 4
  23489980.165    -5176059.737 5  -4592396.149 4
  23579192.794       39539.183 6  -2775869.849 4
  20416188.187     7039054.344 9  -1743631.765 1
  24121376.898   -14133948.706 5   6920578.378 3
  21501092.363     7163224.016 8  -2734799.075 9
  21055466.854    -6092243.214 8   1943435.157 9
  24254083.747    30648068.523 5   8094056.319 3
 94  3 24 18 13  0.0000000  0  8 27 31 28 18 22 19 29 14
  23426053.291    -4950478.846 6  -3813477.769 4
  23476853.333    -5245068.982 5  -4646169.539 4
  23574417.430       14442.602 6  -2795425.570 4
  20414762.254     7031551.477 9  -1749478.157 1
  24142511.967   -14022883.626 5   7007122.552 3
  21495560.683     7134136.389 8  -2757464.746 9
  21064370.060    -6045428.356 8   1979914.246 9
  24277160.332    30769428.008 5   8188621.888 3
 94  3 24 18 13 30.0000000  0  8 27 31 28 18 22 19 29 14
  23414004.482    -5013775.066 6  -3862799.451 4
  23463761.096    -5313809.096 5  -4699733.196 4
  23569735.991      -10180.031 6  -2814612.029 4
  20413420.263     7024517.590 9  -1754959.108 1
  24163677.284   -13911667.685 5   7093784.187 3
  21490060.810     7105254.311 8  -2779970.243 9
  21073365.123    -5998175.218 8   2016734.824 9
  24300277.298    30890824.481 4   8283216.342 3
 94  3 24 18 14  0.0000000  0  8 27 31 28 18 22 19 29 14
  23401984.633    -5076943.099 6  -3912021.276 4
  23450740.060    -5382268.719 5  -4753078.285 4
  23565145.179      -34324.405 6  -2833425.797 4
  20412172.947     7017949.310 8  -1760077.261 1
  24184873.570   -13800295.073 5   7180567.988 3
  21484609.684     7076595.186 8  -2802302.022 9
  21082436.543    -5950500.893 8   2053883.624 9
  24323379.215    31012259.484 5   8377840.835 3
 94  3 24 18 14 30.0000000  0  8 27 31 28 18 22 19 29 14
  23389991.916    -5139961.904 6  -3961126.809 4
  23437780.482    -5450430.081 5  -4806190.997 4
  23560640.768      -57956.178 6  -2851840.157 4
  20411011.371     7011848.082 8  -1764831.464 1
  24206095.429   -13688749.269 5   7267486.708 3
  21479202.208     7048174.762 8  -2824447.802 9
  21091590.226    -5902396.786 8   2091367.320 9
  24346510.362    31133747.164 5   8472506.335 3
 94  3 24 18 15  0.0000000  0  8 27 31 28 18 22 19 29 14
  23378028.128    -5202832.581 6  -4010116.915 4
  23424841.290    -5518310.863 5  -4859085.092 4
  23556240.204      -81067.879 6  -2869849.240 4
  20409934.606     7006196.875 8  -1769235.010 1
  24227353.922   -13577050.730 6   7354524.442 3
  21473840.240     7020000.411 8  -2846401.818 9
  21100826.382    -5853877.377 8   2129174.600 9
  24369640.459    31255287.483 5   8567212.840 3
 94  3 24 18 15 30.0000000  0  8 27 31 28 18 22 19 29 14
  23366098.666    -5265577.957 6  -4059009.388 4
  23411982.562    -5585921.516 5  -4911768.651 4
  23551946.637     -103669.708 6  -2887461.057 4
  20408946.970     7000983.731 8  -1773297.219 1
  24248633.580   -13465209.482 5   7441673.408 3
  21468525.519     6992075.850 8  -2868161.220 9
  21110132.389    -5804965.555 8   2167287.672 9
  24392756.046    31376860.755 4   8661945.033 3
 94  3 24 18 16  0.0000000  0  8 27 31 28 18 22 19 29 14
  23354160.781    -5328209.452 6  -4107813.105 4
  23399168.743    -5653275.406 5  -4964252.164 4
  23547736.291     -125770.480 6  -2904682.402 4
  20408031.164     6996186.735 8  -1777035.147 1
  24269936.413   -13353243.054 5   7528919.889 3
  21463257.866     6964391.605 8  -2889733.344 9
  21119513.945    -5755660.585 8   2205707.104 9
  24415895.167    31498468.235 4   8756703.875 3
 94  3 24 18 16 30.0000000  0  8 27 31 28 18 22 19 29 14
  23342273.740    -5390727.017 6  -4156528.068 4
  23386408.346    -5720376.277 5  -5016538.501 4
  23543627.246     -147387.027 6  -2921526.417 4
  20407198.401     6991808.789 8  -1780446.549 1
  24291270.244   -13241149.944 5   7616265.060 3
  21458034.072     6936936.582 8  -2911126.853 9
  21128973.596    -5705953.247 8   2244440.039 9
  24439048.319    31620101.514 4   8851482.861 3
 94  3 24 18 17  0.0000000  0  8 27 31 28 18 22 19 29 14
  23330397.072    -5453139.459 6  -4205161.093 4
  23373677.360    -5787205.468 6  -5068613.151 4
  23539604.841     -168530.393 6  -2938001.780 4
  20406447.840     6987861.889 8  -1783522.056 1
  24312629.827   -13128909.235 5   7703725.304 3
  21452852.369     6909707.168 8  -2932344.563 9
  21138509.574    -5655828.618 8   2283498.156 9
  24462205.248    31741755.289 5   8946277.750 3
 94  3 24 18 17 30.0000000  0  8 27 31 28 18 22 19 29 14
  23318543.818    -5515441.900 6  -4253708.407 4
  23361024.169    -5853743.315 5  -5120460.754 4
  23535671.714     -189213.030 6  -2954118.104 4
  20405779.603     6984350.406 8  -1786258.279 1
  24334019.779   -13016504.192 5   7791313.568 3
  21447711.858     6882693.346 8  -2953394.279 9
  21148132.073    -5605270.195 8   2322894.288 9
  24485353.692    31863415.831 5   9041077.886 3
 94  3 24 18 18  0.0000000  0  8 27 31 28 18 22 19 29 14
  23306707.532    -5577621.279 6  -4302159.855 4
  23348413.280    -5919996.137 6  -5172086.281 4
  23531808.168     -209435.339 5  -2969875.728 4
  20405198.245     6981283.840 8  -1788647.840 1
  24355446.995   -12903924.315 5   7879038.044 3
  21442608.731     6855880.984 8  -2974287.027 9
  21157841.181    -5554263.770 8   2362639.505 9
  24508506.784    31985092.334 5   9135890.509 3
 94  3 24 18 18 30.0000000  0  8 27 31 28 18 22 19 29 14
  23294898.048    -5639675.276 6  -4350513.590 4
  23335860.280    -5985972.652 6  -5223496.503 4
  23528062.351     -229197.535 6  -2985274.825 4
  20404699.690     6978685.526 8  -1790672.502 1
  24376901.882   -12791165.052 5   7966902.348 3
  21437543.437     6829261.520 8  -2995029.453 9
  21167627.127    -5502814.639 8   2402729.703 9
  24531666.770    32106780.201 5   9230711.977 2
 94  3 24 18 19  0.0000000  0  8 27 31 28 18 22 19 29 14
  23283117.163    -5701618.713 6  -4398781.173 4
  23323362.712    -6051676.419 6  -5274694.167 4
  23524389.444     -248487.483 6  -3000305.927 4
  20404296.260     6976557.804 8  -1792330.480 1
  24398384.770   -12678249.368 5   8054888.497 3
  21432515.648     6802818.931 8  -3015634.051 9
  21177500.402    -5450938.610 8   2443152.554 9
  24554817.883    32228477.421 5   9325540.717 2
 94  3 24 18 19 30.0000000  0  8 27 31 28 18 22 19 29 14
  23271350.909    -5763430.343 6  -4446946.068 4
  23310906.125    -6117111.741 6  -5325682.669 4
  23520811.151     -267286.330 6  -3014954.368 4
  20403984.895     6974911.276 8  -1793613.510 1
  24419900.275   -12565200.743 5   8142978.248 3
  21427516.489     6776568.840 8  -3036088.652 9
  21187450.903    -5398647.446 8   2483898.865 9
  24577980.028    32350198.826 4   9420388.305 2
 94  3 24 18 20  0.0000000  0  8 27 31 28 18 22 19 29 14
  23259611.666    -5825115.776 6  -4495012.594 4
  23298508.328    -6182277.609 6  -5376461.210 4
  23517328.912     -285575.405 6  -3029205.578 4
  20403760.920     6973747.480 8  -1794520.365 1
  24441430.050   -12452048.519 5   8231148.768 3
  21422557.442     6750506.190 8  -3056397.201 9
  21197483.428    -5345944.484 8   2524966.097 9
  24601154.195    32471959.155 5   9515266.212 2
 94  3 24 18 20 30.0000000  0  8 27 31 28 18 22 19 29 14
  23247892.239    -5886680.291 6  -4542984.919 4
  23286157.898    -6247147.225 6  -5427008.935 4
  23513943.206     -303340.587 5  -3043048.549 4
  20403628.022     6973060.683 8  -1795055.565 1
  24462979.911   -12338815.564 5   8319382.171 3
  21417637.098     6724649.180 8  -3076545.524 9
  21207590.331    -5292814.980 8   2566365.661 9
  24624319.608    32593740.354 4   9610160.364 2
 94  3 24 18 21  0.0000000  0  8 27 31 28 18 22 19 29 14
  23236202.732    -5948117.112 6  -4590857.730 4
  23273877.860    -6311700.098 6  -5477309.793 4
  23510671.121     -320572.666 6  -3056476.118 4
  20403587.640     6972830.368 9  -1795235.041 1
  24484541.525   -12225504.251 5   8407676.613 3
  21412761.664     6699022.957 8  -3096513.993 9
  21217788.341    -5239242.289 8   2608110.595 9
  24647511.403    32715529.166 5   9705060.479 2
 94  3 24 18 21 30.0000000  0  8 27 31 28 18 22 19 29 14
  23224536.008    -6009423.387 6  -4638628.818 4
  23261647.736    -6375935.997 6  -5527363.705 4
  23507485.676     -337270.264 5  -3069487.217 4
  20403629.311     6973050.554 8  -1795063.477
  24506113.211   -12112112.306 5   8496033.890 3
  21407927.720     6673639.685 8  -3116293.152 9
  21228060.939    -5185237.357 8   2650192.311 9
  24670672.889    32837313.527 4   9799957.061 2
 94  3 24 18 22  0.0000000  0  8 27 31 28 18 22 19 29 14
  23212890.750    -6070619.394 6  -4686313.977 4
  23249487.015    -6439854.215 6  -5577170.039 4
  23504417.960     -353444.226 6  -3082090.257 4
  20403750.787     6973712.427 8  -1794547.756 1
  24527719.193   -11998626.769 5   8584464.114 3
  21403146.540     6648493.355 8  -3135887.690 9
  21238419.968    -5130803.747 8   2692608.055 9
  24693857.728    32959072.777 5   9894834.138 2
 94  3 24 18 22 30.0000000  0  8 27 31 28 18 22 19 29 14
  23201267.017    -6131707.367 6  -4733914.980 5
  23237376.359    -6503462.826 6  -5626735.124 4
  23501424.652     -369120.599 5  -3094305.598 4
  20403963.640     6974810.126 8  -1793692.417
  24549329.253   -11885033.336 5   8672978.408 3
  21398406.042     6623583.441 8  -3155297.995 9
  21248855.384    -5075959.711 8   2735343.629 9
  24717009.350    33080777.543 5   9989668.701 2
 94  3 24 18 23  0.0000000  0  8 27 31 28 18 22 19 29 14
  23189667.118    -6192692.870 6  -4781436.101 5
  23225337.324    -6566776.037 6  -5676070.035 4
  23498539.510     -384318.841 5  -3106148.364 4
  20404257.167     6976347.655 8  -1792494.362
  24570974.868   -11771320.202 5   8761585.967 3
  21393703.737     6598887.237 8  -3174541.791 9
  21259363.559    -5020748.639 8   2778365.216 9
  24740160.044    33202443.424 4  10084472.972 2
 94  3 24 18 23 30.0000000  0  8 27 31 28 18 22 19 29 14
  23178072.704    -6253578.543 6  -4828879.467 5
  23213339.569    -6629793.150 6  -5725174.238 4
  23495738.699     -399044.005 6  -3117622.468 4
  20404634.605     6978338.123 8  -1790943.360
  24592643.927   -11657491.548 5   8850283.528 3
  21389043.343     6574385.826 8  -3193633.782 9
  21269937.119    -4965176.944 8   2821667.799 9
  24763311.906    33324089.506 5  10179261.827 2
 94  3 24 18 24  0.0000000  0  8 27 31 28 18 22 19 29 14
  23166514.206    -6314353.788 6  -4876236.787 5
  23201407.620    -6692505.454 6  -5774040.884 4
  23493027.555     -413299.974 6  -3128731.033 4
  20405097.635     6980783.588 8  -1789037.816 9
  24614323.059   -11543543.691 5   8939073.977 3
  21384414.908     6550079.379 8  -3212573.873 9
  21280588.655    -4909214.202 8   2865275.090 9
  24786462.299    33445726.073 5  10274043.233 2
 94  3 24 18 24 30.0000000  0  8 27 31 28 18 22 19 29 14
  23154962.093    -6375007.533 6  -4923499.403 5
  23189529.723    -6754912.344 6  -5822669.606 4
  23490391.510     -427081.392 5  -3139469.755 4
  20405653.360     6983688.234 8  -1786774.467 9
  24636021.257   -11429494.570 5   9027943.330 3
  21379826.344     6525963.974 8  -3231365.093 9
  21291312.951    -4852861.842 8   2909185.973 9
  24809604.718    33567358.788 5  10368821.601 2
 94  3 24 18 25  0.0000000  0  8 27 31 28 18 22 19 29 14
  23143450.213    -6435530.385 6  -4970660.046 5
  23177723.086    -6816992.857 6  -5871043.962 4
  23487877.181     -440359.812 6  -3149816.561 4
  20406295.096     6987063.968 8  -1784144.039 9
  24657730.638   -11315348.341 5   9116888.425 2
  21375279.302     6502055.536 8  -3249995.024 9
  21302110.935    -4796106.819 8   2953410.607 9
  24832754.752    33688999.191 4  10463606.041 2
 94  3 24 18 25 30.0000000  0  8 27 31 28 18 22 19 29 14
  23131962.166    -6495900.498 6  -5017701.659 5
  23165963.967    -6878746.521 6  -5919163.654 4
  23485442.656     -453127.118 6  -3159765.095 4
  20407027.009     6990912.591 8  -1781145.114 9
  24679480.251   -11201109.037 5   9205905.946 2
  21370766.616     6478374.376 8  -3268447.875 9
  21312992.862    -4738914.564 8   2997975.944 9
  24855900.258    33810629.878 5  10558382.795 2
 94  3 24 18 26  0.0000000  0  8 27 31 28 18 22 19 29 14
  23120502.269    -6556109.488 6  -5064617.716 5
  23154285.462    -6940163.851 6  -5967021.249 4
  23483117.886     -465372.662 6  -3169307.077 4
  20407852.218     6995239.174 8  -1777773.764 9
  24701238.319   -11086770.193 5   9295001.049 3
  21366309.931     6454933.951 8  -3286713.131 9
  21323962.688    -4681283.084 8   3042883.541 9
  24879040.039    33932236.760 4  10653141.088 2
 94  3 24 18 26 30.0000000  0  8 27 31 28 18 22 19 29 14
  23109081.586    -6616157.914 6  -5111408.669 5
  23142664.187    -7001226.310 6  -6014602.349 4
  23480882.094     -477087.807 6  -3178435.742 4
  20408767.844     7000057.644 8  -1774019.121 9
  24723014.553   -10972325.937 5   9384178.312 3
  21361901.843     6431730.035 8  -3304794.099 9
  21335010.759    -4623220.156 8   3088127.344 9
  24902172.595    34053805.281 4  10747869.438 2
 94  3 24 18 27  0.0000000  0  7 27 31 28 18 22 19 29
  23097683.686    -6676061.850 6  -5158087.056 5
  23131102.091    -7061934.407 6  -6061907.282 4
  23478761.032     -488282.672 6  -3187159.022 4
  20409773.618     7005362.433 8  -1769885.547 9
  24744823.795   -10857765.329 5   9473446.251 2
  21357528.770     6408759.627 8  -3322693.113 9
  21346143.133    -4564716.049 7   3133714.896 9
 94  3 24 18 27 30.0000000  0  7 27 31 28 18 22 19 29
  23086312.319    -6735818.864 6  -5204650.921 5
  23119628.045    -7122274.438 6  -6108925.464 4
  23476724.092     -498938.637 6  -3195462.363 4
  20410885.848     7011175.524 8  -1765355.880 9
  24766647.846   -10743075.685 5   9562814.711 2
  21353201.476     6386027.361 8  -3340406.548 9
  21357362.236    -4505758.855 7   3179655.527 9
 94  3 24 18 28  0.0000000  0  7 27 31 28 18 22 19 29
  23074961.696    -6795446.614 6  -5251114.096 5
  23108220.282    -7182223.662 6  -6155639.093 4
  23474815.613     -509039.285 6  -3203332.993 4
  20412091.703     7017510.946 8  -1760419.220 9
  24788481.731   -10628255.599 5   9652284.830 2
  21348917.352     6363532.428 8  -3357935.063 9
  21368666.930    -4446346.925 7   3225950.488 9
 94  3 24 18 28 30.0000000  0  7 27 31 28 18 22 19 29
  23063634.878    -6854963.831 6  -5297491.109 5
  23096875.266    -7241803.845 6  -6202065.155 4
  23472989.817     -518595.798 6  -3210779.610 4
  20413395.620     7024358.744 8  -1755083.275 9
  24810365.321   -10513327.170 4   9741839.322 2
  21344678.676     6341250.514 8  -3375297.587 9
  21380059.942    -4386496.941 8   3272586.791 9
 94  3 24 18 29  0.0000000  0  7 27 31 28 18 22 19 29
  23052327.126    -6914383.194 6  -5343791.895 5
  23085620.278    -7301042.192 6  -6248224.836 4
  23471266.191     -527615.088 6  -3217807.649 4
  20414789.176     7031693.942 8  -1749367.556 9
  24832247.533   -10398312.002 4   9831461.437 2
  21340479.064     6319176.749 8  -3392497.920 9
  21391526.344    -4326225.460 7   3319551.535 9
 94  3 24 18 29 30.0000000  0  7 27 31 28 18 22 19 29
  23041040.000    -6973692.328 6  -5390006.765 5
  23074398.296    -7359940.873 6  -6294119.870 4
  23469658.583     -536086.111 6  -3224408.433 4
  20416276.746     7039510.652 8  -1743276.635 9
  24854148.541   -10283226.250 5   9921138.609 2
  21336316.985     6297310.838 8  -3409536.282 9
  21403076.718    -4265540.315 7   3366838.612 9
 94  3 24 18 30  0.0000000  0  7 27 31 28 18 22 19 29
  23029777.577    -7032889.766 6  -5436134.597 5
  23063249.285    -7418505.904 6  -6339754.895 4
  23468155.964     -544023.002 6  -3230592.984 4
  20417853.534     7047786.452 8  -1736827.982 9
  24876064.359   -10168081.187 4  10010861.919 2
  21332196.008     6275645.676 8  -3426418.209 9
  21414700.242    -4204443.412 7   3414446.533 9
 94  3 24 18 30 30.0000000  0  7 27 31 28 18 22 19 29
  23018540.246    -7091978.971 6  -5482178.121 5
  23052173.842    -7476756.606 6  -6385145.012 4
  23466741.873     -551440.113 6  -3236372.555 4
  20419510.667     7056504.376 8  -1730034.808 9
  24897983.864   -10052884.018 4  10100625.874 2
  21328106.029     6254172.099 8  -3443150.867 9
  21426403.120    -4142956.721 7   3462358.197 9
 94  3 24 18 31  0.0000000  0  7 27 31 28 18 22 19 29
  23007310.350    -7150950.117 6  -5528129.627 5
  23041150.833    -7534679.263 6  -6430279.479 4
  23465420.867     -558330.450 6  -3241741.653 4
  20421256.358     7065674.848 8  -1722889.005 9
  24919916.261    -9937636.400 5  10190429.143 2
  21324057.182     6232905.853 8  -3459721.965 9
  21438178.728    -4081069.185 7   3510582.186 9
 94  3 24 18 31 30.0010000  0  7 27 31 28 18 22 19 29
  22996112.982    -7209805.050 6  -5573990.566 5
  23030187.633    -7592264.389 6  -6475150.956 4
  23464219.869     -564695.765 6  -3246701.647 4
  20423091.028     7075310.926 8  -1715380.386 9
  24941852.885    -9822339.922 4  10280270.457 2
  21320056.362     6211839.009 8  -3476137.675 9
  21450032.581    -4018771.609 7   3559125.689 9
 94  3 24 18 32  0.0010000  0  7 27 31 28 18 22 19 29
  22984937.379    -7268543.248 6  -5619760.568 5
  23019287.209    -7649495.720 6  -6519746.769 4
  23463107.369     -570547.338 6  -3251261.297 4
  20425009.520     7085421.628 8  -1707501.942 9
  24963802.099    -9706991.480 5  10370152.237 2
  21316080.664     6190967.185 8  -3492401.438 9
  21461967.199    -3956065.899 7   3607987.221 9
 94  3 24 18 32 30.0010000  0  7 27 31 28 18 22 19 29
  22973782.371    -7327155.649 6  -5665432.543 5
  23008476.903    -7706370.132 6  -6564064.402 4
  23462084.507     -575886.664 6  -3255421.784 4
  20427029.432     7096018.102 8  -1699244.941 9
  24985762.736    -9591587.999 5  10460076.984 2
  21312146.098     6170291.709 8  -3508512.174 9
  21473978.864    -3892939.979 7   3657176.214 9
 94  3 24 18 33  0.0010000  0  7 27 31 28 18 22 19 29
  22962653.836    -7385637.947 6  -5711003.135 5
  22997720.020    -7762881.463 6  -6608099.184 4
  23461171.369     -580712.159 6  -3259181.920 4
  20429138.861     7107090.122 8  -1690617.393 9
  25007745.588    -9476140.184 5  10550036.196 2
  21308252.394     6149810.384 8  -3524471.659 9
  21486070.243    -3829386.912 7   3706698.021 9
 94  3 24 18 33 30.0010000  0  7 27 31 28 18 22 19 29
  22951540.109    -7444011.224 6  -5756488.783 5
  22987025.643    -7819032.038 6  -6651852.821 4
  23460344.122     -585043.620 6  -3262557.085 4
  20431325.128     7118605.050 8  -1681644.741 9
  25029706.585    -9360642.480 5  10640034.375 2
  21304386.450     6129508.275 8  -3540291.473 9
  21498242.656    -3765434.894 7   3756530.704 9
 94  3 24 18 34  0.0010000  0  7 27 31 28 18 22 19 29
  22940462.598    -7502275.102 6  -5801889.181 5
  22976418.866    -7874816.580 6  -6695321.253 4
  23459606.303     -588878.104 6  -3265545.000 4
  20433602.771     7130560.037 8  -1672329.177 9
  25051698.910    -9245099.790 4  10730067.493 2
  21300558.880     6109396.700 8  -3555962.832 9
  21510483.122    -3701101.110 7   3806660.879 9
 94  3 24 18 34 30.0010000  0  7 27 31 28 18 22 19 29
  22929385.986    -7560433.467 6  -5847207.353 6
  22965876.994    -7930235.876 6  -6738505.041 4
  23458975.929     -592204.139 6  -3268136.666 4
  20435961.628     7142958.018 8  -1662668.413 9
  25073687.457    -9129521.633 4  10820128.277 2
  21296768.694     6089485.532 8  -3571478.001 9
  21522796.498    -3636408.618 7   3857070.566 9
 94  3 24 18 35  0.0010000  0  6 27 31 28 18 19 29
  22918346.399    -7618486.567 6  -5892443.498 6
  22955403.955    -7985266.232 6  -6781385.778 4
  23458443.048     -594999.252 6  -3270314.677 4
  20438411.022     7155826.720 8  -1652640.866 9
  21293023.417     6069795.832 8  -3586820.642 9
  21535172.620    -3571361.362 7   3907756.663 9
 94  3 24 18 35 30.0010000  0  6 27 31 28 18 19 29
  22907320.242    -7676428.280 6  -5937592.875 6
  22945014.227    -8039890.536 6  -6823950.104 4
  23458020.101     -597258.071 6  -3272074.808 4
  20440956.410     7169200.628 8  -1642219.654 9
  21289316.363     6050335.131 8  -3601984.818 9
  21547620.273    -3505948.624 7   3958727.581 9
 94  3 24 18 36  0.0010000  0  6 27 31 28 18 19 29
  22896317.979    -7734248.522 6  -5982647.574 6
  22934697.829    -8094102.185 6  -6866192.895 4
  23457691.768     -598970.215 6  -3273408.951 4
  20443599.081     7183104.793 8  -1631385.260 9
  21285662.732     6031103.850 8  -3616970.232 9
  21560142.664    -3440152.638 7   4009997.141 9
 94  3 24 18 36 30.0010000  0  6 27 31 28 18 19 29
  22885334.003    -7791948.041 6  -6027608.214 6
  22924463.154    -8147896.469 6  -6908110.451 4
  23457467.673     -600128.893 6  -3274311.790 4
  20446350.306     7197539.121 8  -1620137.723 9
  21282043.008     6012101.263 8  -3631777.432 9
  21572741.262    -3373938.226 7   4061592.737 9
 94  3 24 18 37  0.0010000  0  6 27 31 28 18 19 29
  22874378.387    -7849526.093 6  -6072474.200 6
  22914309.424    -8201270.434 6  -6949700.497 4
  23457363.735     -600727.654 6  -3274778.367 4
  20449193.328     7212493.162 8  -1608485.250 9
  21278470.471     5993317.293 8  -3646414.283 9
  21585427.849    -3307269.049 7   4113542.701 9
 94  3 24 18 37 30.0010000  0  6 27 31 28 18 19 29
  22863449.453    -7906974.140 6  -6117238.880 6
  22904220.898    -8254231.253 6  -6990968.599 4
  23457350.574     -600768.131 6  -3274809.890 4
  20452134.922     7227937.526 8  -1596450.701 9
  21274932.980     5974735.839 8  -3660893.326 9
  21598200.327    -3240145.164 7   4165846.968 9
 94  3 24 18 38  0.0010000  0  6 27 31 28 18 19 29
  22852536.048    -7964302.168 6  -6161910.041 6
  22894213.676    -8306796.840 6  -7031928.727 4
  23457456.910     -600256.304 6  -3274411.067 4
  20455157.369     7243843.936 8  -1584056.108 9
  21271433.443     5956345.332 8  -3675223.605 9
  21611059.535    -3172582.238 7   4218493.353 9
 94  3 24 18 38 30.0010000  0  6 27 31 28 18 19 29
  22841652.413    -8021514.066 6  -6206490.706 6
  22884278.554    -8358978.178 6  -7072589.485 4
  23457647.459     -599202.965 6  -3273590.272 4
  20458269.695     7260198.991 8  -1571311.931 9
  21267968.562     5938133.123 8  -3689414.906 9
  21623994.170    -3104595.098 7   4271470.288 9
 94  3 24 18 39  0.0010000  0  6 27 31 28 18 19 29
  22830788.594    -8078585.891 6  -6250962.239 6
  22874435.678    -8410768.091 6  -7112945.190 4
  23457949.559     -597608.854 6  -3272348.106 4
  20461471.208     7277022.912 8  -1558202.395 9
  21264539.895     5920104.649 8  -3703463.049 9
  21637007.741    -3036217.249 7   4324751.674 9
 94  3 24 18 39 30.0010000  0  6 27 31 28 18 19 29
  22819958.741    -8135515.276 6  -6295322.762 6
  22864653.060    -8462160.933 6  -7152991.508 4
  23458345.885     -595478.187 6  -3270687.843 5
  20464766.737     7294318.208 8  -1544725.555 9
  21261141.388     5902269.215 8  -3717360.795 9
  21650089.815    -2967475.146 7   4378316.887 9
 94  3 24 18 40  0.0010000  0  6 27 31 28 18 19 29
  22809148.855    -8192318.352 6  -6339584.874 6
  22854946.260    -8513159.388 6  -7192730.507 4
  23458853.883     -592821.490 6  -3268617.683 4
  20468146.267     7312091.168 8  -1530876.511 9
  21257787.310     5884635.880 8  -3731101.038 9
  21663241.020    -2898364.112 7   4432169.603 9
 94  3 24 18 40 30.0010000  0  6 27 31 28 18 19 29
  22798361.513    -8248989.708 6  -6383744.331 6
  22845329.128    -8563761.046 6  -7232160.338 4
  23459472.415     -589623.872 6  -3266126.034 4
  20471620.442     7330349.735 8  -1516649.068 9
  21254471.156     5867212.924 8  -3744677.368 9
  21676462.138    -2828878.262 7   4486314.371 9
 94  3 24 18 41  0.0010000  0  6 27 31 28 18 19 29
  22787598.694    -8305533.393 6  -6427804.330 6
  22835767.697    -8613964.661 6  -7271279.990 5
  23460189.968     -585875.190 6  -3263204.978 5
  20475184.255     7349081.067 8  -1502053.250 9
  21251197.722     5850010.539 8  -3758081.826 9
  21689760.421    -2759005.308 7   4540760.776 9
 94  3 24 18 41 30.0010000  0  6 27 31 28 18 19 29
  22776865.314    -8361952.363 6  -6471767.151 6
  22826299.742    -8663757.073 6  -7310079.239 5
  23461007.472     -581556.868 6  -3259840.021 5
  20478844.661     7368286.214 8  -1487088.217 9
  21247966.589     5833036.367 8  -3771308.444 9
  21703136.621    -2688706.934 7   4595538.675 9
 94  3 24 18 42  0.0010000  0  6 27 31 28 18 19 29
  22766158.616    -8418242.250 7  -6515629.361 6
  22816901.818    -8713145.810 6  -7348563.934 5
  23461934.850     -576671.761 6  -3256033.451 5
  20482589.758     7387982.140 8  -1471740.752 9
  21244781.174     5816278.958 8  -3784366.156 9
  21716598.172    -2617978.243 7   4650651.919 9
 94  3 24 18 42 30.0010000  0  6 27 31 28 18 19 29
  22755467.747    -8474397.179 6  -6559386.441 6
  22807586.666    -8762123.820 6  -7386728.589 5
  23462976.509     -571218.164 6  -3251783.938 5
  20486433.457     7408183.734 8  -1455999.283 9
  21241630.625     5799731.276 8  -3797260.455 9
  21730131.673    -2546831.243 7   4706091.076 9
 94  3 24 18 43  0.0010000  0  6 27 31 28 18 19 29
  22744811.055    -8530427.295 6  -6603046.237 6
  22798339.778    -8810679.291 6  -7424563.989 5
  23464120.907     -565219.008 6  -3247109.222 5
  20490374.829     7428899.895 8  -1439856.850 9
  21238519.079     5783383.613 8  -3809998.894 9
  21743751.694    -2475277.397 7   4761847.272 9
 94  3 24 18 43 30.0010000  0  6 27 31 28 18 19 29
  22734169.952    -8586321.275 6  -6646599.960 6
  22789184.746    -8858787.232 6  -7462050.688 5
  23465357.971     -558669.332 6  -3242005.581 5
  20494425.714     7450175.208 8  -1423278.711 9
  21235446.386     5767242.145 8  -3822576.669 9
  21757442.286    -2403323.510 7   4817915.193 8
 94  3 24 18 44  0.0010000  0  6 27 31 28 18 19 29
  22723561.855    -8642083.139 7  -6690050.744 6
  22780112.876    -8906437.104 6  -7499180.453 5
  23466718.399     -551572.465 6  -3236475.562 5
  20498580.778     7472022.243 8  -1406255.065 9
  21232417.553     5751312.298 8  -3834989.533 9
  21771211.004    -2330973.650 7   4874291.655 8
 94  3 24 18 44 30.0010000  0  6 27 31 28 18 19 29
  22712981.280    -8697715.764 7  -6733400.814 6
  22771127.317    -8953618.633 6  -7535945.253 5
  23468167.236     -543924.589 6  -3230516.170 5
  20502842.298     7494425.799 8  -1388797.791 9
  21229427.033     5735599.593 8  -3847233.206 9
  21785057.818    -2258228.712 7   4930975.978 8
 94  3 24 18 45  0.0010000  0  6 27 31 28 18 19 29
  22702412.547    -8753223.330 7  -6776653.437 6
  22762232.654    -9000327.976 6  -7572342.119 5
  23469720.820     -535723.390 6  -3224125.606 5
  20507208.655     7517364.227 8  -1370923.714 9
  21226476.116     5720094.304 8  -3859315.242 9
  21798973.375    -2185093.289 7   4987964.578 8
 94  3 24 18 45 30.0010000  0  6 27 31 28 18 19 29
  22691875.741    -8808601.871 7  -6819805.518 6
  22753446.697    -9046571.584 6  -7608376.075 5
  23471396.540     -526949.639 6  -3217288.933 5
  20511669.507     7540816.390 8  -1352649.310 9
  21223566.511     5704802.560 8  -3871230.895 9
  21812969.875    -2111554.674 7   5045267.333 8
 94  3 24 18 46  0.0010000  0  6 27 31 28 18 19 29
  22681358.872    -8863864.031 7  -6862866.925 6
  22744731.670    -9092373.591 6  -7644065.912 5
  23473168.673     -517611.595 6  -3210012.547 4
  20516222.185     7564732.446 8  -1334013.466 9
  21220697.227     5689723.239 8  -3882981.028 9
  21827038.266    -2037615.218 7   5102882.435 8
 94  3 24 18 46 30.0010000  0  6 27 31 28 18 19 29
  22670863.947    -8919016.145 7  -6905842.572 6
  22736093.960    -9137744.729 6  -7679420.007 5
  23475054.578     -507716.923 6  -3202302.376 4
  20520856.257     7589088.111 8  -1315035.046 9
  21217868.385     5674846.293 8  -3894573.450 9
  21841182.084    -1963293.073 7   5160795.742 8
 94  3 24 18 47  0.0010000  0  6 27 31 28 18 19 29
  22660381.674    -8974081.990 7  -6948750.996 6
  22727542.320    -9182693.075 6  -7714444.656 5
  23477043.371     -497274.476 6  -3194165.406 4
  20525576.489     7613883.388 8  -1295714.075 9
  21215072.671     5660162.902 8  -3906015.070 9
  21855390.568    -1888590.195 7   5219005.729 8
 94  3 24 18 47 30.0010000  0  6 27 31 28 18 19 29
  22649922.275    -9029065.237 7  -6991595.063 6
  22719073.663    -9227233.474 6  -7749151.406 5
  23479143.537     -486292.166 6  -3185607.779 4
  20530382.432     7639133.025 8  -1276039.059 9
  21212315.000     5645685.963 8  -3917295.804 9
  21869685.092    -1813498.103 7   5277518.976 8
 94  3 24 18 48  0.0010000  0  6 27 31 28 18 19 29
  22639477.296    -9083952.499 7  -7034364.319 6
  22710676.326    -9271344.759 6  -7783523.804 5
  23481324.767     -474769.667 6  -3176629.206 4
  20535277.713     7664862.098 8  -1255990.444 9
  21209601.099     5631419.788 8  -3928412.305 9
  21884049.947    -1738020.819 7   5336332.371 8
 94  3 24 18 48 30.0010000  0  6 27 31 28 18 19 29
  22629054.052    -9138719.905 7  -7077040.193 6
  22702362.541    -9314991.748 6  -7817534.397 5
  23483623.426     -462693.104 6  -3167218.882 4
  20540270.367     7691100.788 8  -1235544.726 9
  21206926.920     5617357.655 8  -3939369.810 9
  21898489.871    -1662147.484 7   5395454.391 8
 94  3 24 18 49  0.0010000  0  6 27 31 28 18 19 29
  22618655.001    -9193360.504 7  -7119617.280 6
  22694156.892    -9358177.623 6  -7851185.694 5
  23486030.579     -450060.548 6  -3157375.338 4
  20545361.352     7717850.035 8  -1214701.185 9
  21204288.896     5603500.753 8  -3950167.402 9
  21912996.708    -1585874.981 7   5454887.434 8
 94  3 24 18 49 30.0010000  0  6 27 31 28 18 19 29
  22608288.478    -9247837.132 7  -7162066.560 6
  22686019.715    -9400881.052 6  -7884461.040 5
  23488541.791     -436856.100 6  -3147086.183 4
  20550547.102     7745103.337 8  -1193464.863 9
  21201696.051     5589863.984 8  -3960793.447 9
  21927585.928    -1509199.062 7   5514634.839 8
 94  3 24 18 50  0.0010000  0  6 27 31 28 18 19 29
  22597960.238    -9302130.269 7  -7204372.877 6
  22677989.954    -9443069.352 6  -7917335.009 5
  23491160.658     -423059.459 6  -3136335.541 4
  20555828.696     7772853.460 8  -1171841.424 9
  21199141.909     5576442.444 8  -3971251.787 9
  21942256.902    -1432119.981 7   5574696.405 8
 94  3 24 18 50 30.0010000  0  6 27 31 28 18 19 29
  22587655.412    -9356249.953 7  -7246544.026 6
  22670065.270    -9484759.064 6  -7949820.450 5
  23493902.620     -408675.877 6  -3125127.558 4
  20561203.555     7801099.921 8  -1149831.219 9
  21196629.109     5563236.726 8  -3981541.954 9
  21957001.924    -1354640.955 7   5635069.601 8
 94  3 24 18 51  0.0010000  0  6 27 31 28 18 19 29
  22577394.805    -9410199.102 7  -7288582.295 6
  22662223.959    -9525964.636 6  -7981928.664 5
  23496753.436     -393706.143 6  -3113462.839 4
  20566673.118     7829849.144 8  -1127429.258 9
  21194160.978     5550264.825 8  -3991649.944 9
  21971826.901    -1276762.465 7   5695754.076 8
 94  3 24 18 51 30.0010000  0  6 27 31 28 18 19 29
  22567157.012    -9463972.764 7  -7330483.834 6
  22654470.816    -9566681.886 6  -8013656.315 5
  23499715.056     -378157.526 6  -3101347.029 4
  20572241.044     7859108.777 8  -1104629.565 9
  21191734.248     5537519.650 8  -4001581.234 9
  21986712.676    -1198492.181 7   5756743.845 8
 94  3 24 18 52  0.0010000  0  6 27 31 28 18 19 29
  22556948.390    -9517613.332 7  -7372281.661 6
  22646816.095    -9606951.460 6  -8045035.177 5
  23502774.108     -362075.833 6  -3088815.838 4
  20577907.481     7888871.259 8  -1081438.043 9
  21189347.420     5524958.895 8  -4011368.848 9
  22001679.484    -1119862.607 7   5818013.582 8
 94  3 24 18 52 30.0010000  0  6 27 31 28 18 19 29
  22546767.857    -9571144.036 7  -7413993.878 6
  22639223.642    -9646790.504 6  -8076078.533 5
  23505938.837     -345486.395 6  -3075888.996 4
  20583666.015     7919135.920 8  -1057855.226 9
  21186989.852     5512582.327 8  -4021012.913 9
  22016707.600    -1040876.869 7   5879560.861 8
 94  3 24 18 53  0.0010000  0  6 27 31 28 18 19 29
  22536603.124    -9624566.167 7  -7455621.482 6
  22631730.269    -9686189.532 6  -8106779.044 5
  23509187.388     -328394.374 6  -3062570.528 4
  20589515.685     7949888.080 8  -1033892.515 9
  21184664.332     5500377.992 8  -4030522.782 9
  22031807.187     -961531.927 7   5941388.046 8
 94  3 24 18 53 30.0010000  0  6 27 31 28 18 19 29
  22526451.612    -9677899.758 7  -7497180.099 6
  22624321.618    -9725140.918 6  -8137130.711 5
  23512531.663     -310796.859 6  -3048858.178 4
  20595461.229     7981119.959 8  -1009556.007 9
  21182371.759     5488328.672 8  -4039911.871 9
  22046975.666     -881825.121 7   6003497.179 7
 94  3 24 18 54  0.0010000  0  6 27 31 28 18 19 29
  22516320.546    -9731163.100 7  -7538683.962 6
  22616983.658    -9763647.784 6  -8167136.005 5
  23515978.737     -292680.345 6  -3034741.396 4
  20601492.244     8012833.212 8   -984844.414 9
  21180115.071     5476440.666 8  -4049175.246 9
  22062217.894     -801745.875 7   6065896.525 7
 94  3 24 18 54 30.0010000  0  6 27 31 28 18 19 29
  22506185.942    -9784357.192 7  -7580133.904 6
  22609756.801    -9801704.690 6  -8196790.706 5
  23519518.386     -274019.656 6  -3020200.612 4
  20607620.931     8045021.741 8   -959762.487 9
  21177883.596     5464729.117 8  -4058301.138 9
  22077525.837     -721295.513 7   6128585.058 7
 94  3 24 18 55  0.0010000  0  6 27 31 28 18 19 29
  22496082.636    -9837477.971 7  -7621526.710 6
  22602590.502    -9839310.983 6  -8226094.286 5
  23523188.835     -254797.058 6  -3005221.988 4
  20613833.380     8077684.497 8   -934311.021 9
  21175687.916     5453191.738 8  -4067291.305 9
  22092899.254     -640485.544 7   6191553.802 7
 94  3 24 18 55 30.0010000  0  6 27 31 28 18 19 29
  22485986.495    -9890530.876 7  -7662866.612 6
  22595521.666    -9876471.767 6  -8255050.704 5
  23526950.751     -235020.104 6  -2989811.364 4
  20620138.555     8110823.359 8   -908488.560 9
  21173523.625     5441828.115 8  -4076146.079 9
  22108348.339     -559339.611 7   6254784.339 7
 94  3 24 18 56  0.0010000  0  6 27 31 28 18 19 29
  22475907.743    -9943497.128 7  -7704138.993 6
  22588539.050    -9913179.737 6  -8283654.261 5
  23530826.438     -214697.735 6  -2973975.754 4
  20626532.169     8144442.743 8   -882291.659 9
  21171399.415     5430653.678 8  -4084853.434 9
  22123851.386     -477876.887 7   6318261.712 7
 94  3 24 18 56 30.0010000  0  6 27 31 28 18 19 29
  22465855.042    -9996354.947 7  -7745326.854 6
  22581635.879    -9949414.698 6  -8311889.271 5
  23534787.596     -193839.216 6  -2957722.372 4
  20633027.352     8178543.209 8   -855719.905 9
  21169308.932     5419674.611 8  -4093408.554 9
  22139407.407     -396094.227 7   6381988.394 7
 94  3 24 18 57  0.0010000  0  6 27 31 28 18 19 29
  22455811.335   -10049102.362 7  -7786428.751 6
  22574834.008    -9985164.170 6  -8339745.965 5
  23538849.783     -172465.071 6  -2941067.197 4
  20639610.315     8213124.830 8   -828773.208 9
  21167253.136     5408879.928 8  -4101819.981 9
  22155033.400     -313986.520 7   6445968.370 7
 94  3 24 18 57 30.0010000  0  6 27 31 28 18 19 29
  22445791.762   -10101734.198 7  -7827440.567 6
  22568130.888   -10020412.182 6  -8367211.921 5
  23543014.051     -150571.177 6  -2924006.996 4
  20646285.344     8248200.628 8   -801441.438 9
  21165231.905     5398263.589 8  -4110092.452 9
  22170715.693     -231538.571 7   6510213.450 7
 94  3 24 18 58  0.0010000  0  6 27 31 28 18 19 29
  22435807.024   -10154231.283 7  -7868347.354 6
  22561517.646   -10055124.890 6  -8394260.739 5
  23547292.089     -128123.873 6  -2906515.607 4
  20653055.437     8283790.096 8   -773709.418 9
  21163250.277     5387847.226 8  -4118209.101 9
  22186483.967     -148708.543 7   6574756.279 7
 94  3 24 18 58 30.0010000  0  6 27 31 28 18 19 29
  22425844.321   -10206588.757 7  -7909145.364 6
  22555020.904   -10089291.192 6  -8420883.798 5
  23551675.324     -105100.015 6  -2888574.967 4
  20659928.329     8319907.964 8   -745565.657 9
  21161307.472     5377636.280 8  -4126165.686 9
  22202321.523      -65469.753 7   6639617.607 7
 94  3 24 18 59  0.0010000  0  6 27 31 28 18 19 29
  22415907.820   -10258806.664 7  -7949834.616 6
  22548622.314   -10122916.242 6  -8447085.097 5
  23556164.986      -81482.948 6  -2870172.044 4
  20666901.682     8356556.412 8   -717008.449 9
  21159403.400     5367626.705 8  -4133965.344 9
  22218242.841       18175.736 7   6704795.838 7
 94  3 24 18 59 30.0010000  0  7 27 31 28 18  2 19 29
  22406001.448   -10310861.420 7  -7990396.735 6
  22542325.922   -10155998.005 6  -8472863.051 5
  23560769.559      -57255.738 6  -2851293.711 4
  20673979.152     8393740.761 8   -688033.653 9
  24637030.509     -211429.89714   -144618.705
  21157542.048     5357845.974 8  -4141586.688 9
  22234241.205      102237.119 7   6770298.166 7
 94  3 24 19  0  0.0010000  0  7 27 31 28 18  2 19 29
  22396124.246   -10362733.840 7  -8030816.793 6
  22536132.000   -10188544.371 6  -8498223.808 5
  23565503.491      -32423.020 6  -2831943.549 4
  20681154.655     8431447.281 8   -658651.984 9
  24621486.390     -293121.717 5   -208271.891
  21155729.024     5348317.071 8  -4149011.812 9
  22250312.809      186705.869 7   6836117.901 7
 94  3 24 19  0 30.0010000  0  8 16 27 31 28 18  2 19 29
  25149300.152     -780315.84115   -718500.781 2
  22386294.621   -10414408.141 7  -8071082.477 6
  22530038.299   -10220568.076 6  -8523177.299 5
  23570349.966       -6985.922 6  -2812122.457 4
  20688429.598     8469676.159 8   -628863.269 9
  24605979.835     -374615.911 5   -271773.604 1
  21153965.674     5339046.003 8  -4156236.032 9
  22266461.220      271571.558 7   6902246.931 7
 94  3 24 19  1  0.0010000  0  8 16 27 31 28 18  2 19 29
  25138627.420     -836426.734 5   -762223.540 2
  22376499.172   -10465902.529 7  -8111207.949 7
  22524047.366   -10252091.943 6  -8547741.308 5
  23575297.471       19028.142 6  -2791851.790 4
  20695797.567     8508396.832 8   -598691.354 9
  24590509.225     -455924.081 5   -335130.553 2
  21152249.692     5330015.237 8  -4163273.009 9
  22282688.836      356808.334 7   6968665.148 7
 94  3 24 19  1 30.0010000  0  8 16 27 31 28 18  2 19 29
  25128028.948     -892100.885 5   -805605.993 2
  22366732.863   -10517235.350 7  -8151207.528 7
  22518138.457   -10283115.221 6  -8571915.259 5
  23580353.231       45601.313 6  -2771145.402 4
  20703258.862     8547616.888 8   -568130.295 9
  24575063.018     -537042.998 5   -398339.976 2
  21150575.231     5321224.893 8  -4170122.619 9
  22298970.054      442399.108 7   7035359.172 7
 94  3 24 19  2  0.0010000  0  8 16 27 31 28 18  2 19 29
  25117527.008     -947320.166 5   -848633.966 2
  22356985.711   -10568428.275 7  -8191098.094 7
  22512327.940   -10313628.966 6  -8595692.159 5
  23585513.978       72739.852 6  -2749998.504 4
  20710822.416     8587351.606 8   -537168.199 9
  24559673.262     -617981.939 5   -461409.195 2
  21148947.898     5312656.930 8  -4176798.964 9
  22315325.202      528340.352 7   7102326.304 7
 94  3 24 19  2 30.0010000  0  8 16 27 31 28 18  2 19 29
  25107112.158    -1002076.929 5   -891301.581 2
  22347267.189   -10619490.451 7  -8230886.793 7
  22506619.532   -10343618.262 6  -8619060.420 5
  23590783.730      100445.270 6  -2728409.865 4
  20718486.131     8627624.206 8   -505786.980 9
  24544300.115     -698727.252 5   -524327.504 2
  21147354.591     5304300.485 8  -4183310.483 9
  22331755.298      614643.863 7   7169575.696 7
 94  3 24 19  3  0.0010000  0  8 16 27 31 28 18  2 19 29
  25096765.091    -1056357.438 5   -933598.083 2
  22337576.787   -10670424.833 7  -8270575.898 7
  22501022.946   -10373056.178 7  -8641999.043 5
  23596171.510      128725.171 6  -2706373.614 4
  20726255.732     8668447.533 8   -473976.630 9
  24528969.448     -779273.320 5   -587090.611 2
  21145802.895     5296158.109 8  -4189655.202 9
  22348244.242      701318.708 7   7237114.478 7
 94  3 24 19  3 30.0010000  0  8 16 27 31 28 18  2 19 29
  25086512.609    -1110148.489 4   -975513.177 2
  22327912.798   -10721210.119 7  -8310148.842 7
  22495532.397   -10401911.778 7  -8664483.891 5
  23601666.856      157601.803 6  -2683872.339 4
  20734131.459     8709840.568 8   -441722.339 9
  24513674.846     -859608.083 4   -649689.017 2
  21144298.896     5288235.728 8  -4195828.494 9
  22364807.206      788373.846 7   7304949.576 7
 94  3 24 19  4  0.0010000  0  8 16 27 31 28 18  2 19 29
  25076389.067    -1163452.965 5  -1017049.077 2
  22318279.387   -10771824.694 7  -8349588.749 7
  22490148.604   -10430178.928 7  -8686510.202 5
  23607267.729      187077.508 6  -2660904.256 5
  20742111.155     8751783.869 8   -409039.291 9
  24498455.792     -939731.276 5   -712122.549 2
  21142831.652     5280534.902 8  -4201829.130 9
  22381451.593      875823.963 7   7373092.468 7
 94  3 24 19  4 30.0010000  0  8 16 27 31 28 18  2 19 29
  25066319.668    -1216309.068 5  -1058235.654 2
  22308681.681   -10822278.162 7  -8388903.136 7
  22484879.452   -10457886.213 7  -8708100.267 5
  23612984.981      217116.763 6  -2637497.071 5
  20750187.894     8794230.659 8   -375963.899 9
  24483233.740    -1019663.529 5   -774407.326 3
  21141404.550     5273041.710 8  -4207667.989 9
  22398164.214      963651.316 7   7441529.288 7
 94  3 24 19  5  0.0010000  0  8 16 27 31 28 18  2 19 29
  25056350.519    -1268727.695 5  -1099081.330 2
  22299109.308   -10872595.534 7  -8428111.467 7
  22479714.328   -10485048.240 6  -8729265.448 5
  23618810.578      247705.939 6  -2613661.386 5
  20758359.757     8837157.361 8   -342514.546 9
  24468047.123    -1099418.097 5   -836553.598 3
  21140023.196     5265752.139 8  -4213348.176 9
  22414939.161     1051827.573 7   7510237.976 7
 94  3 24 19  5 30.0010000  0  8 16 27 31 28 18  2 19 29
  25046471.309    -1320737.276 5  -1139608.254 2
  22289554.712   -10922799.561 7  -8467231.481 7
  22474636.023   -10511710.910 6  -8750041.518 5
  23624728.601      278804.198 6  -2589428.968 5
  20766611.604     8880531.852 8   -308716.286 9
  24452902.898    -1179009.654 5   -898572.893 3
  21138664.687     5258635.513 8  -4218893.597 9
  22431782.220     1140328.074 7   7579199.340 7
 94  3 24 19  6  0.0010000  0  8 16 27 31 28 18  2 19 29
  25036629.212    -1372361.221 5  -1179834.698 2
  22280012.798   -10972923.546 7  -8506289.100 7
  22469651.854   -10537903.654 6  -8770451.406 5
  23630740.789      310387.077 6  -2564818.936 5
  20774946.914     8924335.439 8   -274583.644 9
  24437788.771    -1258460.332 5   -960482.440 3
  21137340.564     5251685.906 8  -4224308.879 9
  22448682.870     1229148.337 7   7648409.863 7
 94  3 24 19  6 30.0010000  0  8 16 27 31 28 18  2 19 29
  25026870.128    -1423607.825 5  -1219767.113 2
  22270488.632   -11022990.777 7  -8545302.518 7
  22464756.932   -10563631.619 6  -8790499.129 5
  23636837.218      342463.471 6  -2539824.357 5
  20783366.225     8968573.636 8   -240112.353 9
  24422692.422    -1337773.010 5  -1022284.437 2
  21136049.717     5244897.482 8  -4229598.558 9
  22465642.789     1318267.257 7   7717853.101 6
 94  3 24 19  7  0.0010000  0  8 16 27 31 28 18  2 19 29
  25017221.668    -1474433.170 5  -1259371.242 2
  22260975.317   -11072964.608 7  -8584243.155 7
  22459960.013   -10588855.220 7  -8810153.870 5
  23643046.040      375081.706 6  -2514407.573 5
  20791874.964     9013289.846 8   -205268.579 9
  24407628.450    -1416914.102 5  -1083952.766 2
  21134795.026     5238300.520 8  -4234739.054 9
  22482668.722     1407712.491 7   7787550.615 6
 94  3 24 19  7 30.0010000  0  8 16 27 31 28 18  2 19 29
  25007632.027    -1524808.532 5  -1298624.782 2
  22251495.011   -11122778.383 7  -8623059.071 7
  22455259.028   -10613528.288 6  -8829379.610 5
  23649381.284      408285.919 6  -2488534.165 5
  20800483.925     9058517.675 8   -170026.151 9
  24392621.320    -1495848.039 5  -1145459.616 2
  21133583.774     5231927.684 8  -4239704.897 9
  22499753.655     1497543.344 7   7857548.604 6
 94  3 24 19  8  0.0010000  0  8 16 27 31 28 18  2 19 29
  24998117.184    -1574705.156 5  -1337505.277 2
  22242054.036   -11172408.741 7  -8661732.064 7
  22450680.148   -10637612.063 7  -8848146.158 5
  23655808.145      442112.847 6  -2462175.527 5
  20809189.778     9104280.229 8   -134367.046 9
  24377628.939    -1574559.032 5  -1206792.763 3
  21132419.081     5225809.816 8  -4244472.068 9
  22516934.311     1587770.112 7   7927855.113 6
 94  3 24 19  8 30.0010000  0  8 16 27 31 28 18  2 19 29
  24988727.024    -1624115.677 5  -1376006.987 2
  22232649.697   -11221854.424 7  -8700261.150 7
  22446201.968   -10661110.075 6  -8866456.261 5
  23662354.413      476557.038 6  -2435335.916 5
  20817999.779     9150564.987 8    -98301.034 9
  24362696.456    -1653046.540 5  -1267951.803 3
  21131297.077     5219925.251 8  -4249057.437 9
  22534167.970     1678372.050 7   7998453.958 6
 94  3 24 19  9  0.0010000  0  8 16 27 31 28 18  2 19 29
  24979411.243    -1673052.072 5  -1414139.238 2
  22223267.452   -11271127.659 7  -8738655.854 8
  22441843.015   -10684043.399 7  -8884326.355 5
  23669027.373      511575.849 6  -2408048.514 5
  20826900.767     9197348.909 8    -61846.057 9
  24347806.814    -1731327.497 5  -1328949.876 3
  21130221.992     5214253.220 8  -4253477.211 9
  22551482.424     1769334.954 7   8069334.080 6
 94  3 24 19  9 30.0010000  0  8 16 27 31 28 18  2 19 29
  24970184.981    -1721515.938 5  -1451903.278 2
  22213919.833   -11320254.934 7  -8776936.842 8
  22437581.496   -10706412.765 6  -8901757.014 5
  23675798.846      547157.255 6  -2380322.770 5
  20835901.226     9244638.170 8    -24997.329 9
  24332956.145    -1809399.519 5  -1389785.155 3
  21129183.271     5208794.616 8  -4257730.679 9
  22568851.949     1860644.089 6   8140483.981 6
 94  3 24 19 10  0.0010000  0  8 16 27 31 28 18  2 19 29
  24961083.252    -1769500.584 6  -1489293.904 2
  22204592.540   -11369260.334 7  -8815122.857 8
  22433441.572   -10728217.378 7  -8918747.567 5
  23682679.502      583311.422 6  -2352150.673 5
  20844996.719     9292442.615 8     12252.866 9
  24318129.130    -1887265.448 5  -1450459.846 3
  21128182.863     5203554.840 8  -4261813.629 9
  22586291.686     1952272.289 7   8211882.497 6
 94  3 24 19 10 30.0010000  0  8 16 27 31 28 18  2 19 29
  24952030.059    -1817027.879 5  -1526328.117 2
  22195282.935   -11418161.732 7  -8853227.824 8
  22429396.622   -10749478.640 7  -8935314.766 5
  23689654.833      620003.215 6  -2323559.704 5
  20854191.504     9340746.689 8     49892.370 9
  24303348.792    -1964949.908 5  -1510993.048 3
  21127221.429     5198508.537 8  -4265745.812 9
  22603785.805     2044196.178 7   8283511.465 6
 94  3 24 19 11  0.0010000  0  8 16 27 31 28 18  2 19 29
  24943039.643    -1864129.337 5  -1563030.598 2
  22185995.335   -11466986.988 7  -8891273.460 8
  22425442.149   -10770218.783 6  -8951475.896 5
  23696729.426      657197.897 6  -2294576.826 5
  20863472.988     9389537.943 8     87911.497 9
  24288590.249    -2042484.717 5  -1571409.719 3
  21126293.062     5193641.946 8  -4269537.976 9
  22621326.392     2136383.143 7   8355345.397 6
 94  3 24 19 11 30.0010000  0  8 16 27 31 28 18  2 19 29
  24934153.735    -1910829.506 5  -1599420.284 2
  22176718.167   -11515739.217 7  -8929262.192 8
  22421593.714   -10790439.718 6  -8967232.445 5
  23703907.806      694894.704 6  -2265202.718 5
  20872846.479     9438807.920 8    126303.643 9
  24273869.480    -2119885.494 5  -1631721.945 3
  21125403.008     5188948.520 8  -4273195.188 9
  22638917.913     2228825.910 7   8427378.666 6
 94  3 24 19 12  0.0010000  0  8 16 27 31 28 18  2 19 29
  24925354.886    -1957117.628 5  -1635488.964 2
  22167460.876   -11564386.766 7  -8967169.346 8
  22417850.115   -10810140.259 6  -8982583.485 5
  23711176.814      733094.633 6  -2235436.555 5
  20882314.794     9488553.739 8    165066.589 9
  24259159.323    -2197153.485 5  -1691930.684 3
  21124540.535     5184431.484 8  -4276714.960 9
  22656560.340     2321549.246 7   8499630.536 6
 94  3 24 19 12 30.0010000  0  8 16 27 31 28 18  2 19 29
  24916622.621    -2002984.680 5  -1671229.493 2
  22158229.667   -11612912.221 7  -9004981.383 8
  22414202.211   -10829326.234 7  -8997533.592 5
  23718537.918      771785.375 6  -2205287.952 5
  20891870.709     9538774.550 8    204199.652 9
  24244492.457    -2274267.689 5  -1752019.616 3
  21123718.924     5180092.468 8  -4280096.020 9
  22674273.757     2414591.016 7   8572130.532 6
 94  3 24 19 13  0.0010000  0  8 16 27 31 28 18  2 19 29
  24907989.947    -2048426.207 5  -1706638.497 2
  22149019.683   -11661310.651 7  -9042694.428 8
  22410641.456   -10847995.343 6  -9012080.909 5
  23726000.112      810981.664 6  -2174745.393 5
  20901518.570     9589463.649 8    243697.638 9
  24229834.674    -2351213.255 5  -1811977.127 3
  21122929.001     5175937.869 8  -4283333.366 9
  22692042.006     2507974.396 7   8644896.732 6
 94  3 24 19 13 30.0010000  0  8 16 27 31 28 18  2 19 29
  24899411.836    -2093440.846 5  -1741714.865 2
  22139831.164   -11709580.682 7  -9080307.423 8
  22407184.729   -10866157.179 6  -9026232.967 5
  23733546.128      850684.875 6  -2143807.842 5
  20911247.764     9640596.500 8    283541.394 9
  24215234.722    -2427984.809 5  -1871799.039 3
  21122165.489     5171953.367 8  -4286438.168 9
  22709874.801     2601699.289 6   8717929.060 6
 94  3 24 19 14  0.0010000  0  8 16 27 31 28 18  2 19 29
  24890936.553    -2138014.986 5  -1776447.927 2
  22130670.166   -11757737.242 7  -9117831.999 8
  22403830.621   -10883813.507 7  -9039991.119 5
  23741208.254      890892.502 6  -2112477.258 4
  20921066.147     9692173.792 8    323731.448 9
  24200663.040    -2504572.089 5  -1931477.418 3
  21121436.034     5168116.988 8  -4289427.560 9
  22727771.301     2695749.209 6   8791214.663 6
 94  3 24 19 14 30.0010000  0  8 16 27 31 28 18  2 19 29
  24882550.249    -2182148.749 5  -1810837.873 2
  22121527.365   -11805780.136 7  -9155268.005 8
  22400568.099   -10900942.471 7  -9053338.336 6
  23748962.835      931612.145 6  -2080747.673 4
  20930965.114     9744198.081 8    364269.818 9
  24186124.694    -2580956.221 5  -1990997.431 3
  21120737.428     5164436.626 8  -4292295.374 9
  22745728.240     2790111.509 7   8864743.643 6
 94  3 24 19 15  0.0010000  0  8 16 27 31 28 18  2 19 29
  24874235.925    -2225824.357 5  -1844870.791 2
  22112407.499   -11853693.261 7  -9192602.896 8
  22397415.272   -10917512.799 7  -9066250.258 6
  23756806.935      972863.145 6  -2048604.082 4
  20940947.484     9796680.407 8    405165.102 9
  24171621.994    -2657130.025 5  -2050353.530 3
  21120073.837     5160932.851 8  -4295025.593 9
  22763738.842     2884772.663 6   8938505.483 6
 94  3 24 19 15 30.0010000  0  8 16 27 31 28 18  2 19 29
  24866014.476    -2269019.618 5  -1878529.465 2
  22103320.280   -11901463.955 7  -9229826.786 8
  22394373.278   -10933498.212 7  -9078706.398 6
  23764763.696     1014667.047 6  -2016029.648 4
  20951030.493     9849651.358 8    446441.146 9
  24157175.925    -2733074.217 5  -2109530.745 3
  21119443.404     5157630.393 8  -4297598.947 9
  22781803.616     2979735.249 6   9012502.211 6
 94  3 24 19 16  0.0010000  0  8 16 27 31 28 18  2 19 29
  24857874.392    -2311757.285 5  -1911831.495 2
  22094248.530   -11949114.481 7  -9266957.058 8
  22391435.941   -10948907.829 7  -9090713.862 6
  23772822.268     1057006.269 6  -1983038.076 4
  20961201.192     9903105.675 8    488093.829 9
  24142763.403    -2808812.291 5  -2168547.355 3
  21118851.553     5154525.062 8  -4300018.685 9
  22799927.209     3074986.538 6   9086723.917 6
 94  3 24 19 16 30.0010000  0  8 16 27 31 28 18  2 19 29
  24849821.666    -2354048.614 5  -1944785.809 2
  22085207.359   -11996640.898 7  -9303990.623 8
  22388618.042   -10963757.668 7  -9102285.145 6
  23780975.933     1099872.697 6  -1949635.672 4
  20971460.540     9957022.383 8    530106.811 9
  24128392.701    -2884361.253 5  -2227416.590 3
  21118304.222     5151631.656 8  -4302273.297 9
  22818113.459     3170530.871 6   9161173.957 6
 94  3 24 19 17  0.0010000  0  8 16 27 31 28 18  2 19 29
  24841893.565    -2395874.956 5  -1977377.756 2
  22076192.180   -12044042.440 7  -9340926.866 8
  22385891.820   -10978057.468 7  -9113427.806 6
  23789238.633     1143276.646 6  -1915814.454 4
  20981814.532    10011419.593 8    572494.220 9
  24114036.090    -2959724.152 5  -2286140.829 3
  21117789.389     5148951.850 8  -4304361.441 9
  22836353.461     3266374.507 7   9235857.230 6
 94  3 24 19 17 30.0010000  0  8 16 27 31 28 18  2 19 29
  24834002.638    -2437218.577 5  -2009593.550 2
  22067189.353   -12091312.096 7  -9377760.372 8
  22383275.381   -10991798.388 7  -9124135.004 6
  23797600.054     1187238.466 6  -1881558.531 4
  20992263.049    10066325.614 8    615278.093 9
  24099736.200    -3034881.570 5  -2344704.982 4
  21117321.772     5146499.160 8  -4306272.643 9
  22854655.191     3362534.363 6   9310786.902 6
 94  3 24 19 18  0.0010000  0  8 16 27 31 28 18  2 19 29
  24826232.017    -2478055.450 5  -2041414.459 2
  22058224.419   -12138434.027 7  -9414478.731 8
  22380770.315   -11004958.998 7  -9134390.009 6
  23806068.831     1231772.754 6  -1846856.532 4
  21002809.178    10121747.575 8    658464.011 9
  24085488.293    -3109831.008 5  -2403107.055 3
  21116901.044     5144276.370 8  -4308004.689 9
  22873022.606     3459025.144 7   9385974.449 6
 94  3 24 19 18 30.0010000  0  8 16 27 31 28 18  2 19 29
  24818554.093    -2518376.761 5  -2072833.708 2
  22049286.257   -12185399.550 7  -9451075.246 8
  22378376.562   -11017535.655 7  -9144189.991 6
  23814661.063     1276874.039 6  -1811712.701 4
  21013447.553    10177671.217 8    702040.853 9
  24071255.197    -3184579.516 5  -2461352.589 3
  21116515.121     5142268.207 8  -4309569.509 9
  22891430.432     3555835.084 6   9461410.695 5
 94  3 24 19 19  0.0010000  0  8 16 27 31 28 18  2 19 29
  24810991.618    -2558191.467 5  -2103858.117 2
  22040382.241   -12232218.026 7  -9487557.159 8
  22376090.045   -11029528.242 6  -9153534.841 6
  23823341.134     1322531.898 6  -1776135.137 4
  21024186.059    10234085.045 8    745999.637 9
  24057063.501    -3259137.217 5  -2519449.416 3
  21116175.036     5140461.209 8  -4310977.566 9
  22909915.366     3652955.323 6   9537088.714 5
 94  3 24 19 19 30.0010000  0  8 16 27 31 28 18  2 19 29
  24803496.926    -2597515.737 5  -2134500.441 2
  22031493.454   -12278893.796 7  -9523927.866 8
  22373929.651   -11040921.099 7  -9162412.375 6
  23832130.180     1368732.741 6  -1740134.506 4
  21035005.239    10290955.155 8    790314.008 9
  24042910.659    -3333512.921 5  -2577404.422 3
  21115868.948     5138850.435 8  -4312232.708 9
  22928467.992     3750380.261 6   9613004.175 5
 94  3 24 19 20  0.0010000  0  8 16 27 31 28 18  2 19 29
  24796089.714    -2636348.993 4  -2164760.113 2
  22022640.583   -12325419.992 7  -9560182.051 9
  22371875.233   -11051717.971 7  -9170825.498 6
  23841029.579     1415463.278 6  -1703721.181 4
  21045912.858    10348258.527 8    834965.941 9
  24028796.700    -3407715.513 5  -2635224.545 4
  21115595.627     5137427.835 8  -4313341.238 9
  22947053.386     3848114.194 6   9689160.408 5
 94  3 24 19 20 30.0010000  0  8 16 27 31 28 18  2 19 29
  24788818.728    -2674683.714 5  -2194631.228 2
  22013821.439   -12371781.468 7  -9596307.861 9
  22369938.814   -11061918.672 6  -9178774.086 6
  23850015.978     1462726.408 6  -1666892.786 4
  21056905.138    10406024.069 8    879978.009 9
  24014717.607    -3481702.913 6  -2692877.006 3
  21115370.963     5136216.321 8  -4314285.281 9
  22965713.517     3946176.629 6   9765572.595 5
 94  3 24 19 21  0.0010000  0  8 16 27 31 28 18  2 19 29
  24781608.120    -2712519.689 5  -2224113.857 2
  22005031.074   -12417989.875 8  -9632314.393 9
  22368105.043   -11071536.640 6  -9186268.579 6
  23859125.711     1510523.395 6  -1629648.388 4
  21067987.746    10464276.308 8    925369.343 9
  24000673.979    -3555454.979 5  -2750346.063 4
  21115177.956     5135227.418 8  -4315055.852 9
  22984440.683     4044571.660 6   9842243.972 5
 94  3 24 19 21 30.0010000  0  8 16 27 31 28 18  2 19 29
  24774515.270    -2749852.258 5  -2253204.151 2
  21996256.718   -12464054.869 7  -9668209.203 9
  22366385.643   -11080575.399 7  -9193311.766 6
  23868319.596     1558844.338 6  -1591995.741 4
  21079169.704    10523028.465 8    971150.218 9
  23986694.837    -3628966.700 6  -2807627.867 4
  21115028.210     5134446.537 8  -4315664.350 9
  23003215.755     4143276.938 6   9919157.075 5
 94  3 24 19 22  0.0010000  0  8 16 27 31 28 18  2 19 29
  24767506.182    -2786680.851 5  -2281901.722 2
  21987525.443   -12509966.109 7  -9703984.159 9
  22364770.452   -11089056.048 6  -9199920.039 6
  23877603.119     1607684.177 6  -1553938.730 4
  21090448.796    10582309.044 8   1017342.868 9
  23972745.254    -3702226.788 5  -2864713.544 3
  21114923.133     5133869.384 8  -4316114.083 9
  23022070.482     4242298.746 6   9996316.845 5
 94  3 24 19 22 30.0010000  0  8 16 27 31 28 18  2 19 29
  24760593.148    -2823024.979 5  -2310221.832 2
  21978817.851   -12555724.660 8  -9739640.167 9
  22363265.553   -11096986.524 7  -9206099.625 6
  23886994.568     1657025.744 6  -1515490.773 4
  21101831.496    10642119.584 8   1063948.447 9
  23958857.668    -3775239.440 6  -2921606.457 3
  21114849.144     5133486.730 8  -4316412.250 9
  23040953.480     4341621.282 6  10073710.945 5
 94  3 24 19 23  0.0010000  0  8 16 27 31 28 18  2 19 29
  24753762.557    -2858898.678 5  -2338175.387 2
  21970137.091   -12601325.091 7  -9775172.977 9
  22361859.917   -11104354.015 7  -9211840.513 6
  23896472.596     1706857.687 6  -1476660.728 4
  21113304.224    10702424.613 8   1110939.355 9
  23945004.888    -3848033.112 6  -2978328.733 3
  21114813.559     5133291.390 8  -4316564.471 9
  23059922.938     4441225.084 6  10151324.201 5
 94  3 24 19 23 30.0010000  0  8 16 27 31 28 18  2 19 29
  24747017.286    -2894332.013 5  -2365785.748 2
  21961489.008   -12646782.130 7  -9810594.009 9
  22360560.316   -11111161.862 6  -9217145.322 6
  23906055.282     1757160.958 6  -1437463.400 4
  21124868.898    10763180.452 8   1158281.542 9
  23931191.291    -3920636.261 6  -3034902.555 3
  21114804.955     5133269.391 8  -4316581.612 9
  23078936.615     4541083.713 6  10229136.027 5
 94  3 24 19 24  0.0010000  0  8 16 27 31 28 18  2 19 29
  24740355.718    -2929340.718 5  -2393065.279 2
  21952864.878   -12692099.362 8  -9845906.126 9
  22359372.718   -11117419.470 6  -9222021.377 6
  23915706.981     1807931.710 6  -1397901.765 4
  21136508.130    10824359.021 8   1205953.119 9
  23917407.763    -3993055.908 6  -3091333.393 4
  21114838.022     5133434.816 8  -4316452.717 9
  23097986.447     4641203.378 6  10307151.251 5
 94  3 24 19 24 30.0010000  0  8 16 27 31 28 18  2 19 29
  24733780.340    -2963910.053 5  -2420002.422 2
  21944264.762   -12737286.284 8  -9881116.726 9
  22358292.326   -11123099.881 7  -9226447.667 6
  23925467.803     1859204.282 6  -1357949.132 4
  21148230.465    10885956.961 8   1253951.489 9
  23903662.039    -4065276.585 5  -3147609.161 4
  21114911.231     5133819.821 8  -4316152.721 9
  23117076.391     4741585.538 6  10385371.040 5
 94  3 24 19 25  0.0010000  0  8 16 27 31 28 18  2 19 29
  24727288.694    -2998024.404 5  -2446585.049 2
  21935688.839   -12782361.111 7  -9916239.943 9
  22357323.787   -11128201.998 7  -9230423.318 6
  23935326.778     1911010.665 6  -1317580.573 4
  21160033.324    10947973.189 8   1302275.773 9
  23889966.171    -4137297.740 5  -3203729.456 4
  21115031.028     5134441.065 8  -4315668.640 9
  23136227.613     4842223.476 6  10463790.102 5
 94  3 24 19 25 30.0010000  0  8 16 27 31 28 18  2 19 29
  24720874.005    -3031665.993 5  -2472799.246 2
  21927129.374   -12827351.139 8  -9951297.078 9
  22356452.230   -11132749.153 7  -9233966.539 6
  23945293.498     1963361.049 6  -1276788.049 4
  21171918.746    11010425.617 8   1350939.974 9
  23876275.608    -4209120.304 5  -3259695.021 4
  21115190.878     5135284.599 8  -4315011.338 9
  23155429.230     4943119.844 6  10542410.566 5
 94  3 24 19 26  0.0010000  0  8 16 27 31 28 18  2 19 29
  24714567.181    -3064814.986 5  -2498629.669 2
  21918584.090   -12872248.527 8  -9986282.053 9
  22355690.877   -11136744.080 6  -9237079.478 6
  23955345.060     2016255.268 6  -1235571.806 4
  21183891.527    11073341.184 8   1399965.070 9
  23862663.532    -4280739.537 5  -3315502.138 4
  21115393.987     5136339.370 8  -4314189.443 9
  23174681.242     5044280.768 6  10621237.153 5
 94  3 24 19 26 30.0010000  0  8 16 27 31 28 18  2 19 29
  24708364.145    -3097446.601 5  -2524056.906 2
  21910058.292   -12917033.734 7 -10021179.587 9
  22355048.092   -11140165.250 7  -9239745.318 6
  23965522.774     2069703.056 6  -1193924.228 4
  21195957.844    11136747.868 8   1449372.845 9
  23849080.415    -4352146.116 5  -3371143.580 4
  21115629.504     5137592.609 8  -4313212.895 9
  23193996.930     5145716.224 6  10700277.659 5
 94  3 24 19 27  0.0010000  0  8 16 27 31 28 18  2 19 29
  24702261.660    -3129537.668 5  -2549062.921 2
  21901565.921   -12961678.364 8 -10055967.617 9
  22354501.031   -11143003.251 6  -9241956.749 6
  23975794.443     2123679.427 6  -1151864.703 4
  21208116.676    11200657.399 8   1499172.438 9
  23835525.959    -4423338.907 5  -3426618.402 4
  21115900.726     5139018.732 8  -4312101.629 9
  23213341.818     5247428.129 6  10779533.590 5
 94  3 24 19 27 30.0010000  0  8 16 27 31 28 18  2 19 29
  24696260.595    -3161089.678 5  -2573648.930 2
  21893101.911   -13006160.275 8 -10090628.825 9
  22354077.724   -11145242.979 6  -9243701.958 6
  23986170.050     2178164.396 6  -1109408.900 4
  21220376.359    11265079.947 8   1549371.782 9
  23822018.510    -4494298.401 5  -3481911.464 4
  21116205.615     5140616.009 8  -4310857.001 9
  23232743.007     5349432.058 6  10859017.075 5
 94  3 24 19 28  0.0010000  0  8 16 27 31 28 18  2 19 29
  24690362.658    -3192098.396 5  -2597811.566 2
  21884672.766   -13050462.043 8 -10125149.679 9
  22353766.479   -11146859.626 6  -9244961.655 6
  23996628.850     2233146.400 6  -1066565.800 4
  21232731.286    11330000.069 8   1599958.862 9
  23808575.936    -4565017.884 6  -3537017.507 4
  21116542.942     5142391.678 8  -4309473.373 9
  23252218.454     5451728.241 6  10938728.298 5
 94  3 24 19 28 30.0010000  0  8 16 27 31 28 18  2 19 29
  24684561.224    -3222550.276 5  -2621540.288 2
  21876276.869   -13094578.728 8 -10159526.298 9
  22353589.392   -11147822.377 7  -9245711.850 6
  24007196.953     2288633.553 6  -1023329.071 4
  21245175.461    11395403.318 8   1650922.403 9
  23795161.542    -4635486.200 6  -3591927.814 4
  21116921.699     5144370.338 8  -4307931.564 9
  23271746.695     5554317.279 6  11018667.697 5
 94  3 24 19 29  0.0010000  0  8 16 27 31 28 18  2 19 29
  24678869.814    -3252445.762 5  -2644835.462 2
  21867918.715   -13138496.867 8 -10193748.222 9
  22353530.513   -11148123.042 7  -9245946.108 6
  24017848.130     2344644.589 6   -979684.107 4
  21257716.649    11461299.900 8   1702270.367 9
  23781802.701    -4705682.546 6  -3646626.196 4
  21117341.828     5146599.160 8  -4306194.833 9
  23291315.648     5657213.751 6  11098846.670 5
 94  3 24 19 29 30.0010000  0  8 16 27 31 28 18  2 19 29
  24673279.194    -3281822.916 5  -2667726.768 2
  21859594.767   -13182239.974 8 -10227833.743 9
  22353593.409   -11147790.249 7  -9245686.775 6
  24028599.497     2401179.842 5   -935630.704 4
  21270342.828    11527656.517 8   1753976.785 9
  23768479.024    -4775632.915 6  -3701132.921 4
  21117816.160     5149087.556 8  -4304255.819 9
  23310966.983     5760414.948 6  11179263.075 5
 94  3 24 19 30  0.0010000  0  8 16 27 31 28 18  2 19 29
  24667780.101    -3310704.218 5  -2690231.661 2
  21851295.403   -13225833.154 8 -10261802.440 9
  22353765.790   -11146858.432 7  -9244960.662 6
  24039451.264     2458209.865 5   -891191.751 4
  21283054.598    11594432.020 8   1806009.597 9
  23755204.814    -4845382.383 6  -3755483.116 4
  21118335.820     5151808.465 8  -4302135.630 9
  23330658.072     5863891.183 6  11259893.792 5
 94  3 24 19 30 30.0010000  0  8 16 27 31 28 18  2 19 29
  24662362.462    -3339131.922 5  -2712383.122 2
  21843029.945   -13269279.292 8 -10295656.564 9
  22354052.002   -11145362.009 7  -9243794.621 6
  24050398.546     2515728.763 6   -846371.861 4
  21295838.828    11661629.702 8   1858371.377 9
  23741972.035    -4914940.300 6  -3809684.010 5
  21118896.612     5154757.297 8  -4299837.850 9
  23350390.141     5967621.735 6  11340722.713 5
 94  3 24 19 31  0.0010000  0  8 16 27 31 28 18  2 19 29
  24657047.981    -3367117.594 5  -2734190.153 2
  21834796.175   -13312567.529 8 -10329387.651 9
  22354443.441   -11143321.383 7  -9242204.502 6
  24061441.940     2573744.155 5   -801165.088 4
  21308710.027    11729260.498 8   1911070.667 9
  23728765.158    -4984304.908 6  -3863734.304 5
  21119501.084     5157922.914 8  -4297371.143 9
  23370173.206     6071617.679 6  11421758.415 5
 94  3 24 19 31 30.0010000  0  8 16 27 31 28 18  2 19 29
  24651809.947    -3394631.615 5  -2755629.621 2
  21826585.309   -13355694.696 8 -10362993.222 9
  22354942.236   -11140711.967 7  -9240171.204 6
  24072578.870     2632256.353 5   -755571.204 4
  21321658.903    11797327.408 8   1964109.757 9
  23715621.327    -5053467.351 6  -3917627.079 5
  21120139.971     5161288.211 8  -4294748.854 9
  23390009.513     6175871.781 6  11502995.250 5
 94  3 24 19 32  0.0010000  0  8 16 27 31 28 18  2 19 29
  24646663.890    -3421660.930 5  -2776691.443 2
  21818409.699   -13398659.708 8 -10396472.450 9
  22355551.923   -11137511.407 7  -9237677.229 6
  24083803.070     2691257.598 5   -709596.235 4
  21334701.254    11865847.462 8   2017501.990 9
  23702506.606    -5122400.840 6  -3971341.410 5
  21120817.143     5164848.714 8  -4291974.446 9
  23409899.424     6280365.970 6  11584419.195 5
 94  3 24 19 32 30.0010000  0  8 16 27 31 28 18  2 19 29
  24641614.665    -3448182.081 5  -2797357.308 2
  21810267.096   -13441456.551 8 -10429820.634 9
  22356279.460   -11133686.299 7  -9234696.624 6
  24095132.167     2750784.711 5   -663211.493 4
  21347832.613    11934856.293 8   2071275.085 9
  23689429.839    -5191061.310 6  -4024843.009 5
  21121533.766     5168626.946 8  -4289030.366 9
  23429829.207     6385114.159 6  11666041.036 5
 94  3 24 19 33  0.0010000  0  8 16 27 31 28 18  2 19 29
  24636678.762    -3474134.578 5  -2817580.000 2
  21802159.809   -13484074.583 8 -10463029.458 9
  22357128.832   -11129193.414 7  -9231195.665 6
  24106570.269     2810863.506 5   -616396.855 4
  21361059.246    12004360.482 8   2125434.146 9
  23676415.788    -5259423.659 6  -4078112.318 5
  21122298.207     5172642.178 8  -4285901.621 9
  23449820.357     6490155.706 6  11747891.490 5
 94  3 24 19 33 30.0010000  0  8 16 27 31 28 18  2 19 29
  24631866.194    -3499490.926 5  -2837338.204 2
  21794081.421   -13526501.434 8 -10496089.345 9
  22358120.845   -11124003.143 7  -9227151.296 6
  24118098.098     2871490.969 5   -569154.719 4
  21374385.381    12074371.916 8   2179988.447 9
  23663471.230    -5327476.183 6  -4131140.201 5
  21123113.313     5176921.558 8  -4282567.050 9
  23469873.685     6595505.361 6  11829982.003 4
 94  3 24 19 34  0.0010000  0  8 16 27 31 28 18  2 19 29
  24627140.685    -3524268.624 5  -2856645.496 2
  21786049.112   -13568734.770 8 -10528998.415 9
  22359240.000   -11118133.004 7  -9222577.142 6
  24129743.986     2932675.161 5   -521478.737 4
  21387803.372    12144903.117 8   2234947.791 9
  23650583.482    -5395233.664 6  -4183938.208 5
  21123979.743     5181474.067 8  -4279019.650 9
  23489971.261     6701188.384 5  11912332.314 4
 94  3 24 19 34 30.0010000  0  8 16 27 31 28 18  2 19 29
  24622545.466    -3548460.501 5  -2875496.326 2
  21778047.681   -13610768.453 8 -10561751.929 9
  22360479.792   -11111597.375 7  -9217484.445 6
  24141490.154     2994425.859 5   -473361.357 4
  21401324.671    12215957.258 8   2290314.611 9
  23637741.092    -5462713.146 6  -4236519.588 5
  21124899.446     5186298.972 8  -4275259.997 9
  23510153.739     6807217.853 6  11994952.533 4
 94  3 24 19 35  0.0010000  0  8 16 27 31 28 18  2 19 29
  24618039.976    -3572072.646 5  -2893895.424 2
  21770092.089   -13652592.176 8 -10594341.842 9
  22361850.503   -11104407.654 7  -9211882.061 6
  24153355.670     3056721.515 5   -424819.295 3
  21414943.853    12287525.051 8   2346081.666 9
  23624948.678    -5529936.196 6  -4288901.120 5
  21125866.817     5191391.691 8  -4271291.654 9
  23530396.655     6913586.556 6  12077837.120 4
 94  3 24 19 35 30.0010000  0  8 16 27 31 28 18  2 19 29
  24613663.216    -3595141.260 5  -2911870.977 2
  21762166.865   -13694209.204 8 -10626770.675 9
  22363344.129   -11096586.391 7  -9205787.543 6
  24165311.453     3119543.410 6   -375867.190 3
  21428663.345    12359613.360 8   2402254.335 9
  23612199.255    -5596905.347 6  -4341084.814 5
  21126885.092     5196739.955 8  -4267124.170 9
  23550695.213     7020261.570 6  12160960.396 4
 94  3 24 19 36  0.0010000  0  8 16 27 31 28 18  2 19 29
  24609371.537    -3617682.665 5  -2929435.707 2
  21754290.058   -13735627.181 8 -10659044.409 9
  22364940.734   -11088153.299 7  -9199216.303 6
  24177364.399     3182900.075 6   -326498.388 4
  21442477.152    12432205.965 8   2458819.943 9
  23599513.747    -5663611.059 6  -4393063.235 5
  21127946.897     5202323.686 8  -4262773.229 9
  23571048.063     7127216.610 6  12244301.855 4
 94  3 24 19 36 30.0010000  0  8 16 27 31 28 18  2 19 29
  24605178.579    -3639697.207 5  -2946589.889 2
  21746443.351   -13776846.057 8 -10691163.011 9
  22366662.322   -11079110.391 7  -9192169.867 6
  24189515.977     3246774.079 6   -276726.486 3
  21456380.477    12505279.713 8   2515760.488 9
  23586872.878    -5730041.069 6  -4444826.823 5
  21129052.591     5208133.946 8  -4258245.763 9
  23591450.828     7234419.353 6  12327836.339 4
 94  3 24 19 37  0.0010000  0  8 16 27 31 28 18  2 19 29
  24601086.412    -3661178.633 5  -2963328.723 2
  21738644.520   -13817854.114 8 -10723117.329 9
  22368502.688   -11069435.752 7  -9184631.192 6
  24201769.394     3311160.879 6   -226554.972 3
  21470376.288    12578828.050 8   2573070.845 9
  23574284.772    -5796178.458 6  -4496362.404 5
  21130205.173     5214184.844 8  -4253530.796 9
  23611903.030     7341879.304 6  12411571.241 4
 94  3 24 19 37 30.0010000  0  8 16 27 31 28 18  2 19 29
  24597110.355    -3682103.695 5  -2979633.927 3
  21730882.833   -13858631.796 8 -10754892.143 9
  22370467.977   -11059116.186 7  -9176589.950 6
  24214128.698     3376078.009 6   -175970.209 3
  21484465.604    12652860.990 8   2630758.805 9
  23561755.696    -5862004.962 6  -4547655.743 5
  21131403.174     5220486.118 8  -4248620.736 9
  23632402.298     7449613.713 6  12495520.024 4
 94  3 24 19 38  0.0010000  0  8 16 27 31 28 18  2 19 29
  24593232.509    -3702454.576 5  -2995491.779 2
  21723165.006   -13899194.144 8 -10786499.140 9
  22372556.421   -11048156.875 7  -9168050.232 6
  24226577.010     3441511.709 6   -124982.941 3
  21498638.502    12727356.591 8   2688807.248 9
  23549283.370    -5927553.529 6  -4598732.502 5
  21132651.810     5227035.837 8  -4243517.070 9
  23652965.723     7557615.590 6  12579677.192 4
 94  3 24 19 38 30.0010000  0  8 16 27 31 28 18  2 19 29
  24589474.851    -3722223.677 5  -3010896.259 2
  21715484.473   -13939541.212 8 -10817938.413 9
  22374771.918   -11036556.864 7  -9159011.240 6
  24239118.677     3507450.699 5    -73601.978 3
  21512909.583    12802326.310 8   2747225.195 9
  23536861.770    -5992841.374 6  -4649606.083 5
  21133944.245     5233844.397 8  -4238211.707 9
  23673559.006     7665890.696 6  12664047.283 4
 94  3 24 19 39  0.0010000  0  8 16 27 31 28 18  2 19 29
  24585833.901    -3741389.676 5  -3025830.825 2
  21707847.050   -13979669.036 8 -10849206.841 9
  22377090.363   -11024307.422 7  -9149466.215 6
  24251760.326     3573904.519 6    -21819.797 3
  21527265.774    12877785.689 8   2806024.668 9
  23524484.958    -6057865.900 6  -4700274.499 5
  21135296.099     5240925.411 8  -4232694.035 9
  23694226.009     7774442.269 6  12748632.801 4
 94  3 24 19 39 30.0010000  0  8 16 27 31 28 18  2 19 29
  24582282.320    -3759962.979 5  -3040303.543 2
  21700253.877   -14019594.425 8 -10880317.533 9
  22379545.213   -11011424.782 7  -9139427.767 6
  24264507.711     3640871.068 5     30361.906 3
  21541721.287    12953732.234 8   2865203.735 9
  23512162.918    -6122629.730 6  -4750739.773 5
  21136695.650     5248276.144 8  -4226966.208 9
  23714921.012     7883253.586 6  12833420.716 4
 94  3 24 19 40  0.0010000  0  8 16 27 31 28 18  2 19 29
  24578859.769    -3777979.984 5  -3054342.765 2
  21692689.783   -14059344.996 8 -10911291.989 9
  22382109.968   -10997926.357 7  -9128909.516 6
  24277350.280     3708329.037 6     82926.539 3
  21556261.311    13030151.169 8   2924750.903 9
  23499888.276    -6187143.606 6  -4801010.275 5
  21138140.380     5255885.952 8  -4221036.492 9
  23735666.440     7992300.700 6  12918392.363 4
 94  3 24 19 40 30.0010000  0  8 16 27 31 28 18  2 19 29
  24575520.291    -3795491.541 5  -3067988.147 2
  21685150.003   -14098944.435 8 -10942148.695 9
  22384794.699   -10983830.308 7  -9117925.574 6
  24290276.551     3776258.468 6    135858.546 3
  21570886.446    13107016.495 8   2984645.902 9
  23487653.985    -6251413.124 6  -4851090.389 5
  21139635.565     5263724.497 8  -4214928.530 9
  23756459.505     8101564.444 5  13003532.828 4
 94  3 24 19 41  0.0010000  0  8 16 27 31 28 18  2 19 29
  24572281.753    -3812522.722 5  -3081259.230 2
  21677645.658   -14138409.197 8 -10972900.447 9
  22387592.602   -10969138.413 7  -9106477.336 6
  24303286.915     3844641.225 5    189143.765 3
  21585599.870    13184297.001 8   3044864.417 9
  23475475.307    -6315450.940 6  -4900989.930 5
  21141164.986     5271770.462 8  -4208658.967 9
  23777294.931     8211024.513 5  13088826.231 4
 94  3 24 19 41 30.0010000  0  8 16 27 31 28 18  2 19 29
  24569133.663    -3829088.493 5  -3094167.621 2
  21670158.042   -14177736.349 8 -11003544.964 9
  22390497.681   -10953847.943 7  -9094562.678 6
  24316388.415     3913477.908 5    242782.668 3
  21600378.439    13261987.461 8   3105402.412 9
  23463326.847    -6379261.636 6  -4950712.513 5
  21142736.588     5280018.607 8  -4202231.855 9
  23798163.035     8320694.923 6  13174283.580 4
 94  3 24 19 42  0.0010000  0  8 16 27 31 28 18  2 19 29
  24566068.675    -3845160.217 5  -3106691.062 2
  21662705.171   -14216908.654 8 -11034068.841 9
  22393525.915   -10937933.317 7  -9082161.653 6
  24329574.786     3982787.643 5    296790.189 3
  21615244.158    13340106.979 8   3166274.726 9
  23451228.332    -6442832.077 6  -5000247.861 5
  21144343.476     5288478.402 8  -4195639.817 9
  23819077.216     8430591.643 6  13259917.243 4
 94  3 24 19 42 30.0010000  0  8 16 27 31 28 18  2 19 29
  24563110.053    -3860706.922 5  -3118805.366 2
  21655280.481   -14255912.970 8 -11064461.787 9
  22396668.639   -10921384.502 7  -9069266.458 6
  24342848.277     4052572.446 5    351167.952 3
  21630189.292    13418646.205 8   3227474.092 9
  23439174.877    -6506157.151 6  -5049592.021 5
  21145994.792     5297153.935 8  -4188879.676 9
  23840041.283     8540729.759 6  13345739.051 4
 94  3 24 19 43  0.0010000  0  8 16 27 31 28 18  2 19 29
  24560256.268    -3875709.748 5  -3130495.890 2
  21647891.257   -14294740.724 8 -11094717.182 9
  22399956.133   -10904199.170 7  -9055875.293 6
  24356227.115     4122830.104 5    405914.133 3
  21645212.012    13497608.694 8   3289003.254 9
  23427176.103    -6569230.778 6  -5098740.270 5
  21147686.821     5306050.025 8  -4181947.673 9
  23861044.473     8651114.664 6  13431753.125 4
 94  3 24 19 43 30.0010000  0  8 16 27 31 28 18  2 19 29
  24557499.767    -3890174.200 5  -3141766.905 2
  21640534.919   -14333406.333 8 -11124846.219 9
  22403336.773   -10886397.402 7  -9042003.781 6
  24369680.062     4193542.775 5    461014.871 3
  21660320.202    13576984.072 8   3350854.138 9
  23415217.532    -6632054.087 6  -5147693.463 5
  21149420.941     5315159.524 8  -4174849.379 9
  23882095.509     8761742.404 5  13517956.401 4
 94  3 24 19 44  0.0010000  0  8 16 27 31 28 18  2 19 29
  24554856.976    -3904127.572 5  -3152639.695 2
  21633204.064   -14371934.153 8 -11154867.890 9
  22406830.134   -10868018.568 7  -9027682.617 6
  24383222.107     4264682.377 5    516448.273 3
  21675499.474    13656738.459 8   3413000.365 9
  23403307.707    -6694646.809 6  -5196466.980 5
  21151191.875     5324455.982 8  -4167605.385 9
  23903191.335     8872579.951 6  13604323.194 4
 94  3 24 19 44 30.0010000  0  8 16 27 31 28 18  2 19 29
  24552287.965    -3917586.732 5  -3163127.350 2
  21625900.611   -14410309.376 8 -11184770.652 9
  22410434.299   -10849079.924 7  -9012925.218 6
  24396834.423     4336244.316 5    572210.779 3
  21690744.310    13736870.874 8   3475441.157 9
  23391447.378    -6757014.849 6  -5245065.379 5
  21152995.216     5333944.038 8  -4160212.097 9
  23924321.307     8983627.772 6  13690853.793 3
 94  3 24 19 45  0.0010000  0  8 16 27 31 28 18  2 19 29
  24549833.504    -3930562.603 5  -3173238.444 2
  21618624.408   -14448526.157 8 -11214549.944 9
  22414150.766   -10829595.169 7  -8997742.289 6
  24410534.339     4408232.279 5    628305.249 3
  21706072.339    13817408.452 8   3538197.655 9
  23379617.148    -6819155.603 6  -5293486.709 5
  21154840.888     5343637.546 8  -4152658.723 9
  23945497.387     9094875.600 6  13777540.278 3
 94  3 24 19 45 30.0010000  0  8 16 27 31 28 18  2 19 29
  24547453.272    -3943057.184 5  -3182974.516 2
  21611386.069   -14486577.601 8 -11244200.427 9
  22417950.995   -10809572.438 7  -8982140.161 6
  24424317.777     4480652.182 5    684736.300 3
  21721478.733    13898361.951 8   3601278.262 9
  23367834.465    -6881071.878 6  -5341733.118 5
  21156725.534     5353541.825 8  -4144941.119 9
  23966695.712     9206309.855 5  13864372.006 3
 94  3 24 19 46  0.0010000  0  8 16 27 31 28 18  2 19 29
  24545173.980    -3955062.204 5  -3192329.072 3
  21604179.418   -14524449.060 8 -11273710.643 9
  22421869.043   -10789006.350 7  -8966114.631 6
  24438178.741     4553524.518 5    741519.895 3
  21736961.695    13979747.367 8   3664695.429 9
  23356093.093    -6942763.631 6  -5389804.575 5
  21158651.430     5363657.423 8  -4137058.835 9
  23987931.481     9317931.542 5  13951349.764 4
 94  3 24 19 46 30.0010000  0  8 16 27 31 28 18  2 19 29
  24542977.041    -3966565.635 5  -3201292.793 3
  21597006.883   -14562139.612 8 -11303079.897 9
  22425889.830   -10767869.791 7  -8949644.585 6
  24452137.108     4626844.140 5    798651.988 3
  21752533.664    14061575.167 8   3728457.304 9
  23344397.110    -7004227.187 6  -5437698.213 5
  21160616.840     5373992.447 8  -4129005.573 9
  24009214.916     9429737.443 6  14038471.065 4
 94  3 24 19 47  0.0010000  0  8 16 27 31 28 18  2 19 29
  24540888.716    -3977567.641 5  -3209865.797 3
  21589867.476   -14599672.484 8 -11332326.286 9
  22430017.012   -10746148.605 7  -8932719.006 6
  24466169.613     4700597.534 5    856122.192 3
  21768185.499    14143824.434 8   3792547.599 9
  23332744.837    -7065469.604 6  -5485419.537 5
  21162619.214     5384529.039 8  -4120795.241 9
  24030517.599     9541701.345 5  14125715.513 4
 94  3 24 19 47 30.0010000  0  8 16 27 31 28 18  2 19 29
  24538885.353    -3988066.197 5  -3218046.522 3
  21582750.163   -14637062.095 8 -11361461.038 9
  22434267.530   -10723837.885 7  -8915334.016 6
  24480286.240     4774779.281 5    913926.081 3
  21783911.742    14226454.091 8   3856934.281 9
  23321127.280    -7126504.077 6  -5532978.838 5
  21164659.871     5395240.722 8  -4112448.484 9
  24051852.659     9653821.024 5  14213081.324 4
 94  3 24 19 48  0.0010000  0  8 16 27 31 28 18  2 19 29
  24536978.433    -3998041.354 5  -3225819.396 3
  21575666.547   -14674303.161 8 -11390480.040 9
  22438633.887   -10700917.367 7  -8897473.874 6
  24494475.627     4849389.583 5    972063.926 3
  21799702.440    14309454.118 8   3921609.576 9
  23309560.717    -7187309.232 6  -5580359.449 5
  21166730.867     5406153.874 8  -4103944.729 9
  24073209.724     9766112.915 5  14300581.319 4
 94  3 24 19 48 30.0010000  0  8 16 27 31 28 18  2 19 29
  24535193.079    -4007479.315 5  -3233173.672 3
  21568607.873   -14711385.263 8 -11419375.199 9
  22443115.424   -10677368.791 7  -8879124.337 6
  24508766.914     4924424.212 6   1030532.457 3
  21815571.504    14392832.047 8   3986579.342 9
  23298038.494    -7247865.368 6  -5627546.002 5
  21168854.237     5417289.968 8  -4095267.261 9
  24094630.884     9878578.575 5  14388216.728 4
 94  3 24 19 49  0.0010000  0  8 16 27 31 28 18  2 19 29
  24533488.459    -4016383.947 5  -3240112.363 3
  21561579.209   -14748305.153 8 -11448143.922 9
  22447704.857   -10653219.269 7  -8860306.548 6
  24523114.651     4999883.524 5   1089331.851 3
  21831505.863    14476572.947 8   4051831.914 9
  23286561.419    -7308168.342 6  -5674535.315 5
  21171016.760     5428646.634 8  -4086417.922 9
  24116058.460     9991216.230 5  14475986.112 4
 94  3 24 19 49 30.0010000  0  8 16 27 31 28 18  2 19 29
  24531902.078    -4024769.263 5  -3246646.411 3
  21554588.439   -14785064.492 8 -11476787.552 9
  22452414.387   -10628485.876 7  -8841033.782 6
  24537557.512     5075753.823 5   1148451.518 3
  21847508.994    14560672.982 8   4117364.361 9
  23275137.138    -7368209.198 6  -5721320.358 5
  21173215.678     5440223.735 8  -4077396.806 9
  24137513.197    10104033.144 5  14563895.231 4
 94  3 24 19 50  0.0010000  0  8 16 27 31 28 18  2 19 29
  24530390.944    -4032651.079 5  -3252788.070 3
  21547622.521   -14821665.341 8 -11505307.688 9
  22457232.412   -10603165.413 7  -8821303.554 6
  24552079.729     5152029.571 5   1207887.132 3
  21863587.313    14645158.369 8   4183197.084 9
  23263761.243    -7427983.204 6  -5767897.474 5
  21175464.631     5452021.724 8  -4068203.576 9
  24159029.242    10217026.509 5  14651941.785 4
 94  3 24 19 50 30.0010000  0  8 16 27 31 28 18  2 19 29
  24528995.949    -4040018.541 5  -3258528.974 3
  21540695.637   -14858073.951 8 -11533678.010 9
  22462163.338   -10577237.075 7  -8801099.668 6
  24566670.178     5228743.721 5   1267664.363 3
  21879743.609    14730059.253 8   4249353.552 8
  23252438.652    -7487485.831 6  -5814263.126 5
  21177749.829     5464032.483 8  -4058844.538 9
  24180551.612    10330212.716 5  14740138.683 4
 94  3 24 19 51  0.0010000  0  8 16 27 31 28 18  2 19 29
  24527701.506    -4046872.191 5  -3263869.494 3
  21533807.185   -14894279.229 8 -11561889.936 9
  22467215.980   -10550691.383 7  -8780414.713 6
  24581349.906     5305910.469 5   1327794.233 3
  21895981.777    14815378.370 8   4315835.911 8
  23241164.866    -7546721.588 6  -5860420.837 5
  21180076.608     5476266.399 8  -4049311.614 9
  24202142.755    10443605.554 5  14828496.518 3
 94  3 24 19 51 30.0020000  0  8 16 27 31 28 18  2 19 29
  24526485.667    -4053221.822 5  -3268817.291 3
  21526944.007   -14930305.817 8 -11589962.591 9
  22472385.541   -10523522.950 7  -8759244.500 6
  24596131.203     5383515.980 5   1388266.020 3
  21912290.787    14901114.744 8   4382643.421 8
  23229939.557    -7605726.838 6  -5906398.914 6
  21182446.258     5488710.856 8  -4039614.650 9
  24223762.558    10557202.108 5  14917013.116 3
 94  3 24 19 52  0.0020000  0  8 16 27 31 28 18  2 19 29
  24525366.362    -4059062.075 5  -3273368.126 3
  21520128.825   -14966154.328 8 -11617896.483 9
  22477674.420   -10495742.732 7  -8737597.589 6
  24610969.310     5461545.582 5   1449068.263 3
  21928685.297    14987253.863 8   4449764.746 8
  23218751.453    -7664527.508 6  -5952217.587 6
  21184856.349     5501362.528 8  -4029756.208 9
  24245415.818    10670975.568 5  15005667.562 3
 94  3 24 19 52 30.0020000  0  8 16 27 31 28 18  2 19 29
  24524363.227    -4064386.184 5  -3277516.817 3
  21513342.543   -15001820.731 8 -11645688.483 9
  22483071.763   -10467364.240 7  -8715484.495 6
  24625900.174     5539986.139 5   1510190.705 3
  21945148.820    15073773.339 7   4517182.467 8
  23207596.925    -7723139.409 6  -5997889.178 6
  21187303.015     5514229.430 8  -4019730.064 9
  24267101.935    10784915.257 5  15094451.534 3
 94  3 24 19 53  0.0020000  0  8 16 27 31 28 18  2 19 29
  24523446.791    -4069181.216 5  -3281253.237 3
  21506587.919   -15037311.910 8 -11673343.945 9
  22488588.154   -10438380.366 7  -8692899.657 6
  24640904.007     5618832.474 5   1571629.377 3
  21961689.329    15160679.589 8   4584901.549 8
  23196483.349    -7781545.951 6  -6043400.735 6
  21189794.141     5527332.277 8  -4009520.059 9
  24288800.074    10899029.003 5  15183371.132 3
 94  3 24 19 53 30.0020000  0  8 16 27 31 28 18  2 19 29
  24522651.472    -4073402.076 6  -3284542.248 3
  21499872.328   -15072591.046 8 -11700834.173 9
  22494223.263   -10408764.535 7  -8669822.400 6
  24655995.470     5698115.852 5   1633408.563 3
  21978306.555    15248014.632 8   4652954.782 8
  23185415.341    -7839696.954 6  -6088713.172 6
  21192338.419     5540701.548 8  -3999102.451 9
  24310572.741    11013347.577 6  15272450.311 3
 94  3 24 19 54  0.0020000  0  8 16 27 31 28 18  2 19 29
  24521953.735    -4077024.197 5  -3287364.681 3
  21493205.603   -15107614.060 8 -11728124.830 9
  22499985.664   -10378500.988 7  -8646240.420 6
  24671166.977     5777867.994 5   1695553.030 3
  21995011.171    15335804.933 8   4721362.762 8
  23174404.114    -7897545.466 6  -6133789.909 6
  21194938.999     5554361.345 8  -3988458.464 9
  24332352.693    11127881.951 5  15361697.694 3
 94  3 24 19 54 30.0020000  0  8 16 27 31 28 18  2 19 29
  24521380.052    -4080045.652 5  -3289719.101 3
  21486596.469   -15142371.265 8 -11755208.357 9
  22505869.691   -10347579.973 7  -8622146.132 6
  24686436.006     5858110.859 5   1758079.907 3
  22011812.289    15424067.900 8   4790139.033 8
  23163459.920    -7955067.115 7  -6178611.933 6
  21197595.970     5568322.355 8  -3977579.751 9
  24354195.391    11242638.613 5  15451118.269 3
 94  3 24 19 55  0.0020000  0  8 16 27 31 28 18  2 19 29
  24520914.294    -4082485.030 5  -3291619.961 3
  21480027.147   -15176883.421 8 -11782100.960 9
  22511880.559   -10316007.955 7  -8597544.583 6
  24701797.192     5938832.077 5   1820979.492 3
  22028699.239    15512798.841 8   4859279.952 8
  23152579.163    -8012262.447 7  -6223179.704 6
  21200307.293     5582568.549 8  -3966478.844 9
  24376071.487    11357619.509 5  15540713.531 3
 94  3 24 19 55 30.0020000  0  8 16 27 31 28 18  2 19 29
  24520555.203    -4084354.213 5  -3293076.476 3
  21473506.361   -15211149.091 8 -11808801.458 9
  22518004.570   -10283802.497 7  -8572449.416 6
  24717253.262     6020010.769 5   1884235.552 3
  22045668.991    15601978.564 8   4928770.599 8
  23141749.070    -8069147.731 6  -6267505.849 6
  21203073.298     5597096.826 8  -3955158.116 9
  24397997.438    11472821.330 5  15630480.976 3
 94  3 24 19 56  0.0020000  0  8 16 27 31 28 18  2 19 29
  24520307.245    -4085673.554 5  -3294104.553 3
  21467029.315   -15245184.339 8 -11835322.421 9
  22524252.964   -10250967.721 7  -8546863.890 6
  24732781.342     6101628.134 5   1947833.438 3
  22062716.030    15691579.490 8   4998589.427 8
  23130981.425    -8125751.552 7  -6311612.715 6
  21205887.240     5611891.430 8  -3943629.857 9
  24419951.599    11588222.564 5  15720403.802 3
 94  3 24 19 56 30.0020000  0  8 16 27 31 28 18  2 19 29
  24520161.455    -4086472.204 5  -3294726.890 3
  21460589.923   -15279027.728 8 -11861693.895 9
  22530617.918   -10217524.693 7  -8520804.395 6
  24748381.762     6183646.022 5   2011743.409 3
  22079838.916    15781563.085 8   5068706.438 8
  23120252.902    -8182101.203 6  -6355521.530 6
  21208752.446     5626939.013 8  -3931904.493 9
  24441953.488    11703805.808 5  15810468.435 3
 94  3 24 19 57  0.0020000  0  8 16 27 31 28 18  2 19 29
  24520100.568    -4086772.086 5  -3294960.589 3
  21454181.169   -15312695.613 8 -11887928.599 9
  22537089.298   -10183490.745 7  -8494284.438 6
  24764058.059     6266034.631 5   2075942.248 3
  22097026.587    15871897.264 7   5139096.640 8
  23109575.973    -8238216.103 6  -6399247.384 6
  21211657.135     5642207.762 8  -3920006.757 9
  24463974.293    11819555.645 5  15900662.913 3
 94  3 24 19 57 30.0020000  0  8 16 27 31 28 18  2 19 29
  24520133.695    -4086578.291 5  -3294809.616 3
  21447805.783   -15346185.605 8 -11914024.696 9
  22543683.473   -10148882.031 7  -8467316.618 6
  24779813.322     6348796.995 5   2140432.387 3
  22114280.752    15962565.407 7   5209747.077 8
  23098942.125    -8294098.185 6  -6442791.840 6
  21214605.055     5657688.702 8  -3907943.699 9
  24486032.393    11935437.489 5  15990960.239 3
 94  3 24 19 58  0.0020000  0  8 16 27 31 28 18  2 19 29
  24520263.475    -4085890.484 5  -3294273.677 3
  21441470.479   -15379500.121 8 -11939984.046 9
  22550376.729   -10113694.536 7  -8439897.797 6
  24795629.953     6431953.770 5   2205229.814 3
  22131600.062    16053577.659 7   5280665.670 8
  23088355.314    -8349723.673 7  -6486136.348 6
  21217587.750     5673375.588 8  -3895720.162 9
  24508102.334    12051444.382 5  16081354.961 3
 94  3 24 19 58 30.0020000  0  8 16 27 31 28 18  2 19 29
  24520493.685    -4084689.579 5  -3293337.954 3
  21435166.323   -15412618.913 8 -11965790.901 9
  22557183.847   -10077911.306 7  -8412014.766 6
  24811533.013     6515522.709 5   2270348.388 3
  22148987.395    16144953.091 7   5351867.234 8
  23077828.792    -8405051.598 7  -6529248.985 6
  21220610.827     5689282.172 8  -3883325.436 9
  24530214.936    12167604.847 5  16171869.398 3
 94  3 24 19 59  0.0020000  0  8 16 27 31 28 18  2 19 29
  24520822.318    -4082961.859 5  -3291991.692 3
  21428906.657   -15445517.234 8 -11991425.948 9
  22564106.864   -10041525.606 7  -8383662.269 6
  24827518.427     6599509.701 5   2335792.740 3
  22166447.907    16236704.001 7   5423361.383 8
  23067365.555    -8460068.971 7  -6572119.624 6
  21223681.241     5705406.030 8  -3870761.405 9
  24552339.559    12283931.335 5  16262513.164 3
 94  3 24 19 59 30.0020000  0  8 16 27 31 28 18  2 19 29
  24521257.826    -4080701.507 5  -3290230.427 3
  21422688.751   -15478201.933 8 -12016894.531 9
  22571147.100   -10004547.975 7  -8354848.533 6
  24843578.938     6683895.695 5   2401548.013 3
  22183979.860    16328822.094 7   5495141.676 8
  23056945.039    -8514786.992 6  -6614757.009 6
  21226792.427     5721758.482 8  -3858019.243 9
  24574511.999    12400415.518 5  16353279.780 3
 94  3 24 20  0  0.0020000  0  8 16 27 31 28 18  2 19 29
  24521789.328    -4077908.753 5  -3288054.255 3
  21416503.073   -15510676.901 8 -12042199.679 9
  22578299.489    -9966966.151 7  -8325563.998 6
  24859719.884     6768662.730 5   2467600.202 3
  22201582.864    16421312.700 8   5567212.197 8
  23046589.338    -8569221.936 7  -6657173.816 6
  21229951.550     5738342.759 8  -3845096.439 9
  24596711.811    12517068.062 5  16444177.640 3
 94  3 24 20  0 30.0020000  0  8 16 27 31 28 18  2 19 29
  24522419.013    -4074583.817 5  -3285463.409 3
  21410365.003   -15542948.823 8 -12067346.639 9
  22585561.751    -9928784.482 7  -8295812.068 6
  24875901.212     6853784.859 5   2533929.086 3
  22219248.974    16514168.319 7   5639567.175 8
  23036281.005    -8623405.277 7  -6699394.566 6
  21233150.786     5755160.424 8  -3831991.790 9
  24618940.282    12633874.965 5  16535195.762 3
 94  3 24 20  1  0.0020000  0  8 16 27 31 28 18  2 19 29
  24523163.307    -4070726.832 5  -3282457.982 3
  21404263.747   -15575018.284 8 -12092335.814 9
  22592943.601    -9890017.147 7  -8265603.746 6
  24892177.394     6939264.078 5   2600536.207 3
  22236990.152    16607397.083 7   5712212.914 8
  23026011.224    -8677365.145 7  -6741441.171 6
  21236398.677     5772222.173 8  -3818696.914 9
  24641196.125    12750832.428 5  16626331.192 3
 94  3 24 20  1 30.0020000  0  8 16 27 31 28 18  2 19 29
  24523990.974    -4066347.590 5  -3279045.615 3
  21398197.446   -15606910.460 8 -12117186.878 9
  22600425.821    -9850678.305 7  -8234950.104 6
  24908505.201     7025108.005 5   2667427.461 3
  22254803.700    16700995.164 8   5785146.418 8
  23015782.156    -8731116.666 7  -6783325.430 6
  21239689.049     5789523.320 8  -3805215.516 9
  24663470.135    12867924.561 4  16717571.564 3
 94  3 24 20  2  0.0020000  0  8 16 27 31 28 18  2 19 29
  24524915.594    -4061447.969 5  -3275227.754 3
  21392161.575   -15638619.169 8 -12141894.937 9
  22608020.973    -9810761.346 7  -8203845.998 6
  24924917.489     7111337.349 5   2734619.163 3
  22272687.219    16794978.391 7   5858380.037 8
  23005597.097    -8784640.742 7  -6825032.476 6
  21243029.007     5807064.958 8  -3791546.713 9
  24685784.587    12985166.299 5  16808928.514 2
 94  3 24 20  2 30.0020000  0  8 16 27 31 28 18  2 19 29
  24525955.754    -4056015.973 5  -3270995.014 3
  21386164.137   -15670135.213 8 -12166452.875 9
  22615729.476    -9770276.193 7  -8172299.130 6
  24941403.256     7197966.548 5   2802122.390 3
  22290643.619    16889344.859 7   5931912.295 8
  22995459.285    -8837916.430 7  -6866545.969 6
  21246415.732     5824858.159 8  -3777681.869 9
  24708136.633    13102569.770 5  16900411.470 2
 94  3 24 20  3  0.0020000  0  8 16 27 31 28 18  2 19 29
  24527084.413    -4050043.434 5  -3266341.143 3
  21380206.301   -15701430.085 8 -12190838.489 9
  22623537.601    -9729218.170 7  -8140305.865 6
  24957964.870     7285009.541 5   2869948.015 2
  22308671.548    16984094.036 7   6005742.742 8
  22985375.136    -8890915.840 7  -6907844.175 6
  21249847.697     5842904.575 8  -3763619.738 9
  24730506.517    13220145.223 5  16992028.449 2
 94  3 24 20  3 30.0020000  0  8 16 27 31 28 18  2 19 29
  24528331.939    -4043523.700 5  -3261260.883 3
  21374296.822   -15732494.149 8 -12215044.251 9
  22631463.814    -9687568.892 7  -8107851.899 6
  24974610.457     7372455.389 5   2938087.578 3
  22326774.486    17079215.493 7   6079863.305 7
  22975345.249    -8943614.009 7  -6948907.645 7
  21253331.855     5861209.962 8  -3749355.810 9
  24752909.347    13337880.955 5  17083770.287 2
 94  3 24 20  4  0.0020000  0  8 16 27 31 28 18  2 19 29
  24529677.767    -4036475.255 5  -3255768.590 2
  21368431.832   -15763322.588 8 -12239066.408 9
  22639507.245    -9645328.686 7  -8074937.470 6
  24991325.775     7460290.751 5   3006530.646 2
  22344940.350    17174691.455 7   6154260.086 7
  22965372.174    -8996015.587 7  -6989740.009 7
  21256860.981     5879771.507 8  -3734892.275 9
  24775339.729    13455753.762 5  17175618.986 2
 94  3 24 20  4 30.0020000  0  8 16 27 31 28 18  2 19 29
  24531106.368    -4028912.162 5  -3249875.293 2
  21362610.972   -15793917.516 8 -12262906.591 9
  22647651.827    -9602508.041 7  -8041570.734 6
  25008114.033     7548505.340 5   3075269.206 2
  22363172.648    17270505.646 7   6228920.438 7
  22955455.879    -9048143.786 7  -7030359.345 7
  21260440.713     5898572.732 8  -3720241.969 9
  24797789.178    13573730.823 5  17267548.851 2
 94  3 24 20  5  0.0020000  0  8 16 27 31 28 18  2 19 29
  24532648.171    -4020846.373 5  -3243590.295 2
  21356830.824   -15824279.115 8 -12286564.984 9
  22655914.467    -9559088.181 7  -8007737.088 6
  25024967.016     7637098.315 5   3144302.641 2
  22381470.540    17366660.788 7   6303846.461 7
  22945583.413    -9100011.287 7  -7070775.540 7
  21264061.726     5917609.762 8  -3705407.928 9
  24820260.361    13691801.747 5  17359551.868 2
 94  3 24 20  5 30.0020000  0  8 16 27 31 28 18  2 19 29
  24534269.359    -4012293.399 5  -3236925.661 2
  21351090.727   -15854447.187 8 -12310072.550 9
  22664291.328    -9515075.884 7  -7973441.790 6
  25041897.345     7726055.262 5   3213619.686 2
  22399836.036    17463149.212 7   6379032.174 7
  22935758.375    -9151632.373 7  -7110999.730 7
  21267731.066     5936879.009 8  -3690392.941 9
  24842740.389    13809949.819 5  17451615.027 2
 94  3 24 20  6  0.0020000  0  8 16 27 31 28 18  2 19 29
  24535993.345    -4003256.804 5  -3229884.191 2
  21345382.109   -15884434.251 8 -12333439.090 9
  22672772.606    -9470494.900 7  -7938703.378 6
  25058886.794     7815367.263 5   3283213.355 2
  22418256.784    17559967.771 7   6454475.133 7
  22925976.117    -9203032.159 7  -7151051.470 7
  21271436.201     5956356.278 8  -3675215.868 9
  24865243.500    13928171.346 5  17543735.388 2
 94  3 24 20  6 30.0020000  0  8 16 27 31 28 18  2 19 29
  24537810.747    -3993723.019 5  -3222455.308 3
  21339713.274   -15914250.548 8 -12356672.564 9
  22681365.737    -9425353.032 7  -7903527.881 6
  25075943.845     7905009.142 5   3353064.110 2
  22436745.344    17657109.286 7   6530169.756 7
  22916238.438    -9254215.623 7  -7190934.639 7
  21275179.560     5976036.237 8  -3659880.844 9
  24887751.678    14046479.684 5  17635923.392 2
 94  3 24 20  7  0.0020000  0  8 16 27 31 28 18  2 19 29
  24539710.562    -3983693.726 5  -3214640.297 3
  21334062.336   -15943915.806 8 -12379788.336 9
  22690062.147    -9379661.984 7  -7867924.482 6
  25093080.492     7994961.071 5   3423156.473 2
  22455289.007    17754562.905 7   6606107.582 7
  22906544.439    -9305172.252 7  -7230641.060 7
  21278967.527     5995925.236 8  -3644382.915 9
  24910288.276    14164882.252 5  17728184.822 2
 94  3 24 20  7 30.0020000  0  8 16 27 31 28 18  2 19 29
  24541720.940    -3973166.127 5  -3206436.999 3
  21328450.611   -15973428.844 8 -12402785.513 9
  22698855.030    -9333443.045 7  -7831909.725 6
  25110251.824     8085228.229 5   3493494.478 2
  22473889.570    17852330.914 7   6682290.383 7
  22896890.642    -9355888.693 7  -7270160.334 7
  21282793.808     6016032.986 8  -3628714.555 9
  24932839.384    14283387.345 5  17820526.121 2
 94  3 24 20  8  0.0020000  0  8 16 27 31 28 18  2 19 29
  24543818.858    -3962140.550 5  -3197845.644 3
  21322867.006   -16002758.038 8 -12425639.422 9
  22707753.140    -9286694.508 7  -7795482.298 6
  25127493.158     8175826.946 5   3564090.814 2
  22492554.439    17950417.399 7   6758721.346 7
  22887287.960    -9406359.016 7  -7309487.804 7
  21286661.851     6036364.553 8  -3612871.775 9
  24955414.896    14402019.633 5  17912966.536 2
 94  3 24 20  8 30.0020000  0  8 16 27 31 28 18  2 19 29
  24546001.767    -3950625.451 5  -3188872.876 3
  21317324.863   -16031892.236 8 -12448341.380 9
  22716746.014    -9239400.817 6  -7758630.072 6
  25144789.774     8266766.220 4   3634952.497 2
  22511278.246    18048819.968 7   6835398.619 7
  22877732.106    -9456567.071 7  -7348610.952 7
  21290576.750     6056945.646 8  -3596834.563 9
  24978014.960    14520783.932 5  18005509.843 2
 94  3 24 20  9  0.0020000  0  8 16 27 31 28 18  2 19 29
  24548285.256    -3938628.440 5  -3179524.568 3
  21311821.453   -16060806.112 8 -12470871.667 9
  22725856.587    -9191553.189 7  -7721346.226 6
  25162160.978     8358059.506 4   3706090.033 3
  22530066.929    18147548.107 7   6912329.572 7
  22868230.154    -9506506.648 7  -7387524.880 7
  21294544.564     6077782.803 8  -3580597.828 9
  25000645.903    14639678.264 5  18098154.426 2
 94  3 24 20  9 30.0020000  0  8 16 27 31 28 18  2 19 29
  24550666.327    -3926141.325 5  -3169794.387 3
  21306367.029   -16089456.434 8 -12493196.586 9
  22735068.100    -9143133.526 7  -7683616.629 6
  25179608.330     8449725.927 5   3777518.336 2
  22548920.487    18246617.766 7   6989526.620 7
  22858779.736    -9556176.364 7  -7426228.515 7
  21298558.485     6098881.481 8  -3564157.307 9
  25023286.589    14758710.148 4  18190906.212 2
 94  3 24 20 10  0.0020000  0  8 16 27 31 28 18  2 19 29
  24553139.645    -3913146.743 5  -3159668.771 3
  21300968.966   -16117819.306 8 -12515297.510 9
  22744392.125    -9094101.818 7  -7645410.111 6
  25197120.556     8541757.390 5   3849231.065 2
  22567841.349    18346035.742 7   7066995.113 7
  22849379.564    -9605568.718 7  -7464716.029 7
  21302624.090     6120247.238 8  -3547508.673 9
  25045967.208    14877877.923 5  18283763.886 2
 94  3 24 20 10 30.0020000  0  8 16 27 31 28 18  2 19 29
  24555704.969    -3899646.618 5  -3149149.244 3
  21295629.752   -16145906.033 8 -12537183.269 9
  22753842.992    -9044468.528 6  -7606734.809 6
  25214708.690     8634130.001 4   3921209.714 2
  22586830.083    18445787.179 7   7144723.439 7
  22840031.135    -9654690.234 7  -7502992.499 7
  21306739.431     6141878.978 8  -3530652.776 9
  25068657.420    14997150.162 4  18376702.937 2
 94  3 24 20 11  0.0020000  0  8 16 27 31 28 18  2 19 29
  24558390.780    -3885634.569 5  -3138230.785 3
  21290334.338   -16173727.244 8 -12558862.138 9
  22763394.380    -8994249.957 7  -7567603.476 6
  25232337.176     8726843.750 4   3993454.110 2
  22605874.429    18545875.716 7   7222714.433 7
  22830735.021    -9703543.617 7  -7541060.020 7
  21310903.459     6163755.545 8  -3513606.118 9
  25091377.761    15116517.867 5  18469716.373 2
 94  3 24 20 11 30.0020000  0  8 16 27 31 28 18  2 19 29
  24561148.870    -3871091.860 5  -3126898.863 3
  21285090.908   -16201297.435 8 -12580345.393 9
  22773065.625    -8943441.490 7  -7528012.458 6
  25250051.373     8819902.645 4   4065967.497 2
  22624981.911    18646305.812 7   7300971.596 7
  22821490.051    -9752121.561 7  -7578912.914 7
  21315116.472     6185884.629 8  -3496362.690 9
  25114117.468    15235981.300 4  18562804.373 2
 94  3 24 20 12  0.0020000  0  8 16 27 31 28 18  2 19 29
  24564013.837    -3855994.230 5  -3115134.493 3
  21279887.081   -16228626.150 8 -12601640.478 9
  22782853.759    -8892036.655 6  -7487956.742 6
  25267817.704     8913310.471 4   4138752.736 2
  22644161.493    18747081.806 7   7379498.270 7
  22812304.110    -9800410.860 7  -7616540.914 7
  21319377.272     6208288.006 8  -3478905.514 9
  25136866.769    15355548.087 5  18655972.901 2
 94  3 24 20 12 30.0020000  0  8 16 27 31 28 18  2 19 29
  24566994.494    -3840324.240 5  -3102924.124 3
  21274732.869   -16255700.468 8 -12622737.343 9
  22792745.021    -8840034.285 6  -7447435.416 6
  25285677.420     9007096.378 4   4211832.603 2
  22663408.529    18848217.716 7   7458305.410 7
  22803169.075    -9848390.109 7  -7653927.324 7
  21323697.641     6230983.716 8  -3461220.552 9
  25159627.193    15475239.514 4  18749238.591 2
 94  3 24 20 13  0.0020000  0  8 16 27 31 28 18  2 19 29
  24570095.337    -3824087.607 5  -3090272.246 3
  21269629.292   -16282529.094 8 -12643642.756 9
  22802760.397    -8787431.363 7  -7406446.129 6
  25303576.109     9101254.435 5   4285202.445 2
  22682720.409    18949713.021 7   7537392.579 7
  22794100.053    -9896067.806 7  -7691078.697 7
  21328068.016     6253958.956 8  -3443317.781 9
  25182448.054    15595060.025 5  18842604.790 2
 94  3 24 20 13 30.0020000  0  8 16 27 31 28 18  2 19 29
  24573279.672    -3807318.039 5  -3077205.070 3
  21264570.894   -16309120.609 8 -12664363.411 9
  22812879.832    -8734235.925 7  -7364995.159 6
  25321577.507     9195759.198 5   4358842.471 2
  22702095.966    19051537.467 7   7616736.231 7
  22785082.656    -9943462.621 7  -7728009.696 7
  21332492.383     6277214.500 8  -3425196.587 9
  25205263.969    15714991.879 5  18936057.834 2
 94  3 24 20 14  0.0020000  0  8 16 27 31 28 18  2 19 29
  24576556.944    -3790039.163 5  -3063741.044 3
  21259554.976   -16335469.517 8 -12684895.029 9
  22823114.597    -8680458.655 7  -7323090.798 6
  25339606.186     9290609.057 4   4432751.428 2
  22721533.640    19153675.108 7   7696323.924 7
  22776115.413    -9990574.768 7  -7764720.430 7
  21336972.361     6300742.062 8  -3406863.432 9
  25228105.486    15835027.386 5  19029591.584 2
 94  3 24 20 14 30.0020000  0  7 16 27 31 18  2 19 29
  24579953.322    -3772255.987 5  -3049884.070 3
  21254589.424   -16361570.160 8 -12705233.181 9
  22833455.668    -8626100.943 7  -7280734.155 6
  22741030.852    19256137.663 7   7776164.794 7
  22767201.055   -10037394.180 7  -7801203.065 7
  21341499.257     6324533.669 8  -3388324.521 9
  25250964.931    15955170.962 4  19123209.534 2
 94  3 24 20 15  0.0020000  0  7 16 27 31 18  2 19 29
  24583424.110    -3753979.863 5  -3035642.980 3
  21249666.952   -16387435.006 8 -12725387.613 9
  22843910.390    -8571175.306 7  -7237934.959 6
  22760587.423    19358915.348 7   7856251.227 7
  22758349.982   -10083930.498 7  -7837465.089 7
  21346072.531     6348585.562 8  -3369582.806 9
  25273852.916    16075412.222 5  19216903.645 2
 94  3 24 20 15 30.0020000  0  6 16 27 31 18  2 19
  24586998.835    -3735220.675 5  -3021025.447 3
  21244784.532   -16413081.523 8 -12745371.912 9
  22854465.513    -8515701.784 6  -7194708.843 6
  22780203.443    19461999.694 7   7936576.626 7
  22749547.686   -10130196.383 7  -7873516.393 7
  21350703.006     6372895.848 8  -3350639.723 9
 94  3 24 20 16  0.0020000  0  6 16 27 31 18  2 19
  24590662.748    -3715947.976 5  -3006007.821 3
  21239948.220   -16438494.034 8 -12765173.867 9
  22865130.749    -8459672.152 7  -7151049.403 6
  22799884.458    19565413.093 7   8017158.416 7
  22740796.294   -10176185.305 7  -7909351.884 7
  21355377.969     6397469.007 8  -3331491.814 9
 94  3 24 20 16 30.0020000  0  6 16 27 31 18  2 19
  24594430.570    -3696174.390 5  -2990599.838 3
  21235155.078   -16463697.016 8 -12784812.544 9
  22875895.697    -8403108.120 7  -7106973.542 6
  22819622.794    19669137.493 7   8097982.546 7
  22732086.184   -10221933.692 7  -7944999.923 7
  21360102.579     6422290.678 8  -3312150.244 9
 94  3 24 20 17  0.0020000  0  6 16 27 31 18  2 19
  24598293.456    -3675909.796 5  -2974809.296 3
  21230399.890   -16488690.963 8 -12804288.342 9
  22886760.026    -8346007.849 7  -7062479.836 6
  22839414.432    19773152.207 7   8179032.905 7
  22723420.323   -10267463.276 7  -7980477.480 7
  21364873.146     6447363.567 8  -3292612.931 9
 94  3 24 20 17 30.0020000  0  6 16 27 31 18  2 19
  24602234.707    -3655154.896 5  -2958636.676 3
  21225678.998   -16513477.246 8 -12823602.324 9
  22897728.532    -8288381.313 7  -7017576.043 6
  22859258.864    19877446.586 7   8260301.173 7
  22714800.061   -10312779.995 7  -8015789.191 7
  21369689.012     6472669.996 8  -3272893.666 9
 94  3 24 20 18  0.0020000  0  7 16 27 31 18  2 19  7
  24606279.927    -3633904.604 5  -2942078.063 3
  21221008.891   -16538023.001 8 -12842728.896 9
  22908796.330    -8230222.427 7  -6972257.431 6
  22879156.240    19982005.510 7   8341775.588 6
  22706221.110   -10357864.713 7  -8050920.124 7
  21374542.382     6498201.054 8  -3252999.338 9
  25337445.671    -1279170.68214   -187299.368
 94  3 24 20 18 30.0020000  0  7 16 27 31 18  2 19  7
  24610401.294    -3612157.578 5  -2925132.347 3
  21216388.820   -16562315.285 8 -12861657.939 9
  22919953.586    -8171525.812 6  -6926519.830 6
  22899102.631    20086821.116 7   8423449.994 6
  22697686.828   -10402703.708 7  -8085859.578 7
  21379448.126     6523961.981 8  -3232925.901 9
  25318638.671    -1378022.091 5   -264322.900 1
 94  3 24 20 19  0.0020000  0  7 16 27 31 18  2 19  7
  24614638.590    -3589920.133 5  -2907804.488 3
  21211817.015   -16586346.114 8 -12880383.248 9
  22931233.577    -8112297.873 7  -6880368.190 6
  22919104.964    20191895.907 7   8505326.386 6
  22689205.520   -10447278.810 7  -8120593.383 7
  21384391.944     6549941.755 8  -3212681.930 9
  25299816.891    -1476890.011 5   -341362.499 1
 94  3 24 20 19 30.0020000  0  7 16 27 31 18  2 19  7
  24618975.658    -3567200.912 5  -2890101.251 3
  21207291.827   -16610111.821 8 -12898901.974 9
  22942599.129    -8052558.576 6  -6833818.094 6
  22939138.085    20297232.516 7   8587406.778 6
  22680778.894   -10491581.076 7  -8155114.597 7
  21389376.113     6576136.495 8  -3192270.456 9
  25281011.510    -1575757.786 4   -418401.944 1
 94  3 24 20 20  0.0020000  0  7 16 27 31 18  2 19  7
  24623384.406    -3544021.768 5  -2872039.615 3
  21202819.104   -16633617.725 8 -12917218.257 9
  22954064.032    -7992309.875 6  -6786871.076 6
  22959240.129    20402833.541 7   8669693.206 6
  22672391.300   -10535630.456 7  -8189438.744 7
  21394402.074     6602550.442 8  -3171688.178 9
  25262183.704    -1674621.603 4   -495438.318 2
 94  3 24 20 20 30.0020000  0  7 16 27 31 18  2 19  7
  24627885.640    -3520379.060 5  -2853616.746 3
  21198392.638   -16656879.607 8 -12935344.393 9
  22965627.207    -7931544.793 6  -6739521.675 6
  22979393.527    20508734.287 7   8752213.207 6
  22664061.747   -10579426.045 7  -8223565.140 7
  21399478.219     6629217.270 8  -3150908.834 9
  25243378.263    -1773473.233 3   -572465.174 2
 94  3 24 20 21  0.0020000  0  7 16 27 31 18  2 19  7
  24632465.989    -3496268.993 5  -2834829.704 3
  21194010.452   -16679900.698 8 -12953282.894 9
  22977287.245    -7870259.883 6  -6691767.216 6
  22999598.879    20614949.695 7   8834978.399 6
  22655775.183   -10622955.883 7  -8257484.445 7
  21404599.754     6656157.196 8  -3129916.688 9
  25224569.734    -1872308.331 4   -649479.256 2
 94  3 24 20 21 30.0020000  0  7 16 27 31 18  2 19  7
  24637149.256    -3471685.992 5  -2815674.188 3
  21189676.262   -16702682.963 8 -12971035.303 9
  22989050.352    -7808434.770 6  -6643591.822 6
  23019867.877    20721467.576 6   8917979.266 6
  22647540.214   -10666221.904 7  -8291198.209 7
  21409784.874     6683379.957 8  -3108704.154 9
  25205756.318    -1971141.279 5   -726491.591 2
 94  3 24 20 22  0.0020000  0  7 16 27 31 18  2 19  7
  24641917.096    -3446640.492 5  -2796158.229 2
  21185382.485   -16725247.359 8 -12988617.932 9
  23000922.493    -7746067.977 6  -6594994.336 6
  23040195.485    20828270.027 7   9001201.873 6
  22639360.287   -10709239.185 7  -8324718.128 8
  21415015.503     6710876.766 8  -3087278.075 9
  25186956.003    -2069990.924 4   -803516.980 2
 94  3 24 20 22 30.0020000  0  7 16 27 31 18  2 19  7
  24646764.650    -3421121.140 5  -2776273.105 2
  21181130.618   -16747588.004 8 -13006026.235 9
  23012893.955    -7683158.239 7  -6545973.770 6
  23060569.170    20935349.448 7   9084640.302 6
  22631225.029   -10751977.493 7  -8358020.658 8
  21420304.562     6738661.156 8  -3065627.913 9
  25168149.723    -2168833.327 5   -880536.696 2
 94  3 24 20 23  0.0020000  0  7 16 27 31 18  2 19  7
  24651720.189    -3395113.429 5  -2756007.360 2
  21176925.789   -16769678.743 8 -13023239.785 9
  23024968.816    -7619698.870 7  -6496524.927 6
  23080997.298    21042684.743 7   9168278.125 6
  22623145.982   -10794430.864 7  -8391101.158 8
  21425640.718     6766723.580 8  -3043761.101 9
  25149337.176    -2267659.141 5   -957543.514 2
 94  3 24 20 23 30.0020000  0  7 16 27 31 18  2 19  7
  24656762.638    -3368622.619 5  -2735365.199 2
  21172771.445   -16791519.780 8 -13040258.780 9
  23037150.612    -7555696.077 6  -6446652.656 6
  23101472.523    21150263.038 7   9252105.289 6
  22615117.600   -10836614.532 7  -8423971.511 8
  21431034.554     6795054.900 8  -3021684.754 9
  25130532.035    -2366471.564 4  -1034539.906 2
 94  3 24 20 24  0.0020000  0  7 16 27 31 18  2 19  7
  24661892.897    -3341644.993 5  -2714343.715 2
  21168662.790   -16813096.513 8 -13057071.816 9
  23049425.914    -7491163.496 6  -6396367.552 6
  23121989.420    21258104.442 7   9336137.478 6
  22607144.200   -10878523.242 7  -8456627.604 8
  21436479.054     6823668.766 8  -2999388.242 9
  25111732.679    -2465245.431 4  -1111506.331 2
 94  3 24 20 24 30.0020000  0  7 16 27 31 18  2 19  7
  24667119.838    -3314153.400 5  -2692921.721 2
  21164616.371   -16834382.835 8 -13073658.550 9
  23061813.669    -7426085.385 6  -6345657.375 6
  23142569.722    21366220.801 7   9420383.905 6
  22599225.961   -10920141.951 7  -8489057.725 8
  21441982.345     6852582.149 8  -2976858.346 9
  25092954.039    -2563966.304 5  -1188431.375 2
 94  3 24 20 25  0.0020000  0  7 16 27 31 18  2 19  7
  24672461.241    -3286127.883 5  -2671083.706 2
  21160622.506   -16855360.148 8 -13090004.504 9
  23074303.502    -7360434.235 6  -6294500.650 6
  23163195.713    21474629.448 7   9504858.088 6
  22591362.885   -10961466.413 7  -8521258.582 8
  21447542.086     6881794.133 8  -2954095.768 9
  25074178.847    -2662637.613 5  -1265317.793 2
 94  3 24 20 25 30.0020000  0  7 16 27 31 18  2 19  7
  24677890.092    -3257581.315 5  -2648839.658 3
  21156689.589   -16876031.157 8 -13106111.794 9
  23086908.906    -7294200.960 6  -6242890.335 5
  23183888.918    21583345.752 7   9589572.015 6
  22583552.932   -11002487.920 7  -8553223.346 8
  21453157.978     6911309.439 8  -2931096.850 9
  25055401.586    -2761253.188 4  -1342160.896 2
 94  3 24 20 26  0.0020000  0  7 16 27 31 18  2 19  7
  24683434.964    -3228510.438 5  -2626187.102 3
  21152820.227   -16896380.902 8 -13121968.746 9
  23099622.684    -7227376.053 6  -6190819.006 5
  23204638.273    21692378.949 7   9674532.872 6
  22575808.273   -11043186.633 7  -8584936.592 8
  21458832.959     6941129.874 8  -2907860.153 9
  25036665.157    -2859811.964 5  -1418959.583 2
 94  3 24 20 26 30.0020000  0  7 16 27 31 18  2 19  7
  24689055.203    -3198905.876 5  -2603118.625 3
  21149007.257   -16916406.016 8 -13137572.720 9
  23112457.998    -7159953.618 6  -6138282.077 5
  23225438.713    21801722.350 7   9759735.445 6
  22568125.882   -11083555.660 7  -8616392.941 8
  21464565.051     6971259.552 8  -2884382.493 9
  25017913.559    -2958312.517 4  -1495713.025 2
 94  3 24 20 27  0.0020000  0  7 16 27 31 18  2 19  7
  24694793.830    -3168776.839 5  -2579641.487 3
  21145258.922   -16936093.058 8 -13152913.264 9
  23125396.381    -7091946.224 6  -6085289.323 6
  23246299.562    21911399.254 6   9845197.884 6
  22560512.832   -11123572.714 7  -8647575.042 8
  21470360.549     7001698.429 8  -2860663.900 9
  24999186.273    -3056733.533 4  -1572404.410 2
 94  3 24 20 27 30.0020000  0  7 16 27 31 18  2 19  7
  24700623.654    -3138135.851 5  -2555765.409 3
  21141579.929   -16955440.902 8 -13167989.514 9
  23138445.957    -7023391.572 6  -6031870.123 6
  23267250.318    22021397.724 7   9930910.885 6
  22552961.959   -11163254.363 7  -8678495.769 8
  21476209.320     7032452.303 8  -2836699.855 9
  24980463.185    -3155075.620 5  -1649034.362 2
 94  3 24 20 28  0.0020000  0  7 16 27 31 18  2 19  7
  24706558.495    -3106993.029 5  -2531498.333 2
  21137956.127   -16974472.361 8 -13182819.209 9
  23151584.092    -6954326.649 6  -5978053.349 5
  23288234.411    22131690.767 7  10016853.432 6
  22545468.617   -11202628.736 7  -8709177.067 8
  21482118.559     7063507.709 8  -2812500.833 9
  24961767.078    -3253353.335 5  -1725614.113 2
 94  3 24 20 28 30.0020000  0  7 16 27 31 18  2 19  7
  24712564.508    -3075363.628 5  -2506852.106 2
  21134393.274   -16993205.335 8 -13197416.343 9
  23164819.419    -6884775.321 6  -5923857.509 5
  23309268.929    22242260.174 6  10103011.334 6
  22538028.248   -11241721.989 7  -8739639.308 8
  21488086.797     7094854.662 8  -2788074.653 9
  24943078.136    -3351556.882 4  -1802136.097 2
 94  3 24 20 29  0.0020000  0  7 16 27 31 18  2 19  7
  24718688.338    -3043278.702 5  -2481850.920 2
  21130879.317   -17011670.609 8 -13211804.860 9
  23178139.918    -6814749.344 6  -5869291.853 5
  23330360.018    22353083.389 7  10189366.972 6
  22530641.601   -11280559.190 7  -8769902.030 8
  21494103.752     7126478.083 8  -2763433.044 9
  24924396.899    -3449701.505 4  -1878612.144 2
 94  3 24 20 29 30.0020000  0  7 16 27 31 18  2 19  7
  24724863.043    -3010741.746 5  -2456497.479 2
  21127412.037   -17029889.471 8 -13226001.365 9
  23191559.198    -6744245.514 6  -5814353.830 5
  23351496.076    22464137.450 7  10275902.531 6
  22523290.331   -11319171.781 7  -8799989.716 8
  21500175.658     7158386.526 8  -2738569.314 9
  24905732.660    -3547792.746 5  -1955046.607 2
 94  3 24 20 30  0.0020000  0  7 16 27 31 18  2 19  7
  24731127.537    -2977776.209 5  -2430810.082 2
  21123986.548   -17047878.363 8 -13240018.696 9
  23205066.497    -6673257.094 6  -5759038.185 5
  23372668.169    22575410.302 7  10362608.551 5
  22515986.697   -11357560.060 7  -8829902.637 8
  21506297.690     7190555.322 8  -2713502.740 9
  24887077.984    -3645827.254 5  -2031436.891 3
 94  3 24 20 30 30.0020000  0  7 16 27 31 18  2 19  7
  24737493.659    -2944374.317 5  -2404782.692 2
  21120606.448   -17065636.492 8 -13253856.189 9
  23218673.597    -6601772.782 6  -5703336.133 5
  23393883.012    22686910.286 6  10449491.567 5
  22508723.955   -11395726.384 7  -8859642.592 8
  21512468.888     7222984.126 8  -2688233.550 9
  24868436.530    -3743797.479 5  -2107777.077 3
 94  3 24 20 31  0.0020000  0  7 16 27 31 18  2 19  7
  24743931.163    -2910527.597 5  -2378408.641 2
  21117276.744   -17083164.627 8 -13267514.480 9
  23232371.864    -6529790.588 6  -5647246.138 5
  23415147.711    22798640.525 6  10536554.001 5
  22501499.256   -11433673.721 7  -8889211.899 8
  21518687.513     7255658.515 8  -2662772.993 9
  24849799.752    -3841714.726 4  -2184075.963 3
 94  3 24 20 31 30.0020000  0  7 16 27 31 18  2 19  7
  24750465.619    -2876234.533 5  -2351686.842 2
  21113984.063   -17100441.750 8 -13280977.171 9
  23246161.028    -6457321.963 6  -5590777.088 5
  23436454.170    22910598.065 7  10623793.550 5
  22494322.794   -11471395.145 8  -8918605.191 8
  21524948.318     7288565.267 8  -2637131.379 9
  24831173.556    -3939576.731 5  -2260331.875 3
 94  3 24 20 32  0.0020000  0  7 16 27 31 18  2 19  7
  24757073.585    -2841481.755 5  -2324606.789 2
  21110750.621   -17117455.148 8 -13294234.349 9
  23260040.189    -6384365.554 6  -5533927.947 5
  23457805.030    23022781.813 6  10711209.367 5
  22487190.402   -11508867.016 7  -8947804.010 8
  21531251.575     7321700.242 8  -2611311.926 9
  24812560.882    -4037379.231 5  -2336541.376 3
 94  3 24 20 32 30.0020000  0  7 16 27 31 18  2 19  7
  24763769.779    -2806256.471 5  -2297158.509 3
  21107560.800   -17134202.069 8 -13307283.906 9
  23274014.295    -6310938.766 6  -5476712.288 5
  23479186.378    23135180.773 6  10798792.877 5
  22480110.683   -11546088.337 8  -8976807.589 9
  21537605.106     7355079.014 8  -2585302.513 9
  24793965.115    -4135131.833 5  -2412711.970 3
 94  3 24 20 33  0.0020000  0  7 16 27 31 18  2 19  7
  24770568.862    -2770574.933 5  -2269354.789 2
  21104428.778   -17150661.492 8 -13320109.423 9
  23288078.249    -6237048.338 6  -5419135.356 5
  23500618.360    23247777.876 6  10886530.776 5
  22473078.991   -11583035.723 7  -9005597.738 9
  21544006.065     7388713.738 8  -2559093.653 9
  24775378.133    -4232840.694 4  -2488848.570 3
 94  3 24 20 33 30.0020000  0  7 16 27 31 18  2 19  7
  24777438.186    -2734443.357 5  -2241200.375 2
  21101355.426   -17166825.889 8 -13332705.050 9
  23302232.290    -6162688.240 6  -5361192.432 5
  23522084.939    23360567.549 6  10974418.750 5
  22466101.532   -11619699.274 7  -9034166.692 9
  21550460.567     7422626.019 8  -2532668.509 9
  24756786.683    -4330508.092 4  -2564952.785 3
 94  3 24 20 34  0.0020000  0  7 16 27 31 18  2 19  7
  24784410.190    -2697864.838 5  -2212697.651 2
  21098332.318   -17182709.828 8 -13345082.151 9
  23316466.256    -6087848.905 6  -5302876.093 5
  23543582.637    23473544.850 6  11062452.901 5
  22459179.983   -11656083.174 8  -9062517.752 9
  21556967.472     7456828.116 8  -2506017.549 9
  24738209.834    -4428148.101 5  -2641035.659 3
 94  3 24 20 34 30.0020000  0  7 16 27 31 18  2 19  7
  24791445.479    -2660850.600 5  -2183855.442 3
  21095364.193   -17198303.066 8 -13357232.717 9
  23330803.711    -6012521.730 6  -5244179.594 5
  23565111.363    23586722.375 6  11150643.099 5
  22452307.001   -11692193.685 8  -9090655.768 9
  21563531.848     7491331.868 8  -2479131.522 9
  24719640.329    -4525745.326 4  -2717085.292 3
 94  3 24 20 35  0.0020000  0  7 16 27 31 18  2 19  7
  24798568.548    -2623374.794 5  -2154653.561 3
  21092456.206   -17213576.851 8 -13369134.367 9
  23345246.452    -5936654.755 6  -5185062.489 5
  23586704.154    23700146.977 6  11239025.811 5
  22445493.648   -11728007.039 8  -9118562.241 9
  21570160.619     7526157.683 8  -2451994.542 9
  24701073.223    -4623262.885 5  -2793072.794 3
 94  3 24 20 35 30.0020000  0  7 16 27 31 18  2 19  7
  24805795.225    -2585429.294 5  -2125085.681 3
  21089612.705   -17228535.315 8 -13380790.300 9
  23359785.757    -5860245.096 6  -5125522.522 5
  23608341.106    23813835.157 6  11327613.901 5
  22438731.739   -11763533.237 7  -9146244.958 9
  21576847.040     7561294.406 8  -2424615.299 9
  24682541.732    -4720684.214 5  -2868985.277 3
 94  3 24 20 36  0.0020000  0  7 16 27 31 18  2 19  7
  24813091.424    -2547032.237 5  -2095165.934 3
  21086820.558   -17243183.249 8 -13392204.268 9
  23374424.653    -5783316.728 6  -5065578.336 5
  23630014.122    23927775.165 6  11416398.198 5
  22432027.840   -11798781.912 8  -9173711.420 9
  21583588.383     7596723.349 8  -2397008.339 9
  24664015.727    -4818002.871 4  -2944817.846 3
 94  3 24 20 36 30.0020000  0  7 16 27 31 18  2 19  7
  24820492.491    -2508172.006 5  -2064885.274 3
  21084096.434   -17257495.889 8 -13403356.974 9
  23389159.482    -5705881.824 6  -5005239.484 5
  23651756.869    24041984.135 6  11505392.121 5
  22425374.516   -11833735.906 8  -9200948.269 9
  21590383.359     7632446.015 8  -2369172.508 9
  24645527.856    -4915186.940 5  -3020545.481 3
 94  3 24 20 37  0.0020000  0  7 16 27 31 18  2 19  7
  24827972.672    -2468859.518 5  -2034252.239 2
  21081440.542   -17271471.281 8 -13414246.883 9
  23403985.628    -5627944.996 6  -4944509.512 5
  23673532.894    24156448.123 6  11594584.722 5
  22418774.975   -11868384.625 8  -9227947.237 9
  21597239.162     7668455.998 8  -2341112.789 9
  24627057.763    -5012250.930 5  -3096179.538 3
 94  3 24 20 37 30.0020000  0  7 16 27 31 18  2 19  7
  24835548.218    -2429098.394 5  -2003269.585 2
  21078845.659   -17285105.891 8 -13424871.260 9
  23418906.029    -5549518.935 6  -4883398.311 5
  23695360.094    24271149.848 6  11683962.582 5
  22412247.084   -11902721.669 8  -9254703.347 9
  21604150.878     7704779.691 8  -2312808.632 9
  24608608.715    -5109189.138 5  -3171715.661 3
 94  3 24 20 38  0.0020000  0  7 16 27 31 18  2 19  7
  24843207.585    -2388870.061 5  -1971922.881 2
  21076317.689   -17298390.828 8 -13435223.162 9
  23433928.809    -5470585.790 6  -4821891.988 5
  23717236.639    24386100.558 6  11773534.441 5
  22405771.807   -11936730.501 8  -9281203.707 9
  21611129.297     7741456.884 8  -2284229.030 9
  24590197.800    -5205987.391 5  -3247142.659 3
 94  3 24 20 38 30.0020000  0  7 16 27 31 18  2 19  7
  24850954.792    -2348182.928 5  -1940218.691 2
  21073846.949   -17311357.602 8 -13445327.138 9
  23449045.334    -5391147.440 6  -4759992.028 5
  23739158.513    24501283.696 6  11863287.426 5
  22399361.435   -11970426.732 8  -9307460.479 9
  21618176.248     7778487.692 8  -2255373.852 9
  24571793.242    -5302667.522 5  -3322477.649 3
 94  3 24 20 39  0.0020000  0  7 16 27 31 18  2 19  7
  24858780.065    -2307029.828 5  -1908151.338 2
  21071440.935   -17324018.460 8 -13455192.728 9
  23464263.908    -5311194.937 6  -4697691.391 5
  23761113.813    24616698.186 6  11953220.704 5
  22393002.567   -12003824.759 8  -9333484.885 9
  21625293.501     7815883.291 8  -2226234.458 9
  24553410.658    -5399233.424 5  -3397723.604 3
 94  3 24 20 39 30.0020000  0  7 16 27 31 18  2 19  7
  24866701.241    -2265386.843 5  -1875702.298 2
  21069088.224   -17336380.796 8 -13464825.711 9
  23479574.968    -5230745.531 6  -4635003.559 5
  23783131.441    24732365.560 6  12043351.011 5
  22386705.936   -12036932.777 8  -9359283.318 9
  21632479.796     7853635.495 8  -2196817.163 9
  24535064.948    -5495669.688 5  -3472868.573 3
 94  3 24 20 40  0.0020000  0  7 16 27 31 18  2 19  7
  24874706.659    -2223255.964 4  -1842873.106 2
  21066793.642   -17348436.683 8 -13474219.910 9
  23494976.446    -5149802.407 6  -4571931.029 5
  23805185.943    24848292.859 6  12133683.864 5
  22380459.370   -12069743.598 8  -9384850.164 9
  21639722.452     7891708.627 8  -2167149.796 9
  24516731.560    -5591966.134 5  -3547904.600 3
 94  3 24 20 40 30.0020000  0  7 16 27 31 18  2 19  7
  24882826.478    -2180647.760 5  -1809671.942 2
  21064561.717   -17360177.122 8 -13483368.300 9
  23510474.397    -5068387.650 6  -4508490.993 5
  23827295.307    24964459.227 6  12224203.015 5
  22374274.172   -12102261.734 8  -9410188.956 9
  21647022.968     7930070.377 8  -2137257.544 9
  24498441.642    -5688119.579 5  -3622829.195 3
 94  3 24 20 41  0.0020000  0  7 16 27 31 18  2 19  7
  24891009.373    -2137587.035 5  -1776118.187 2
  21062389.481   -17371581.091 8 -13492254.509 9
  23526047.536    -4986522.285 6  -4444699.827 5
  23849440.076    25080848.812 6  12314896.097 5
  22368140.389   -12134498.681 8  -9435308.633 9
  21654372.230     7968693.480 8  -2107161.634 9
  24480170.221    -5784125.200 5  -3697638.616 3
 94  3 24 20 41 30.0020000  0  7 16 27 31 18  2 19  7
  24899301.632    -2094084.924 5  -1742220.500 2
  21060289.495   -17382625.629 8 -13500860.654 9
  23541718.018    -4904197.776 6  -4380550.882 5
  23871625.707    25197446.438 6  12405751.257 5
  22362059.698   -12166447.639 8  -9460203.911 9
  21661776.924     8007580.407 8  -2076860.169 9
  24461931.147    -5879977.393 5  -3772328.479 3
 94  3 24 20 42  0.0020000  0  7 16 27 31 18  2 19  7
  24907664.673    -2050147.875 5  -1707983.853 2
  21058259.600   -17393297.613 8 -13509176.489 9
  23557470.493    -4821395.778 6  -4316029.871 5
  23893851.990    25314221.864 6  12496744.976 5
  22356035.069   -12198103.377 8  -9484870.711 9
  21669225.238     8046756.669 8  -2046333.215 9
  24443721.694    -5975671.122 5  -3846894.840 3
 94  3 24 20 42 30.0020000  0  7 16 27 31 18  2 19  7
  24916104.820    -2005778.886 5  -1673410.704 2
  21056294.161   -17403603.958 8 -13517207.412 9
  23573317.072    -4738107.367 6  -4251129.855 5
  23916100.878    25431165.856 6  12587870.037 5
  22350060.685   -12229486.210 8  -9509324.839 9
  21676741.184     8086244.135 8  -2015563.779 9
  24425533.975    -6071210.954 5  -3921341.351 3
 94  3 24 20 43  0.0020000  0  7 16 27 31 18  2 19  7
  24924603.246    -1960988.610 4  -1638509.263 2
  21054399.682   -17413566.957 8 -13524970.787 9
  23589260.395    -4654327.272 6  -4185846.700 5
  23938395.184    25548270.093 6  12679119.971 5
  22344136.726   -12260614.209 8  -9533580.402 9
  21684312.263     8126038.833 8  -1984554.951 9
  24407393.473    -6166612.099 5  -3995679.727 3
 94  3 24 20 43 30.0020000  0  7 16 27 31 18  2 19  7
  24933238.198    -1915774.849 5  -1603277.772 2
  21052563.723   -17423214.512 8 -13532488.367 9
  23605296.323    -4570066.627 6  -4120189.103 5
  23960698.094    25665532.941 6  12770493.514 4
  22338266.760   -12291488.057 8  -9557637.918 9
  21691944.289     8166140.793 8  -1953306.686 9
  24389260.676    -6261887.354 5  -4069919.991 3
 94  3 24 20 44  0.0020000  0  7 16 27 31 18  2 19  7
  24941905.408    -1870150.498 5  -1567726.370 2
  21050786.464   -17432566.235 8 -13539775.444 9
  23621414.035    -4485359.664 6  -4054183.718 5
  23983046.782    25782964.595 6  12861998.536 4
  22332438.465   -12322103.545 8  -9581494.129 9
  21699629.739     8206530.333 8  -1921834.346 9
  24371143.798    -6357040.842 5  -4144065.416 3
 94  3 24 20 44 30.0020000  0  7 16 27 31 18  2 19  7
  24950672.209    -1824131.363 5  -1531867.382 2
  21049060.379   -17441620.141 8 -13546830.432 9
  23637613.920    -4400215.785 6  -3987837.859 5
  24005423.021    25900583.339 6  12953649.375 4
  22326660.565   -12352458.065 8  -9605146.967 9
  21707367.562     8247183.833 8  -1890156.306 9
  24353058.369    -6452084.071 5  -4218124.923 3
 94  3 24 20 45  0.0020000  0  7 16 27 31 18  2 19  7
  24959505.084    -1777718.046 5  -1495701.210 2
  21047402.766   -17450361.975 8 -13553642.256
  23653893.610    -4314659.618 6  -3921170.777 5
  24027851.065    26018398.317 6  13045453.118 4
  22320938.546   -12382537.751 8  -9628585.664 9
  21715154.911     8288100.628 8  -1858273.111 9
  24335004.747    -6547023.286 5  -4292103.377 3
 94  3 24 20 45 30.0020000  0  7 16 27 31 18  2 19  7
  24968394.080    -1730916.579 5  -1459232.624 2
  21045792.311   -17458801.635 8 -13560218.618
  23670255.653    -4228709.540 6  -3854196.722 5
  24050303.781    26136412.117 6  13137411.818 4
  22315265.633   -12412345.290 8  -9651812.294 9
  21722987.469     8329285.183 8  -1826181.280 9
  24316946.718    -6641871.894 5  -4366011.232 3
 94  3 24 20 46  0.0020000  0  7 16 27 31 18  2 19  7
  24977397.537    -1683727.670 5  -1422462.104 2
  21044242.534   -17466936.797 8 -13566557.700
  23686689.526    -4142347.407 6  -3786901.592 5
  24072811.509    26254624.290 6  13229525.074 4
  22309643.985   -12441886.821 8  -9674831.638 9
  21730881.214     8370753.304 8  -1793868.468 9
  24298918.519    -6736620.297 5  -4439841.009 4
 94  3 24 20 46 30.0020000  0  7 16 27 31 18  2 19  7
  24986415.834    -1636142.383 4  -1385382.701 2
  21042753.285   -17474764.575 8 -13572657.272 1
  23703206.951    -4055551.533 6  -3719268.492 5
  24095334.197    26373016.370 6  13321778.487 4
  22304072.162   -12471179.530 8  -9697657.095 9
  21738831.230     8412523.849 8  -1761320.003 9
  24280912.354    -6831255.787 6  -4513582.808 4
 94  3 24 20 47  0.0020000  0  7 16 27 31 18  2 19  7
  24995587.445    -1588151.960 5  -1347987.621 3
  21041323.185   -17482296.602 9 -13578526.407
  23719803.222    -3968329.166 6  -3651303.050 5
  24117883.717    26491572.505 6  13414159.747 4
  22298538.713   -12500235.678 8  -9720298.224 9
  21746839.826     8454608.092 8  -1728527.111 9
  24262924.717    -6925763.571 5  -4587225.078 4
 94  3 24 20 47 30.0020000  0  7 16 27 31 18  2 19  7
  25004796.110    -1539759.472 5  -1310279.265 3
  21039943.330   -17489543.870 8 -13584173.617 1
  23736480.976    -3880670.196 6  -3582997.389 5
  24140482.492    26610275.632 6  13506655.539 4
  22293058.807   -12529053.387 8  -9742753.557 9
  21754903.224     8496995.344 8  -1695498.093 9
  24244968.048    -7020127.344 5  -4660755.150 4
 94  3 24 20 48  0.0020000  0  7 16 27 31 18  2 19  7
  25014070.190    -1490980.823 5  -1272269.974 3
  21038621.006   -17496491.187 9 -13589587.115 1
  23753242.762    -3792591.706 6  -3514364.835 5
  24163082.076    26729102.562 6  13599247.791 4
  22287617.903   -12557642.088 8  -9765030.434 9
  21763023.133     8539664.409 8  -1662249.492 9
  24227043.007    -7114335.243 5  -4734163.753 4
 94  3 24 20 48 30.0020000  0  7 16 27 31 18  2 19  7
  25023419.367    -1441816.705 5  -1233960.330 3
  21037358.730   -17503119.648 8 -13594752.156 1
  23770082.914    -3704119.187 6  -3445425.256 4
  24185721.863    26848042.447 6  13691928.089 4
  22282220.949   -12585998.978 8  -9787126.694 9
  21771195.805     8582600.713 8  -1628792.647 9
  24209136.224    -7208389.449 5  -4807452.552 4
 94  3 24 20 49  0.0020000  0  7 16 27 31 18  2 19  7
  25032845.322    -1392276.340 5  -1195357.536 3
  21036158.900   -17509421.069 8 -13599662.348 1
  23786992.468    -3615254.646 6  -3376180.219 5
  24208372.652    26967101.525 5  13784701.238 4
  22276870.104   -12614106.379 8  -9809028.540 9
  21779419.442     8625799.398 8  -1595131.358 9
  24191272.491    -7302300.758 5  -4880630.049 4
 94  3 24 20 49 30.0020000  0  7 16 27 31 18  2 19  7
  25042356.987    -1342368.674 5  -1156468.483 2
  21035023.047   -17515391.895 8 -13604314.950 1
  23803977.989    -3525992.087 6  -3306625.015 5
  24231064.393    27086283.133 6  13877569.870 4
  22271573.520   -12641953.814 8  -9830727.812 9
  21787689.666     8669273.436 8  -1561255.485 9
  24173430.492    -7396067.190 6  -4953694.662 4
 94  3 24 20 50  0.0020000  0  7 16 27 31 18  2 19  7
  25051914.610    -1292093.888 5  -1117293.397 2
  21033950.479   -17521022.234 8 -13608702.225 1
  23821040.467    -3436326.879 6  -3236756.069 4
  24253753.766    27205589.032 5  13970535.337 4
  22266323.945   -12669543.760 8  -9852226.446 9
  21796020.119     8713041.081 8  -1527150.866 9
  24155614.246    -7489691.514 5  -5026648.521 4
 94  3 24 20 50 30.0020000  0  8 16 27 31 18  2 19 26  7
  25061541.066    -1241471.510 5  -1077847.416 2
  21032941.767   -17526339.613 9 -13612845.628 1
  23838179.272    -3346269.977 6  -3166581.889 4
  24276496.531    27325005.548 6  14063587.012 4
  22261119.098   -12696882.816 8  -9873529.574 9
  21804401.207     8757095.533 8  -1492822.741 9
  25717205.159     -878526.15615   -796741.471 2
  24137813.439    -7583200.157 5  -5099512.233 4
 94  3 24 20 51  0.0020000  0  8 16 27 31 18  2 19 26  7
  25071247.177    -1190510.945 5  -1038137.953 2
  21031985.280   -17531368.778 9 -13616764.461 1
  23855392.246    -3255825.916 6  -3096106.036 4
  24299232.162    27444536.737 6  14156728.040 4
  22255963.267   -12723979.793 8  -9894644.075 9
  21812836.498     8801433.293 8  -1458273.867 9
  25701173.488     -962814.539 5   -862420.705 2
  24120043.391    -7676596.281 5  -5172288.269 4
 94  3 24 20 51 30.0020000  0  8 16 27 31 18  2 19 26  7
  25081005.601    -1139192.391 5   -998149.568 2
  21031085.213   -17536093.525 9 -13620446.090 1
  23872671.923    -3164990.774 6  -3025325.453 4
  24322017.138    27564196.718 6  14249969.395 4
  22250854.534   -12750829.105 8  -9915565.604 9
  21821329.048     8846063.534 8  -1423497.077 9
  25685142.836    -1046935.349 4   -927969.329 2
  24102291.871    -7769862.369 6  -5244962.965 4
 94  3 24 20 52  0.0020000  0  8 16 27 31 18  2 19 26  7
  25090847.308    -1087496.746 5   -957867.264 2
  21030251.850   -17540481.411 8 -13623865.223 1
  23890034.643    -3073758.404 6  -2954235.340 4
  24344795.819    27684012.609 5  14343332.269 4
  22245792.328   -12777427.642 8  -9936291.707 9
  21829877.600     8890981.701 8  -1388495.924 9
  25669179.007    -1130864.431 5   -993368.630 2
  24084574.016    -7862983.918 6  -5317525.089 4
 94  3 24 20 52 30.0020000  0  8 16 27 31 18  2 19 26  7
  25100763.723    -1035431.050 5   -917296.693 2
  21029479.284   -17544534.884 8 -13627023.770 1
  23907470.872    -2982143.890 6  -2882847.448 4
  24367641.263    27803993.259 6  14436823.521 4
  22240773.713   -12803782.382 8  -9956827.848 9
  21838476.757     8936181.800 8  -1353275.096 9
  25653251.364    -1214596.034 5  -1058614.014 2
  24066888.150    -7955952.702 6  -5389968.154 4
 94  3 24 20 53  0.0020000  0  8 16 27 31 18  2 19 26  7
  25110731.792     -983001.880 5   -876442.834 2
  21028773.513   -17548250.206 8 -13629918.839 2
  23924974.435    -2890141.866 6  -2811157.595 4
  24390500.108    27924134.568 6  14530439.947 4
  22235804.983   -12829904.613 8  -9977182.818 9
  21847137.042     8981665.551 8  -1317833.231 9
  25637349.412    -1298119.787 5  -1123697.410 2
  24049224.378    -8048760.573 6  -5462285.803 4
 94  3 24 20 53 30.0020000  0  8 16 27 31 18  2 19 26  7
  25120777.867     -930223.344 4   -835316.791 2
  21028125.662   -17551623.565 8 -13632547.440 2
  23942554.834    -2797757.149 6  -2739169.553 4
  24413372.204    28044417.044 5  14624166.379 4
  22230877.384   -12855804.757 8  -9997364.728 9
  21855843.434     9027423.918 8  -1282177.373 9
  25621501.184    -1381444.655 5  -1188625.862 2
  24031597.421    -8141399.634 6  -5534471.978 4
 94  3 24 20 54  0.0020000  0  8 16 27 31 18  2 19 26  7
  25130890.676     -877115.777 5   -793934.321 2
  21027548.231   -17554670.653 8 -13634921.798 2
  23960203.137    -2705006.434 6  -2666896.325 4
  24436304.079    28164821.185 6  14717987.605 4
  22225989.568   -12881486.257 8 -10017376.274 9
  21864599.773     9073450.450 8  -1246312.585 9
  25605667.645    -1464596.806 5  -1253419.720 2
  24014002.212    -8233861.599 6  -5606520.104 4
 94  3 24 20 54 30.0020000  0  8 16 27 31 18  2 19 26  7
  25141046.236     -823683.120 4   -752298.564 2
  21027030.879   -17557406.881 8 -13637053.930 2
  23977928.456    -2611879.660 6  -2594330.044 4
  24459219.495    28285307.554 5  14811872.952 4
  22221144.412   -12906938.605 8 -10037209.250 9
  21873410.943     9119760.541 8  -1210226.810 9
  25589875.808    -1547585.718 5  -1318086.353 2
  23996441.899    -8326144.651 6  -5678428.880 4
 94  3 24 20 55  0.0020000  0  8 16 27 31 18  2 19 26  7
  25151279.352     -769920.784 5   -710405.890 2
  21026567.850   -17559829.905 8 -13638941.998 2
  23995724.046    -2518369.019 6  -2521464.681 4
  24482169.327    28405859.067 5  14905808.975 3
  22216351.690   -12932154.661 8 -10056858.091 9
  21882280.842     9166354.523 8  -1173919.828 9
  25574103.067    -1630412.489 5  -1382626.685 2
  23978913.753    -8418249.295 6  -5750198.577 4
 94  3 24 20 55 30.0020000  0  8 16 27 31 18  2 19 26  7
  25161583.488     -715827.975 5   -668255.692 2
  21026165.049   -17561946.505 8 -13640591.291 2
  24013581.214    -2424498.491 6  -2448318.885 4
  24505128.423    28526475.377 6  14999795.546 3
  22211597.701   -12957135.914 8 -10076323.989 9
  21891197.210     9213230.229 8  -1137393.335 9
  25558393.762    -1713084.540 5  -1447046.417 2
  23961418.855    -8510183.928 6  -5821835.791 4
 94  3 24 20 56  0.0020000  0  8 16 27 31 18  2 19 26  7
  25171933.793     -661413.189 4   -625854.630 2
  21025817.769   -17563759.676 8 -13642004.183 2
  24031515.098    -2330276.421 6  -2374899.134 4
  24528067.822    28647156.532 5  15093832.588 3
  22206884.604   -12981880.683 8 -10095605.617 9
  21900174.105     9260396.685 8  -1100640.273 9
  25542668.898    -1795598.329 5  -1511342.849 2
  23943946.321    -8601981.421 6  -5893366.184 4
 94  3 24 20 56 30.0020000  0  8 16 27 31 18  2 19 26  7
  25182342.737     -606681.493 5   -583206.650 2
  21025530.748   -17565268.604 8 -13643179.972 2
  24049509.241    -2235698.189 6  -2301201.860 4
  24551076.443    28767904.100 5  15187921.420 3
  22202218.544   -13006407.518 8 -10114717.411 9
  21909205.802     9307851.572 8  -1063662.480 9
  25527003.393    -1877940.136 5  -1575505.303 2
  23926502.447    -8693664.708 6  -5964807.599 4
 94  3 24 20 57  0.0020000  0  8 16 27 31 18  2 19 26  7
  25192815.717     -551643.938 5   -540320.270 2
  21025302.756   -17566477.898 8 -13644122.277 2
  24067570.807    -2140794.891 6  -2227251.300 4
  24574076.071    28888735.444 6  15282075.516 3
  22197591.187   -13030724.772 8 -10133665.898 9
  21918284.867     9355568.908 8  -1026480.162 9
  25511383.697    -1960114.112 5  -1639536.930 2
  23909077.040    -8785234.899 6  -6036160.868 5
 94  3 24 20 57 30.0020000  0  8 16 27 31 18  2 19 26  7
  25203352.522     -496299.673 5   -497194.978 2
  21025128.546   -17567384.508 8 -13644828.743 1
  24085689.724    -2045577.981 6  -2153056.383 4
  24597075.219    29009648.280 5  15376293.088 3
  22193003.463   -13054832.446 8 -10152451.090 9
  21927415.466     9403540.524 8   -989099.712 9
  25495758.334    -2042118.822 5  -1703436.676 2
  23891677.326    -8876692.168 6  -6107426.161 5
 94  3 24 20 58  0.0020000  0  8 16 27 31 18  2 19 26  7
  25213947.128     -440641.297 5   -453824.893 2
  21025015.285   -17567984.525 8 -13645296.287 1
  24103873.636    -1950037.533 6  -2078609.298 4
  24620090.136    29130626.201 5  15470561.412 3
  22188456.331   -13078724.240 8 -10171068.042 9
  21936587.976     9451750.439 8   -951533.567 9
  25480194.578    -2123945.027 5  -1767197.311 2
  23874297.548    -8968018.052 6  -6178589.065 5
 94  3 24 20 58 30.0020000  0  8 16 27 31 18  2 19 26  7
  25224600.582     -384656.939 5   -410200.801 2
  21024957.875   -17568272.934 8 -13645521.032 1
  24122111.180    -1854179.422 6  -2003914.754 4
  24643124.720    29251668.742 5  15564880.062 3
  22183952.939   -13102397.099 8 -10189514.422 9
  21945805.005     9500185.787 8   -913791.746 9
  25464656.785    -2205586.496 5  -1830814.037 2
  23856952.635    -9059173.728 6  -6249619.372 5
 94  3 24 20 59  0.0020000  0  8 16 27 31 18  2 19 26  7
  25235326.227     -328342.694 5   -366319.648 2
  21024968.937   -17568249.083 8 -13645502.471 1
  24140406.884    -1758021.481 6  -1928986.548 4
  24666175.132    29372772.913 5  15659246.726 3
  22179487.920   -13125839.106 8 -10207780.908 9
  21955064.065     9548842.381 8   -875877.558 9
  25449171.455    -2287050.106 5  -1894292.160 2
  23839635.724    -9150146.832 6  -6320507.415 5
 94  3 24 20 59 30.0020000  0  8 16 27 31 18  2 19 26  7
  25246090.155     -271692.720 5   -322176.883 2
  21025027.966   -17567902.236 8 -13645232.180 1
  24158774.478    -1661543.665 6  -1853809.089 4
  24689230.881    29493943.493 5  15753665.117 3
  22175075.904   -13149048.367 8 -10225866.016 9
  21964371.032     9597738.630 8   -837776.590 9
  25433700.306    -2368318.142 5  -1957617.835 2
  23822357.335    -9240933.575 6  -6391250.173 5
 94  3 24 21  0  0.0020000  0  8 16 27 31 18  2 19 26  7
  25256948.668     -214714.741 5   -277778.580 2
  21025158.586   -17567234.605 8 -13644711.958 1
  24177189.230    -1564741.676 6  -1778379.052 4
  24712280.394    29615189.806 5  15848142.570 3
  22170703.222   -13172032.773 8 -10243775.928 9
  21973721.559     9646885.707 8   -799480.202 9
  25418265.641    -2449392.032 5  -2020792.292 2
  23805112.074    -9331530.385 5  -6461845.014 5
 94  3 24 21  0 30.0020000  0  8 16 27 31 18  2 19 26  7
  25267826.158     -157425.815 4   -233137.900 2
  21025346.316   -17566239.870 8 -13643936.847
  24195679.290    -1467617.192 6  -1702697.702 4
  24735378.054    29736516.128 5  15942682.357 3
  22166365.135   -13194800.674 8 -10261517.138 9
  21983127.278     9696303.156 8   -760973.146 9
  25402884.849    -2530272.001 5  -2083815.604 2
  23787913.820    -9421947.026 6  -6532299.409 5
 94  3 24 21  1  0.0020000  0  8 16 27 31 18  2 19 26  7
  25278798.262      -99828.313 5   -188256.799 2
  21025599.520   -17564916.420 8 -13642905.587 9
  24214217.016    -1370147.229 6  -1626747.131 4
  24758491.993    29857919.242 5  16037281.962 3
  22162079.691   -13217348.047 8 -10279086.489 9
  21992582.372     9746002.279 8   -722246.596 9
  25387538.113    -2610942.435 5  -2146675.670 2
  23770741.588    -9512187.020 6  -6602616.193 5
 94  3 24 21  1 30.0020000  0  8 16 27 31 18  2 19 26  7
  25289823.310      -41928.594 5   -143140.226 2
  21025918.529   -17563256.453 8 -13641612.127 9
  24232836.976    -1272316.935 6  -1550515.800 4
  24781591.631    29979392.687 5  16131936.366 3
  22157827.375   -13239680.125 8 -10296488.089 9
  22002098.024     9795998.228 8   -683288.743 9
  25372222.676    -2691386.701 5  -2209359.511 2
  23753606.440    -9602233.504 6  -6672782.170 5
 94  3 24 21  2  0.0020000  0  8 16 27 31 18  2 19 26  7
  25300895.395       16285.863 5    -97778.388 2
  21026300.345   -17561238.405 8 -13640039.620 9
  24251523.999    -1174111.940 6  -1473992.491 4
  24804737.198    30100950.367 5  16226656.406 3
  22153622.606   -13261771.084 8 -10313701.804 9
  22011674.865     9846326.000 8   -644072.335 9
  25356955.715    -2771580.493 5  -2271848.149 2
  23736509.307    -9692062.662 6  -6742778.823 5
 94  3 24 21  2 30.0020000  0  8 16 27 31 18  2 19 26  7
  25312045.006       74840.996 5    -52151.090 2
  21026754.261   -17558838.788 8 -13638169.801 9
  24270289.268    -1075509.819 6  -1397159.724 4
  24827889.989    30222606.854 5  16321453.435 3
  22149472.159   -13283588.120 8 -10330702.064 9
  22021317.899     9897012.501 8   -604576.390 9
  25341757.047    -2851484.198 5  -2334110.732 2
  23719464.486    -9781639.941 6  -6812579.189 5
 94  3 24 21  3  0.0020000  0  8 16 27 31 18  2 19 26  7
  25323223.187      133755.295 4     -6243.930 2
  21027287.682   -17556051.063 8 -13635997.554 9
  24289129.036     -976502.816 6  -1320011.509 3
  24851079.566    30344390.185 5  16416349.297 3
  22145378.044   -13305113.621 8 -10347475.175 9
  22031037.170     9948075.846 8   -564786.802 9
  25326613.151    -2931078.601 5  -2396132.299 2
  23702464.545    -9870942.243 6  -6882165.310 5
 94  3 24 21  3 30.0020000  0  8 16 27 31 18  2 19 26  7
  25334526.083      193015.424 5     39932.687 2
  21027892.093   -17552871.438 8 -13633519.928 9
  24308036.916     -877118.653 6  -1242569.322 3
  24874253.613    30466295.499 5  16511340.220 3
  22141336.841   -13326350.065 8 -10364023.037 9
  22040826.593     9999519.304 8   -524701.027 9
  25311499.593    -3010376.069 5  -2457922.551 2
  23685537.094    -9959976.964 6  -6951542.917 5
 94  3 24 21  4  0.0020000  0  8 16 27 31 18  2 19 26  7
  25345845.556      252599.517 4     86361.794 2
  21028567.136   -17549314.962 8 -13630748.649 9
  24327016.777     -777388.870 6  -1164857.896 3
  24897485.459    30588307.858 5  16606414.550 3
  22137348.283   -13347306.447 8 -10380352.655 9
  22050684.279    10051316.993 7   -484339.229 9
  25296489.495    -3089405.004 5  -2519503.476 2
  23668638.273   -10048774.141 6  -7020735.411 5
 94  3 24 21  4 30.0020000  0  8 16 27 31 18  2 19 26  7
  25357248.192      312479.721 4    133021.609 2
  21029315.058   -17545394.701 8 -13627693.891 9
  24346061.302     -677342.427 6  -1086899.667 3
  24920708.133    30710401.861 5  16701552.505 3
  22133406.611   -13368010.625 8 -10396485.759 9
  22060598.086    10103427.878 7   -443733.368 9
  25281488.899    -3168192.763 5  -2580896.522 2
  23651772.728   -10137347.834 6  -7089753.783 5
 94  3 24 21  5  0.0020000  0  8 16 27 31 18  2 19 26  7
  25368697.476      372624.474 4    179887.544 2
  21030131.543   -17541100.823 8 -13624348.033 9
  24365150.347     -577004.157 5  -1008714.088 3
  24943973.377    30832569.808 6  16796748.063 3
  22129514.586   -13388475.116 8 -10412432.099 9
  22070571.012    10155830.284 7   -402900.352 9
  25266540.168    -3246757.061 5  -2642115.451 2
  23634961.417   -10225704.088 6  -7158602.721 5
 94  3 24 21  5 30.0020000  0  8 16 27 31 18  2 19 26  7
  25380159.111      433026.588 3    226954.027 2
  21031019.438   -17536427.071 8 -13620706.153 9
  24384303.548     -476376.791 6   -930303.209 3
  24967228.667    30954799.639 6  16891991.868 3
  22125666.630   -13408700.590 8 -10428192.200 9
  22080593.643    10208513.255 7   -361848.721 9
  25251634.307    -3325093.475 5  -2703156.773 2
  23618189.348   -10313840.125 6  -7227280.030 5
 94  3 24 21  6  0.0020000  0  8 16 27 31 18  2 19 26  7
  25391740.274      493702.405 4    274233.783 2
  21031980.993   -17531372.250 8 -13616767.342 9
  24403502.317     -375447.197 6   -851656.877 3
  24990496.909    31077101.334 5  16987291.617 3
  22121857.047   -13428692.232 8 -10443770.083 9
  22090672.036    10261477.660 7   -320577.774 9
  25236776.173    -3403179.427 5  -2764002.925 2
  23601460.869   -10401740.150 6  -7295773.465 5
 94  3 24 21  6 30.0020000  0  8 16 27 31 18  2 19 26  7
  25403348.957      554669.487 5    321740.512 2
  21033019.893   -17525932.988 8 -13612528.954 9
  24422772.017     -274202.528 5   -772764.937 3
  25013784.637    31199475.530 5  17082647.903 2
  22118094.922   -13448463.217 8 -10459176.031 9
  22100807.689    10314723.384 7   -279087.636 9
  25221982.825    -3480992.266 6  -2824636.263 2
  23584786.172   -10489386.464 6  -7364069.180 5
 94  3 24 21  7  0.0020000  0  8 16 27 31 18  2 19 26  7
  25415006.177      615942.030 5    369485.256 2
  21034120.881   -17520121.109 8 -13608000.231 9
  24442097.088     -172639.412 5   -693624.959 3
  25037091.672    31321911.187 6  17178052.075 3
  22114379.084   -13468014.584 8 -10474410.854 9
  22110996.526    10368256.539 7   -237373.522 9
  25207221.284    -3558525.668 6  -2885051.883 2
  23568156.685   -10576782.579 6  -7432169.962 5
 94  3 24 21  7 30.0020000  0  8 16 27 31 18  2 19 26  7
  25426738.046      677543.616 4    417486.400 2
  21035297.327   -17513966.663 8 -13603204.565 9
  24461485.986      -70743.969 6   -614225.977 3
  25060404.583    31444390.929 5  17273490.572 3
  22110700.481   -13487348.030 8 -10489475.859 9
  22121237.136    10422087.198 7   -195427.582 9
  25192520.841    -3635781.039 6  -2945250.859 2
  23551570.907   -10663947.050 6  -7500090.227 5
 94  3 24 21  8  0.0020000  0  8 16 27 31 18  2 19 26  7
  25438501.032      739472.081 4    465742.264 2
  21036534.090   -17507456.970 8 -13598132.081 9
  24480943.236       31479.320 6   -534571.510 3
  25083715.095    31566910.232 6  17368959.882 3
  22107064.448   -13506461.451 8 -10504369.427 9
  22131538.125    10476216.948 7   -153248.594 9
  25177858.171    -3712772.709 6  -3005244.308 2
  23535026.830   -10750881.779 6  -7567831.485 5
 94  3 24 21  8 30.0020000  0  8 16 27 31 18  2 19 26  7
  25450358.663      801723.774 4    514249.991 2
  21037840.736   -17500578.696 8 -13592772.374 9
  24500461.553      134040.120 5   -454654.076 3
  25107036.131    31689475.097 5  17464464.745 3
  22103470.416   -13525328.321 8 -10519070.864 9
  22141896.914    10530650.371 7   -110832.973 9
  25163258.818    -3789511.155 5  -3065040.467 2
  23518528.621   -10837579.559 6  -7635388.088 5
 94  3 24 21  9  0.0020000  0  8 16 27 31 18  2 19 26  7
  25462264.021      864281.774 5    562996.393 2
  21039221.190   -17493324.179 8 -13587119.516 9
  24520046.605      236936.494 5   -374475.161 3
  25130355.967    31812099.403 5  17560015.867 3
  22099930.586   -13543922.918 8 -10533560.162 9
  22152317.010    10585403.068 7    -68168.572 9
  25148676.583    -3866004.368 5  -3124645.524 3
  23502074.003   -10924036.299 6  -7702756.876 6
 94  3 24 21  9 30.0030000  0  8 16 27 31 18  2 19 26  7
  25474213.179      927123.225 4    611963.627 2
  21040677.162   -17485687.463 8 -13581168.828 9
  24539679.563      340156.722 6   -294043.873 3
  25153698.647    31934796.323 4  17655623.576 3
  22096441.872   -13562252.627 8 -10547843.039 9
  22162793.078    10640466.284 7    -25262.201 9
  25134174.423    -3942256.202 5  -3184062.491 3
  23485666.182   -11010261.888 6  -7769945.541 6
 94  3 24 21 10  0.0030000  0  8 16 27 31 18  2 19 26  7
  25486215.430      990219.211 4    661129.253 2
  21042202.356   -17477660.371 8 -13574913.961 9
  24559376.647      443672.369 5   -213382.412 3
  25177077.422    32057560.026 5  17751283.342 3
  22093002.832   -13580332.294 8 -10561931.086 9
  22173325.446    10695818.336 7     17869.219 9
  25119726.375    -4018262.664 5  -3243288.305 3
  23469300.092   -11096242.210 6  -7836943.105 6
 94  3 24 21 10 30.0030000  0  8 16 27 31 18  2 19 26  7
  25498288.222     1053580.102 4    710501.246 2
  21043805.017   -17469252.530 8 -13568362.392 9
  24579136.148      547493.588 5   -132482.805 3
  25200438.809    32180391.372 5  17846995.774 3
  22089612.330   -13598157.604 8 -10575820.923 9
  22183914.775    10751459.896 7     61226.237 9
  25105312.894    -4094003.375 5  -3302306.960 3
  23452991.172   -11181971.027 6  -7903744.697 6
 94  3 24 21 11  0.0030000  0  8 16 27 31 18  2 19 26  7
  25510395.880     1117219.245 4    760090.132 2
  21045475.221   -17460459.710 8 -13561510.849 9
  24598953.989      651616.894 5    -51347.869 3
  25223834.073    32303282.337 5  17942754.693 3
  22086268.355   -13615724.322 8 -10589509.257 9
  22194560.735    10807404.546 7    104819.432 9
  25090958.531    -4169449.983 6  -3361096.514 3
  23436725.423   -11267434.270 6  -7970339.347 6
 94  3 24 21 11 30.0030000  0  8 16 27 31 18  2 19 26  7
  25522561.219     1181134.743 4    809894.295 2
  21047218.604   -17451303.551 8 -13554376.189 9
  24618811.521      756013.416 5     30000.019 3
  25247221.212    32426189.859 5  18038526.486 3
  22082967.040   -13633060.452 8 -10603017.919 9
  22205261.258    10863627.082 7    148629.167 9
  25076663.167    -4244613.195 6  -3419665.201 3
  23420506.441   -11352646.409 6  -8036738.308 6
 94  3 24 21 12  0.0030000  0  8 16 27 31 18  2 19 26  7
  25534746.553     1245317.489 4    859906.730 2
  21049026.562   -17441804.194 8 -13546974.092 9
  24638726.225      860665.674 5    111547.146 3
  25270609.941    32549089.687 5  18134292.319 2
  22079712.763   -13650167.837 8 -10616348.341 9
  22216012.205    10920119.333 7    192649.060 9
  25062391.907    -4319506.072 5  -3478023.274 3
  23404336.745   -11437602.956 6  -8102938.146 6
 94  3 24 21 12 30.0030000  0  8 16 27 31 18  2 19 26  7
  25547049.166     1309766.775 5    910126.873 2
  21050900.715   -17431958.935 8 -13539302.465 9
  24658696.600      965578.639 5    193297.416 3
  25293992.523    32671978.394 5  18230049.469 2
  22076502.465   -13667036.081 8 -10629492.412 9
  22226815.406    10976896.420 7    236890.910 9
  25048197.454    -4394115.338 5  -3536160.341 3
  23388217.834   -11522298.454 6  -8168934.556 6
 94  3 24 21 13  0.0030000  0  8 16 27 31 18  2 19 26  7
  25559366.859     1374499.525 4    960567.864 2
  21052846.997   -17421725.253 8 -13531328.172 9
  24678714.222     1070775.022 5    275268.577 3
  25317392.854    32794900.771 5  18325832.887 2
  22073345.891   -13683646.032 8 -10642435.212 9
  22237686.270    11034008.482 7    281393.767 9
  25034053.845    -4468402.785 5  -3594046.644 3
  23372156.033   -11606699.548 6  -8234701.554 6
 94  3 24 21 13 30.0030000  0  8 16 27 31 18  2 19 26  7
  25571705.896     1439520.015 3   1011233.083 2
  21054875.753   -17411069.220 8 -13523024.777 9
  24698794.380     1176280.408 6    357480.501 3
  25340795.672    32917899.841 5  18421676.002 2
  22070232.696   -13699983.599 8 -10655165.770 9
  22248617.513    11091478.724 7    326175.742 9
  25019991.420    -4542349.856 6  -3651667.696 3
  23356162.585   -11690793.811 6  -8300229.474 6
 94  3 24 21 14  0.0030000  0  8 16 27 31 18  2 19 26  7
  25584155.947     1504796.979 4   1062098.143 2
  21056980.895   -17399990.922 8 -13514392.365 9
  24718925.354     1282095.864 5    439934.035 3
  25364196.782    33040983.748 4  18517585.220 2
  22067177.001   -13716056.425 8 -10667690.037 9
  22259626.161    11149311.450 7    371240.170 8
  25005981.309    -4615958.787 5  -3709025.269 3
  23340214.106   -11774596.107 6  -8365529.880 6
 94  3 24 21 14 30.0030000  0  8 16 27 31 18  2 19 26  7
  25596622.007     1570324.519 4   1113158.469 2
  21059170.819   -17388492.394 8 -13505432.468 9
  24739125.280     1388215.998 5    522624.954 3
  25387642.621    33164139.606 4  18613550.516 2
  22064164.537   -13731879.815 8 -10680019.933 9
  22270699.536    11207504.911 7    416585.685 8
  24992037.423    -4689242.661 6  -3766129.542 3
  23324324.356   -11858120.241 6  -8430613.546 6
 94  3 24 21 15  0.0030000  0  8 16 27 31 18  2 19 26  7
  25609125.751     1636114.040 4   1164422.896 2
  21061442.827   -17376567.813 8 -13496140.601 9
  24759374.312     1494634.986 5    605548.777 3
  25411094.995    33287365.619 4  18709570.495 2
  22061200.938   -13747449.717 8 -10692152.314 9
  22281841.352    11266052.577 7    462207.218 8
  24978145.310    -4762207.719 5  -3822985.422 3
  23308486.950   -11941363.123 6  -8495478.055 6
 94  3 24 21 15 30.0030000  0  8 16 27 31 18  2 19 26  7
  25621718.234     1702165.619 4   1215891.561 2
  21063787.593   -17364238.615 8 -13486533.441 9
  24779680.334     1601353.493 5    688706.019 3
  25434566.796    33410637.956 5  18805626.554 2
  22058288.485   -13762763.309 8 -10704084.966 9
  22293047.894    11324940.130 7    508093.593 8
  24964332.702    -4834879.458 6  -3879612.713 4
  23292700.809   -12024326.264 6  -8560124.591 6
 94  3 24 21 16  0.0030000  0  8 16 27 31 18  2 19 26  7
  25634323.007     1768483.567 4   1267567.753 2
  21066209.647   -17351519.748 8 -13476622.645 9
  24800043.767     1708349.775 5    772079.657 3
  25458013.804    33533927.329 4  18901695.857 2
  22055423.578   -13777832.795 8 -10715827.403 9
  22304312.236    11384152.913 7    554233.382 8
  24950551.213    -4907259.105 6  -3936012.417 4
  23276967.221   -12106993.309 6  -8624540.378 6
 94  3 24 21 16 30.0030000  0  8 16 27 31 18  2 19 26  7
  25647009.325     1835078.549 4   1319459.844 2
  21068698.613   -17338415.209 8 -13466411.330 9
  24820457.745     1815611.431 5    855660.085 3
  25481489.442    33657221.228 5  18997768.706 2
  22052597.015   -13792668.726 8 -10727387.850 9
  22315637.915    11443667.491 7    600608.341 8
  24936830.312    -4979340.850 5  -3992179.977 4
  23261291.703   -12189358.183 6  -8688720.737 6
 94  3 24 21 17  0.0030000  0  7 27 31 18  2 19 26  7
  21071265.407   -17324937.768 8 -13455909.433 9
  24840916.331     1923132.732 5    939442.827 3
  25504952.459    33780507.310 5  19093835.467 2
  22049822.735   -13807287.545 8 -10738779.128 9
  22327016.448    11503452.585 7    647194.081 8
  24923175.365    -5051123.897 6  -4048114.778 4
  23245669.908   -12271439.353 6  -8752680.015 6
 94  3 24 21 17 30.0030000  0  7 27 31 18  2 19 26  7
  21073901.452   -17311094.806 8 -13445122.727 9
  24861423.365     2030914.356 5   1023428.457 3
  25528405.673    33903782.062 5  19189893.429 2
  22047070.251   -13821704.417 8 -10750013.037 9
  22338444.567    11563498.120 7    693982.787 8
  24909576.419    -5122604.225 6  -4103813.712 4
  23230101.206   -12353236.769 6  -8816418.199 6
 94  3 24 21 18  0.0030000  0  7 27 31 18  2 19 26  7
  21076608.098   -17296863.765 8 -13434033.615 9
  24881977.585     2138955.822 5   1107616.530 3
  25551860.175    34027051.020 5  19285946.824 2
  22044370.410   -13835915.763 8 -10761086.807 9
  22349919.812    11623801.349 7    740972.267 8
  24896037.612    -5193753.596 6  -4159254.754 4
  23214595.190   -12434750.635 6  -8879935.404 6
 94  3 24 21 18 30.0030000  0  7 27 31 18  2 19 26  7
  21079391.611   -17282243.824 8 -13422641.474 9
  24902593.803     2247264.417 5   1192012.704 3
  25575317.526    34150315.469 5  19381996.742 2
  22041701.538   -13849918.193 8 -10771997.773 9
  22361443.835    11684372.474 7    788170.520 8
  24882558.253    -5264584.705 6  -4214447.810 4
  23199133.184   -12515995.249 7  -8943242.827 6
 94  3 24 21 19  0.0030000  0  7 27 31 18  2 19 26  7
  21082245.725   -17267235.946 8 -13410947.038 9
  24923253.940     2355833.588 5   1276612.027 3
  25598770.020    34273570.947 4  19478039.615 2
  22039082.521   -13863707.481 8 -10782742.666 9
  22373022.449    11745234.235 7    835595.222 8
  24869137.055    -5335116.385 6  -4269407.489 4
  23183726.070   -12596969.359 7  -9006339.461 6
 94  3 24 21 19 30.0030000  0  7 27 31 18  2 19 26  7
  21085174.278   -17251838.405 8 -13398948.955 9
  24943963.723     2464635.007 5   1361392.287 3
  25622221.855    34396799.278 5  19574061.403 2
  22036497.500   -13877283.770 8 -10793321.591 9
  22384663.660    11806404.895 7    883260.629 8
  24855774.016    -5405358.178 6  -4324141.337 4
  23168373.039   -12677665.172 7  -9069219.264 6
 94  3 24 21 20  0.0030000  0  7 27 31 18  2 19 26  7
  21088178.708   -17236061.878 8 -13386655.581 9
  24964701.926     2573644.112 5   1446334.303 3
  25645656.991    34519990.149 5  19670053.946 2
  22033954.001   -13890648.850 8 -10803735.924 9
  22396364.230    11867886.044 7    931167.971 8
  24842446.082    -5475322.692 5  -4378659.122 4
  23153063.658   -12758089.762 7  -9131887.703 6
 94  3 24 21 20 30.0030000  0  7 27 31 18  2 19 26  7
  21091252.240   -17219920.589 8 -13374077.960 9
  24985483.330     2682843.349 5   1531424.578 3
  25669099.262    34643139.901 5  19766014.472 2
  22031454.092   -13903803.977 8 -10813986.677 9
  22408130.244    11929677.195 7    979316.873 8
  24829182.844    -5545021.365 5  -4432969.758 4
  23137808.658   -12838243.148 7  -9194344.816 6
 94  3 24 21 21  0.0030000  0  7 27 31 18  2 19 26  7
  21094389.388   -17203415.251 8 -13361216.683 9
  25006298.550     2792225.430 5   1616657.306 2
  25692528.613    34766253.221 5  19861946.593 2
  22028989.798   -13916739.574 8 -10824066.354 9
  22419939.459    11991770.755 7   1027701.436 8
  24815989.368    -5614430.374 6  -4487054.658 4
  23122605.913   -12918120.480 6  -9256586.830 6
 94  3 24 21 21 30.0030000  0  7 27 31 18  2 19 26  7
  21097603.463   -17186540.402 8 -13348067.451 9
  25027145.218     2901796.496 5   1702037.252 3
  25715942.763    34889340.073 5  19957858.075 2
  22026569.363   -13929452.116 8 -10833972.223 9
  22431814.358    12054158.722 7   1076315.400 8
  24802842.959    -5683519.451 6  -4540890.287 4
  23107462.587   -12997714.628 7  -9318608.158 6
 94  3 24 21 22  0.0030000  0  7 27 31 18  2 19 26  7
  21100884.572   -17169300.738 8 -13334633.948 9
  25048035.086     3011562.072 5   1787568.798 3
  25739360.152    35012411.066 4  20053757.232 2
  22024190.690   -13941953.728 8 -10843713.739 9
  22443737.014    12116823.827 7   1125145.329 8
  24789746.076    -5752280.958 6  -4594470.637 4
  23092369.026   -13077034.457 7  -9380415.775 6
 94  3 24 21 22 30.0030000  0  7 27 31 18  2 19 26  7
  21104238.500   -17151691.759 8 -13320912.694 9
  25068961.349     3121534.473 5   1873261.474 3
  25762778.979    35135439.248 5  20149622.912 2
  22021852.189   -13954260.132 8 -10853303.137 9
  22455713.633    12179752.694 7   1174180.756 8
  24776730.586    -5820714.610 6  -4647795.543 4
  23077328.378   -13156087.191 7  -9442015.224 7
 94  3 24 21 23  0.0030000  0  6 27 31  2 19 26  7
  21107659.881   -17133701.484 8 -13306894.306 9
  25089924.277     3231730.549 5   1959128.465 2
  22019538.751   -13966378.802 8 -10862746.246 9
  22467736.390    12242946.899 7   1223422.961 8
  24763774.066    -5888819.594 6  -4700864.330 4
  23062334.648   -13234862.503 6  -9503398.518 7
 94  3 24 21 23 30.0030000  0  6 27 31  2 19 26  7
  21111151.264   -17115321.904 8 -13292572.570 9
  25110944.765     3342158.247 5   2045175.942 3
  22017270.521   -13978318.225 8 -10872049.688 9
  22479821.204    12306402.695 7   1272869.005 8
  24750858.947    -5956605.885 6  -4753684.796 4
  23047397.699   -13313356.161 7  -9564562.339 7
 94  3 24 21 24  0.0030000  0  6 27 31  2 19 26  7
  21114725.150   -17096555.859 8 -13277949.688 9
  25132010.551     3452820.415 5   2131406.121 2
  22015030.172   -13990074.200 8 -10881210.173 9
  22491938.845    12370116.669 7   1322516.189 8
  24738021.444    -6024088.741 6  -4806268.832 4
  23032520.258   -13391563.614 7  -9625503.142 7
 94  3 24 21 24 30.0030000  0  6 27 31  2 19 26  7
  21118366.909   -17077413.560 8 -13263033.629 9
  25153106.976     3563710.380 5   2217813.803 3
  22012835.091   -14001633.932 8 -10890217.745 9
  22504111.258    12434088.989 7   1372364.720 8
  24725252.294    -6091278.755 6  -4858624.674 4
  23017687.067   -13469485.657 6  -9686221.557 7
 94  3 24 21 25  0.0030000  0  6 27 31  2 19 26  7
  21122084.725   -17057896.006 8 -13247825.159 9
  25174246.572     3674804.169 5   2304380.283 2
  22010677.275   -14012980.731 8 -10899059.402 9
  22516333.197    12498325.480 7   1422419.111 8
  24712508.326    -6158169.566 6  -4910747.375 4
  23002914.793   -13547123.004 7  -9746718.136 7
 94  3 24 21 25 30.0030000  0  6 27 31  2 19 26  7
  21125869.575   -17038002.723 8 -13232323.915 9
  25195426.459     3786087.115 5   2391094.177 2
  22008552.766   -14024110.219 8 -10907731.718 9
  22528608.049    12562835.128 7   1472686.309 8
  24699834.720    -6224751.302 6  -4962629.209 4
  22988194.414   -13624472.775 7  -9806990.610 7
 94  3 24 21 26  0.0030000  0  6 27 31  2 19 26  7
  21129726.585   -17017733.070 8 -13216529.395 9
  25216624.094     3897548.068 5   2477946.818 2
  22006477.573   -14035029.353 8 -10916240.135 9
  22540937.224    12627629.880 7   1523175.681 8
  24687234.473    -6291011.058 6  -5014260.187 4
  22973529.556   -13701536.042 7  -9867039.860 7
 94  3 24 21 26 30.0030000  0  6 27 31  2 19 26  7
  21133658.962   -16997057.994 8 -13200418.950 9
  25237882.737     4009199.019 5   2564947.451 2
  22004441.832   -14045728.453 8 -10924577.085 9
  22553332.952    12692741.744 7   1573912.161 8
  24674691.517    -6356908.059 6  -5065608.474 4
  22958919.051   -13778296.714 7  -9926853.304 7
 94  3 24 21 27  0.0030000  0  6 27 31  2 19 26  7
  21137674.742   -16975946.242 8 -13183968.251 9
  25259164.554     4121056.652 5   2652109.158 2
  22002447.762   -14056209.938 8 -10932744.464 9
  22565784.562    12758199.188 7   1624917.917 8
  24662220.390    -6422413.211 6  -5116651.404 4
  22944381.066   -13854722.902 7  -9986406.132 7
 94  3 24 21 27 30.0030000  0  6 27 31  2 19 26  7
  21141777.762   -16954391.328 8 -13167172.239 9
  25280489.571     4233135.572 5   2739443.306 2
  22000490.687   -14066490.125 8 -10940754.988 9
  22578305.994    12824009.550 7   1676198.687 8
  24649833.835    -6487519.775 6  -5167383.799 4
  22929905.077   -13930794.078 7 -10045682.317 7
 94  3 24 21 28  0.0030000  0  6 27 31  2 19 26  7
  21145965.323   -16932394.786 8 -13150032.084 9
  25301871.009     4345428.990 5   2826944.538 2
  21998572.705   -14076569.002 8 -10948608.654 9
  22590898.986    12890167.260 7   1727750.109 8
  24637528.014    -6552222.235 6  -5217801.253 4
  22915499.150   -14006507.170 7 -10104679.484 7
 94  3 24 21 28 30.0030000  0  6 27 31  2 19 26  7
  21150233.348   -16909960.068 8 -13132550.517 9
  25323268.936     4457931.752 5   2914608.982 2
  21996698.073   -14086426.659 8 -10956289.940 9
  22603553.975    12956669.626 7   1779570.085 7
  24625287.398    -6616535.400 6  -5267915.395 4
  22901163.315   -14081842.633 7 -10163382.396 8
 94  3 24 21 29  0.0030000  0  6 27 31  2 19 26  7
  21154581.838   -16887109.382 8 -13114744.799 9
  25344703.077     4570629.671 5   3002425.454 2
  21994864.212   -14096058.762 8 -10963795.468 9
  22616268.953    13023487.498 7   1831635.927 7
  24613118.403    -6680481.584 6  -5317743.563 4
  22886901.468   -14156790.045 7 -10221782.919 8
 94  3 24 21 29 30.0030000  0  7 27 31 15  2 19 26  7
  21159008.393   -16863832.071 8 -13096606.652 9
  25366194.929     4683554.377 4   3090418.652 2
  25199518.596     -156624.22715   -114689.676
  21993083.595   -14105414.271 8 -10971085.453 9
  22629047.486    13090632.030 7   1883956.297 7
  24601016.111    -6744041.138 6  -5367270.416 4
  22872716.638   -14231321.404 7 -10279859.244 8
 94  3 24 21 30  0.0030000  0  7 27 31 15  2 19 26  7
  21163525.066   -16840101.904 8 -13078115.632 9
  25387736.336     4796732.882 4   3178609.566 2
  25190744.900     -202722.062 4   -150609.972 1
  21991363.116   -14114438.285 8 -10978117.159 9
  22641891.315    13158129.773 7   1936551.887 7
  24589010.352    -6807195.334 6  -5416481.495 4
  22858618.478   -14305412.346 7 -10337592.405 8
 94  3 24 21 30 30.0030000  0  7 27 31 15  2 19 26  7
  21168131.587   -16815917.235 8 -13059270.454 9
  25409329.727     4910174.212 5   3267005.325 2
  25182041.895     -248429.182 4   -186225.834 1
  21989712.639   -14123134.047 8 -10984893.076 9
  22654803.796    13225971.099 7   1989415.219 7
  24577058.706    -6869948.446 6  -5465379.976 4
  22844607.018   -14379073.264 7 -10394990.481 8
 94  3 24 21 31  0.0030000  0  7 27 31 15  2 19 26  7
  21172819.292   -16791277.149 8 -13040070.394 9
  25430968.357     5023873.854 5   3355602.376 2
  25173427.749     -293757.202 5   -221546.247 2
  21988116.034   -14131524.617 8 -10991431.170 9
  22667774.946    13294141.886 7   2042535.263 7
  24565209.469    -6932296.588 6  -5513962.945 4
  22830656.326   -14452337.124 7 -10452079.162 8
 94  3 24 21 31 30.0030000  0  7 27 31 15  2 19 26  7
  21177598.614   -16766163.931 8 -13020501.668 9
  25452659.151     5137824.145 4   3444394.678 2
  25164864.507     -338721.454 4   -256583.227 2
  21986569.135   -14139631.156 8 -10997747.958 9
  22680807.554    13362651.887 7   2095919.643 7
  24553407.390    -6994248.965 6  -5562237.529 4
  22816782.800   -14525237.055 7 -10508884.250 8
 94  3 24 21 32  0.0030000  0  7 27 31 15  2 19 26  7
  21182466.464   -16740581.848 8 -13000567.584 9
  25474383.941     5251986.711 4   3533352.454 2
  25156375.134     -383343.172 4   -291353.327 2
  21985074.999   -14147497.444 8 -11003877.524 9
  22693909.833    13431494.607 7   2149563.289 7
  24541703.252    -7055808.066 6  -5610205.596 4
  22802975.469   -14597807.717 7 -10565432.802 8
 94  3 24 21 32 30.0030000  0  7 27 31 15  2 19 26  7
  21187418.016   -16714550.592 8 -12980283.503 9
  25496143.687     5366341.476 5   3622459.966 2
  25147944.430     -427643.410 5   -325872.939 2
  21983615.789   -14155163.406 8 -11009850.990 9
  22707069.253    13500652.279 7   2203452.312 7
  24530054.637    -7116976.477 6  -5657869.284 4
  22789224.978   -14670069.612 7 -10621740.741 8
 94  3 24 21 33  0.0030000  0  7 27 31 15  2 19 26  7
  21192459.356   -16688073.531 8 -12959652.044 9
  25517935.601     5480867.913 5   3711701.227 2
  25139584.238     -471625.038 4   -360144.249 2
  21982193.634   -14162639.552 8 -11015676.561 9
  22720289.471    13570137.705 7   2257596.762 7
  24518490.352    -7177765.055 6  -5705237.000 4
  22775533.636   -14742020.783 7 -10677806.543 8
 94  3 24 21 33 30.0030000  0  7 27 31 15  2 19 26  7
  21197579.091   -16661171.340 8 -12938689.316 9
  25539747.781     5595544.845 5   3801059.802 2
  25131266.226     -515278.601 4   -394159.915 2
  21980808.443   -14169934.663 8 -11021361.058 9
  22733577.981    13639958.352 7   2312002.413 7
  24506992.712    -7238162.321 6  -5752299.762 4
  22761903.542   -14813644.419 7 -10733617.143 8
 94  3 24 21 34  0.0030000  0  7 27 31 15  2 19 26  7
  21202774.375   -16633858.988 8 -12917406.968 9
  25561599.503     5710384.240 4   3890544.942 2
  25123027.720     -558572.765 5   -427895.545 2
  21979460.426   -14177026.949 9 -11026887.518 9
  22746929.538    13710118.210 7   2366672.385 7
  24495580.153    -7298134.687 6  -5799031.490 4
  22748341.891   -14884900.000 7 -10789140.932 8
 94  3 24 21 34 30.0030000  0  7 27 31 15  2 19 26  7
  21208053.090   -16606120.313 8 -12895792.441 9
  25583496.434     5825413.516 5   3980178.061 2
  25114863.532     -601483.595 5   -461332.492 2
  21978147.905   -14183889.021 8 -11032234.572 9
  22760354.844    13780616.629 7   2421606.186 7
  24484257.561    -7357671.859 6  -5845424.046 4
  22734861.453   -14955749.004 7 -10844347.905 8
 94  3 24 21 35  0.0030000  0  7 27 31 15  2 19 26  7
  21213410.801   -16577964.351 8 -12873852.754 9
  25605410.753     5940609.508 4   4069941.093 2
  25106770.784     -644014.062 4   -494473.016 2
  21976891.714   -14190521.261 9 -11037402.557 9
  22773822.301    13851433.874 7   2476788.394 7
  24473005.001    -7416782.827 6  -5891484.536 4
  22721458.002   -15026182.673 7 -10899231.248 8
 94  3 24 21 35 30.0030000  0  7 27 31 15  2 19 26  7
  21218843.460   -16549413.118 8 -12851605.044 9
  25627370.910     6055971.462 5   4159833.423 2
  25098742.402     -686175.122 4   -527325.705 2
  21975671.739   -14196922.340 9 -11042390.407 9
  22787357.121    13922537.408 7   2532193.700 7
  24461846.366    -7475463.264 6  -5937209.510 4
  22708135.345   -15096209.741 7 -10953797.749 8
 94  3 24 21 36  0.0030000  0  6 27 15  2 19 26  7
  21224357.873   -16520443.217 8 -12829031.115 9
  25090797.153     -727972.507 4   -559895.024 2
  21974498.141   -14203081.355 9 -11047189.619 9
  22800934.691    13993917.099 7   2587814.194 7
  24450750.508    -7533726.158 6  -5982609.144 4
  22694882.120   -15165838.762 7 -11008054.101 8
 94  3 24 21 36 30.0030000  0  6 27 15  2 19 26  7
  21229957.636   -16491027.207 8 -12806109.549 9
  25082900.649     -769407.197 4   -592181.708 3
  21973371.192   -14209001.122 9 -11051802.429 9
  22814573.090    14065586.318 7   2643660.292 7
  24439740.510    -7591584.880 6  -6027693.846 4
  22681704.623   -15235085.583 7 -11062012.618 9
 94  3 24 21 37  0.0030000  0  6 27 15  2 19 26  7
  21235636.185   -16461175.437 8 -12782848.452 9
  25075083.381     -810488.002 4   -624192.591 3
  21972289.540   -14214697.183 9 -11056240.914 9
  22828268.239    14137562.919 7   2699745.915 7
  24428805.040    -7649054.872 6  -6072475.668 4
  22668597.756   -15303974.581 7 -11115692.322 9
 94  3 24 21 37 30.0030000  0  6 27 15  2 19 26  7
  21241398.916   -16430887.628 8 -12759247.600 9
  25067340.731     -851217.603 4   -655929.896 3
  21971245.213   -14220179.617 9 -11060512.941 9
  22842022.717    14209861.534 7   2756082.442 7
  24417948.236    -7706143.028 6  -6116959.914 4
  22655556.664   -15372517.436 7 -11169102.298 9
 94  3 24 21 38  0.0030000  0  6 27 15  2 19 26  7
  21247246.038   -16400157.928 8 -12735302.376 9
  25059658.939     -891595.404 4   -687393.015 3
  21970238.061   -14225472.394 9 -11064637.172 9
  22855853.582    14282482.175 7   2812669.911 7
  24407154.029    -7762868.888 6  -6161161.873 4
  22642578.379   -15440712.572 7 -11222241.305 9
 94  3 24 21 38 30.0030000  0  6 27 15  2 19 26  7
  21253172.965   -16369001.102 8 -12711024.348 9
  25052032.549     -931619.160 4   -718580.276 2
  21969264.874   -14230593.139 9 -11068627.354 9
  22869731.844    14355411.532 7   2869497.913 7
  24396419.270    -7819231.454 6  -6205080.734 4
  22629668.806   -15508539.061 7 -11275093.065 9
 94  3 24 21 39  0.0030000  0  6 27 15  2 19 26  7
  21259183.174   -16337421.404 8 -12686416.797 9
  25044483.955     -971282.854 4   -749486.988 2
  21968323.286   -14235531.385 9 -11072475.333 9
  22883662.930    14428638.395 7   2926557.770 7
  24385768.844    -7875206.349 6  -6248697.526 4
  22616836.400   -15575969.562 7 -11327636.257 9
 94  3 24 21 39 30.0030000  0  6 27 15  2 19 26  7
  21265274.417   -16305412.794 8 -12661475.043 9
  25037021.880    -1010575.895 4   -780104.865 2
  21967419.292   -14240270.821 9 -11076168.392 9
  22897653.704    14502140.558 7   2983832.112 7
  24375195.793    -7930775.156 6  -6291997.878 4
  22604086.796   -15642986.183 7 -11379856.950 9
 94  3 24 21 40  0.0030000  0  6 27 15  2 19 26  7
  21271451.640   -16272959.233 8 -12636186.584 9
  25029618.236    -1049490.016 4   -810427.505 2
  21966561.556   -14244801.489 9 -11079698.802 9
  22911688.548    14575904.948 7   3041310.800 7
  24364692.624    -7985934.545 6  -6334979.213 4
  22591407.494   -15709596.216 7 -11431760.823 9
 94  3 24 21 40 30.0030000  0  6 27 15  2 19 26  7
  21277715.234   -16240050.093 8 -12610543.106 9
  25022279.526    -1088010.818 4   -840443.607 2
  21965743.752   -14249091.873 9 -11083041.943 9
  22925774.956    14649958.725 7   3099014.975 6
  24354279.603    -8040654.474 6  -6377618.089 4
  22578812.014   -15775795.962 7 -11483344.991 9
 94  3 24 21 41  0.0030000  0  6 27 15  2 19 26  7
  21284063.939   -16206678.129 8 -12584538.992 9
  25015023.679    -1126119.907 4   -870138.961 2
  21964978.442   -14253111.798 9 -11086174.346 9
  22939934.814    14724341.562 7   3156975.570 6
  24343961.286    -8094921.352 6  -6419903.961 4
  22566294.000   -15841598.938 7 -11534619.975 9
 94  3 24 21 41 30.0030000  0  6 27 15  2 19 26  7
  21290504.740   -16172839.074 8 -12558170.924 9
  25007850.156    -1163814.508 4   -899511.313 2
  21964266.675   -14256862.889 9 -11089097.274 9
  22954154.689    14799065.832 7   3215202.221 6
  24333722.265    -8148744.392 6  -6461843.961 4
  22553839.932   -15907026.134 7 -11585602.160 9
 94  3 24 21 42  0.0030000  0  6 27 15  2 19 26  7
  21297034.910   -16138520.485 8 -12531429.193 9
  25000761.353    -1201081.468 5   -928550.429 2
  21963602.844   -14260342.356 9 -11091808.544 9
  22968446.335    14874160.816 7   3273717.729 6
  24323570.692    -8202098.442 6  -6503418.539 4
  22541464.199   -15972063.613 7 -11636280.675 9
 94  3 24 21 42 30.0030000  0  6 27 15  2 19 26  7
  21303651.539   -16103742.850 8 -12504329.751 9
  24993754.993    -1237918.130 4   -957254.287 2
  21962991.897   -14263546.817 9 -11094305.524 9
  22982812.000    14949643.471 7   3332535.320 6
  24313503.092    -8254968.175 6  -6544615.711 4
  22529166.922   -16036688.754 7 -11686637.894 9
 94  3 24 21 43  0.0030000  0  6 27 15  2 19 26  7
  21310356.517   -16068501.885 8 -12476869.274 9
  24986825.621    -1274325.586 5   -985623.692 2
  21962434.943   -14266488.478 9 -11096597.721 9
  22997238.943    15025500.607 7   3391644.715 6
  24303536.612    -8307368.827 6  -6585447.366 5
  22516946.752   -16100896.898 7 -11736670.172 9
 94  3 24 21 43 30.0030000  0  6 27 15  2 19 26  7
  21317154.431   -16032784.359 8 -12449037.460 9
  24979982.498    -1310303.836 5  -1013658.647 2
  21961921.668   -14269188.080 9 -11098701.299 9
  23011749.677    15101716.985 7   3451034.034 6
  24293653.354    -8359292.612 6  -6625907.474 5
  22504811.213   -16164670.931 7 -11786364.193 9
 94  3 24 21 44  0.0030000  0  6 27 15  2 19 26  7
  21324038.985   -15996612.710 8 -12420851.790 9
  24973218.910    -1345858.799 4  -1041363.813 2
  21961451.114   -14271667.512 9 -11100633.336 9
  23026315.364    15178279.805 7   3510693.320 6
  24283860.123    -8410752.792 6  -6666006.292 5
  22492759.557   -16228006.490 7 -11835716.533 9
 94  3 24 21 44 30.0030000  0  6 27 15  2 19 26  7
  21331006.701   -15959997.261 8 -12392320.283 9
  24966523.076    -1380998.201 4  -1068745.072 2
  21961014.286   -14273936.099 9 -11102401.051 9
  23040945.505    15255172.473 7   3570609.629 6
  24274152.124    -8461778.191 6  -6705766.322 5
  22480788.364   -16290909.512 7 -11884731.840 9
 94  3 24 21 45  0.0030000  0  6 27 15  2 19 26  7
  21338057.520   -15922938.458 8 -12363443.331 9
  24959905.877    -1415732.282 4  -1095810.557 2
  21960619.849   -14276018.204 9 -11104023.476 9
  23055625.862    15332354.378 7   3630751.301 6
  24264513.587    -8512383.060 6  -6745198.685 5
  22468900.064   -16353398.824 7 -11933424.778 9
 94  3 24 21 45 30.0030000  0  6 27 15  2 19 26  7
  21345194.170   -15885453.943 8 -12334234.634 9
  24953388.149    -1450067.469 5  -1122565.204 2
  21960255.751   -14277923.509 9 -11105508.134 9
  23070373.013    15409806.101 7   3691103.232 6
  24254974.910    -8562561.166 6  -6784298.497 5
  22457084.734   -16415483.205 7 -11981802.171 9
 94  3 24 21 46  0.0030000  0  6 27 15  2 19 26  7
  21352403.309   -15847553.865 8 -12304702.118 9
  24946918.208    -1484003.859 5  -1149009.133 2
  21959934.644   -14279631.577 9 -11106839.094 9
  23085162.495    15487517.981 7   3751657.882 6
  24245502.428    -8612321.843 6  -6823073.029 5
  22445345.820   -16477167.050 7 -12029867.474 9
 94  3 24 21 46 30.0030000  0  6 27 15  2 19 26  7
  21359693.962   -15809219.717 8 -12274831.375 9
  24940545.939    -1517529.281 5  -1175132.799 2
  21959648.192   -14281123.392 9 -11108001.536 9
  23100003.960    15565499.617 7   3812422.745 6
  24236117.335    -8661648.399 6  -6861509.308 5
  22433685.453   -16538431.461 7 -12077605.938 9
 94  3 24 21 47  0.0030000  0  6 27 15  2 19 26  7
  21367075.901   -15770457.430 8 -12244627.018 9
  24934240.824    -1550646.467 5  -1200938.362 2
  21959406.739   -14282410.095 9 -11109004.175 9
  23114900.797    15643752.015 7   3873398.559 6
  24226807.550    -8710540.300 6  -6899606.879 5
  22422105.100   -16599286.873 7 -12125025.702 9
 94  3 24 21 47 30.0030000  0  6 27 15  2 19 26  7
  21374529.761   -15731270.791 8 -12214091.997 9
  24928026.786    -1583353.985 5  -1226424.684 2
  21959201.591   -14283483.765 9 -11109840.799 9
  23129832.620    15722299.607 6   3934604.414 6
  24217584.765    -8759006.203 6  -6937372.508 5
  22410605.571   -16659736.315 7 -12172129.134 9
 94  3 24 21 48  0.0030000  0  6 27 15  2 19 26  7
  21382073.169   -15691652.333 8 -12183220.478 9
  24921881.790    -1615641.783 5  -1251583.967 2
  21959034.966   -14284334.211 9 -11110503.479 9
  23144845.477    15801159.798 7   3996053.845 6
  24208445.952    -8807040.378 6  -6974801.717 5
  22399180.720   -16719763.020 7 -12218903.162 9
 94  3 24 21 48 30.0030000  0  6 27 15  2 19 26  7
  21389690.236   -15651608.695 8 -12152017.640 9
  24915809.314    -1647519.662 5  -1276423.837 2
  21958911.662   -14284994.794 9 -11111018.224 9
  23159901.024    15880320.728 6   4057737.621 6
  24199395.757    -8854637.023 6  -7011890.008 5
  22387835.104   -16779381.751 7 -12265359.281 9
 94  3 24 21 49  0.0030000  0  6 27 15  2 19 26  7
  21397392.863   -15611135.419 8 -12120480.064 9
  24909825.667    -1678988.758 5  -1300945.190 2
  21958822.773   -14285465.638 9 -11111385.118 9
  23175029.031    15959769.046 7   4119645.305 6
  24190413.885    -8901785.803 6  -7048629.297 5
  22376567.405   -16838609.948 7 -12311511.086 9
 94  3 24 21 49 30.0030000  0  6 27 15  2 19 26  7
  21405175.775   -15570232.093 8 -12088607.351 9
  24903901.977    -1710049.624 5  -1325148.420 2
  21958770.040   -14285743.739 9 -11111601.818 9
  23190202.157    16039496.167 6   4181770.287 6
  24181542.097    -8948476.137 6  -7085011.357 5
  22365368.897   -16897444.162 7 -12357355.913 9
 94  3 24 21 50  0.0030000  0  6 27 15  2 19 26  7
  21413038.912   -15528899.947 8 -12056400.519 9
  24898073.652    -1740707.664 5  -1349037.765 2
  21958746.836   -14285846.495 9 -11111681.898 9
  23205422.320    16119500.296 6   4244111.085 6
  24172735.993    -8994709.014 6  -7121036.973 5
  22354245.998   -16955889.324 7 -12402897.559 9
 94  3 24 21 50 30.0030000  0  6 27 15  2 19 26  7
  21420994.534   -15487119.819 8 -12023844.584 9
  24892320.875    -1770952.186 5  -1372604.884 2
  21958762.215   -14285771.375 9 -11111623.351 9
  23220709.277    16199799.728 6   4306681.997 6
  24164025.104    -9040478.856 6  -7156701.769 5
  22343198.526   -17013944.425 7 -12448135.277 9
 94  3 24 21 51  0.0030000  0  6 27 15  2 19 26  7
  21429027.173   -15444899.081 8 -11990945.327 9
  24886648.682    -1800786.512 5  -1395852.388 2
  21958811.231   -14285511.590 9 -11111420.916 9
  23236051.007    16280403.837 6   4369490.331 6
  24155406.310    -9085805.342 6  -7192021.095 5
  22332225.132   -17071601.037 7 -12493062.476 9
 94  3 24 21 51 30.0030000  0  6 27 15  2 19 26  7
  21437140.576   -15402254.943 8 -11957716.157 9
  24881047.120    -1830222.560 5  -1418789.471 2
  21958895.713   -14285083.954 9 -11111087.698 9
  23251441.242    16361304.195 6   4432529.487 6
  24146852.542    -9130720.449 6  -7227019.863 5
  22321333.402   -17128866.971 7 -12537685.259 9
 94  3 24 21 52  0.0030000  0  6 27 15  2 19 26  7
  21445333.395   -15359203.691 8 -11924169.734 9
  24875511.482    -1859273.906 5  -1441426.826 2
  21959003.428   -14284504.791 9 -11110636.396 9
  23266876.716    16442468.405 6   4495774.262 6
  24138379.118    -9175245.922 6  -7261715.031 5
  22310506.638   -17185752.826 7 -12582011.875 9
 94  3 24 21 52 30.0030000  0  6 27 15  2 19 26  7
  21453601.671   -15315751.578 8 -11890310.973 9
  24870059.936    -1887939.850 5  -1463763.909 2
  21959143.162   -14283771.992 9 -11110065.405 9
  23282365.674    16523855.841 6   4559192.976 6
  24129989.096    -9219372.107 6  -7296099.062 5
  22299755.810   -17242253.289 8 -12626038.170 9
 94  3 24 21 53  0.0030000  0  6 27 15  2 19 26  7
  21461946.034   -15271901.812 8 -11856142.358 9
  24864688.644    -1916208.958 5  -1485791.705 2
  21959315.512   -14282872.350 9 -11109364.382 9
  23297898.670    16605450.303 6   4622772.986 6
  24121666.528    -9263085.625 6  -7330161.540 5
  22289082.000   -17298351.183 8 -12669750.780 9
 94  3 24 21 53 30.0030000  0  6 27 15  2 19 26  7
  21470367.144   -15227655.148 8 -11821664.462 9
  24859375.123    -1944074.329 5  -1507504.934 3
  21959519.941   -14281809.632 9 -11108536.295 9
  23313454.241    16687237.620 6   4686503.299 6
  24113432.098    -9306372.041 6  -7363891.219 5
  22278477.981   -17354058.165 7 -12713158.784 9
 94  3 24 21 54  0.0030000  0  6 27 15  2 19 26  7
  21478859.995   -15183007.636 8 -11786874.224 9
  24854147.672    -1971531.798 5  -1528900.343 2
  21959750.181   -14280592.216 9 -11107587.660 9
  23329062.186    16769218.126 6   4750384.121 6
  24105268.510    -9349215.080 6  -7397275.401 5
  22267952.777   -17409368.788 8 -12756257.946 9
 94  3 24 21 54 30.0030000  0  6 27 15  2 19 26  7
  21487433.429   -15137961.910 8 -11751773.677 9
  24848995.558    -1998580.891 5  -1549977.501 2
  21960008.662   -14279232.204 9 -11106527.910 9
  23344701.010    16851415.356 6   4814433.817 5
  24097205.562    -9391621.274 6  -7430319.175 5
  22257501.053   -17464298.516 8 -12799060.303 9
 94  3 24 21 55  0.0030000  0  6 27 15  2 19 26  7
  21496084.810   -15092510.680 8 -11716357.167 9
  24843934.492    -2025214.986 5  -1570731.275 3
  21960298.142   -14277716.481 9 -11105346.821 9
  23360391.428    16933873.235 6   4878686.652 5
  24089213.485    -9433602.713 6  -7463031.984 5
  22247118.490   -17518845.383 7 -12841564.335 9
 94  3 24 21 55 30.0030000  0  6 27 15  2 19 26  7
  21504815.396   -15046631.613 8 -11680607.253 9
  24838955.119    -2051422.199 5  -1591152.417 3
  21960615.772   -14276039.500 9 -11104040.072 9
  23376142.104    17016619.747 6   4943164.387 5
  24081314.493    -9475157.034 6  -7495411.970 5
  22236813.814   -17572999.703 8 -12883762.465 9
 94  3 24 21 56  0.0030000  0  6 27 15  2 19 26  7
  21513628.665   -15000306.517 8 -11644509.796 9
  24834044.639    -2077178.950 5  -1611222.602 3
  21960971.836   -14274174.820 9 -11102587.089 9
  23391952.648    17099693.551 6   5007897.144 5
  24073483.794    -9516260.584 6  -7527440.713 5
  22226591.461   -17626724.638 8 -12925626.013 9
 94  3 24 21 56 30.0030000  0  6 27 15  2 19 26  7
  21522529.623   -14953538.242 8 -11608067.035 9
  24829235.098    -2102471.572 5  -1630931.086 3
  21961365.433   -14272100.899 9 -11100971.043 9
  23407821.412    17183116.671 6   5072902.076 5
  24065759.821    -9556900.212 6  -7559107.946 5
  22216452.090   -17680004.101 8 -12967142.423 9
 94  3 24 21 57  0.0030000  0  6 27 15  2 19 26  7
  21531515.902   -14906311.906 8 -11571267.300 9
  24824509.560    -2127277.658 5  -1650260.471 3
  21961808.916   -14269786.350 9 -11099167.497 9
  23423760.538    17266891.832 6   5138181.355 5
  24058119.970    -9597038.614 6  -7590384.620 5
  22206406.195   -17732808.400 8 -13008288.595 9
 94  3 24 21 57 30.0030000  0  6 27 15  2 19 26  7
  21540583.245   -14858646.660 8 -11534125.560 9
  24819880.344    -2151598.320 5  -1669211.563 3
  21962290.832   -14267253.635 9 -11097193.958 9
  23439766.307    17350994.402 6   5203715.732 5
  24050578.181    -9636652.071 6  -7621252.250 5
  22196446.340   -17785135.532 8 -13049062.952 9
 94  3 24 21 58  0.0030000  0  6 27 15  2 19 26  7
  21549734.349   -14810574.760 8 -11496666.988 9
  24815348.322    -2175449.050 5  -1687796.510 3
  21962807.195   -14264521.735 9 -11095065.195 9
  23455830.446    17435397.159 6   5269484.040 5
  24043132.806    -9675746.890 6  -7651715.725 5
  22186577.412   -17837009.094 8 -13089483.880 9
 94  3 24 21 58 30.0030000  0  6 27 15  2 19 26  7
  21558959.743   -14762094.129 8 -11458889.888 9
  24810894.515    -2198840.301 5  -1706023.441 3
  21963364.719   -14261599.031 9 -11092787.783 9
  23471942.732    17520063.918 6   5335458.054 5
  24035797.454    -9714346.687 6  -7681793.489 5
  22176790.747   -17888444.116 8 -13129563.092 9
 94  3 24 21 59  0.0030000  0  6 27 15  2 19 26  7
  21568265.510   -14713196.957 8 -11420788.227 9
  24806522.522    -2221770.576 5  -1723891.125 3
  21963958.818   -14258481.363 9 -11090358.431 9
  23488101.785    17604983.499 6   5401629.084 5
  24028540.228    -9752467.491 6  -7711498.010 5
  22167082.868   -17939441.738 8 -13169301.462 9
 94  3 24 21 59 30.0030000  0  6 27 15  2 19 26  7
  21577655.580   -14663854.736 8 -11382339.783 9
  24802261.961    -2244221.327 5  -1741385.196 3
  21964590.091   -14255153.891 9 -11087765.603 9
  23504313.842    17690179.556 6   5468015.539 5
  24021376.117    -9790110.652 6  -7740830.343 5
  22157464.626   -17989986.786 8 -13208687.183 9
 94  3 24 22  0  0.0030000  0  6 27 15  2 19 26  7
  21587137.626   -14614032.464 8 -11343517.263 9
  24798082.615    -2266181.367 5  -1758496.897 3
  21965268.461   -14251587.229 9 -11084986.380 9
  23520588.435    17775670.852 6   5534632.061 5
  24014303.504    -9827283.352 6  -7769796.089 5
  22147932.875   -18040077.492 8 -13247718.864 9
 94  3 24 22  0 30.0030000  0  6 27 15  2 19 26  7
  21596708.380   -14563724.584 8 -11304316.356 9
  24793994.375    -2287659.277 5  -1775232.889 3
  21965991.710   -14247788.341 9 -11082026.199 9
  23536905.809    17861452.848 6   5601475.112 5
  24007319.479    -9863992.569 6  -7798400.669 5
  22138486.834   -18089719.773 8 -13286401.120 9
 94  3 24 22  1  0.0030000  0  6 27 15  2 19 26  7
  21606373.389   -14512952.285 8 -11264753.566 9
  24789999.940    -2308666.059 5  -1791601.779 3
  21966748.387   -14243794.361 9 -11078914.023 9
  23553286.079    17947529.790 6   5668547.949 5
  24000417.597    -9900228.089 6  -7826636.158 5
  22129124.346   -18138930.008 8 -13324746.747 9
 94  3 24 22  1 30.0030000  0  6 27 15  2 19 26  7
  21616119.582   -14461718.616 8 -11224831.234 9
  24786082.642    -2329205.942 5  -1807606.831 3
  21967548.353   -14239624.807 9 -11075665.009 9
  23569723.640    18033889.252 6   5735840.958 5
  23993619.263    -9935976.228 6  -7854491.838 5
  22119839.714   -18187717.704 8 -13362763.078 9
 94  3 24 22  2  0.0030000  0  6 27 15  2 19 26  7
  21625959.280   -14410026.767 8 -11184551.914 9
  24782264.905    -2349273.051 5  -1823243.517 3
  21968374.221   -14235276.303 9 -11072276.567 9
  23586200.563    18120522.530 6   5803347.317 5
  23986912.186    -9971219.266 6  -7881953.947 5
  22110632.847   -18236071.067 8 -13400441.000 9
 94  3 24 22  2 30.0030000  0  6 27 15  2 19 26  7
  21635876.265   -14357893.655 8 -11143928.733 9
  24778548.468    -2368863.376 5  -1838508.658 3
  21969233.396   -14230759.352 9 -11068756.862 9
  23602736.815    18207415.133 6   5871055.757 5
  23980305.870   -10005956.391 6  -7909021.844 5
  22101521.555   -18283968.924 7 -13437763.967 9
 94  3 24 22  3  0.0030000  0  6 27 15  2 19 26  7
  21645877.821   -14305331.059 8 -11102970.906 9
  24774905.000    -2387971.477 5  -1853398.062 3
  21970123.090   -14226074.860 9 -11065106.602 9
  23619323.672    18294556.636 6   5938958.133 5
  23973784.964   -10040187.780 6  -7935695.638 5
  22092495.644   -18331397.155 7 -13474721.002 9
 94  3 24 22  3 30.0030000  0  6 27 15  2 19 26  7
  21655965.327   -14252332.679 8 -11061673.490 9
  24771360.074    -2406593.107 5  -1867908.355 3
  21971051.727   -14221193.072 9 -11061302.623 9
  23635945.965    18381940.565 6   6007049.400 5
  23967368.776   -10073930.779 6  -7961988.915 5
  22083558.081   -18378344.969 7 -13511303.680 9
 94  3 24 22  4  0.0030000  0  6 27 15  2 19 26  7
  21666130.840   -14198910.339 8 -11020045.710 9
  24767910.422    -2424731.444 5  -1882042.111 3
  21972017.689   -14216126.308 9 -11057354.492 9
  23652625.218    18469579.192 6   6075339.160 5
  23961040.877   -10107195.257 6  -7987909.268 5
  22074721.578   -18424807.920 8 -13547508.541 9
 94  3 24 22  4 30.0030000  0  6 27 15  2 19 26  7
  21676371.690   -14145083.854 8 -10978103.045 9
  24764548.999    -2442396.855 5  -1895807.331 3
  21973009.672   -14210896.591 9 -11053279.393 9
  23669358.944    18557482.718 6   6143835.336 5
  23954795.390   -10139994.216 6  -8013466.906 5
  22065967.159   -18470810.740 8 -13583354.853 9
 94  3 24 22  5  0.0030000  0  6 27 15  2 19 26  7
  21686697.652   -14090836.543 8 -10935832.429 9
  24761281.591    -2459585.482 5  -1909201.031 3
  21974038.140   -14205500.263 9 -11049074.468 9
  23686138.627    18645676.030 6   6212557.311 5
  23948648.955   -10172316.498 6  -8038653.081 5
  22057292.124   -18516374.049 8 -13618858.686 9
 94  3 24 22  5 30.0030000  0  6 27 15  2 19 26  7
  21697103.448   -14036145.715 8 -10893216.248 9
  24758094.558    -2476283.787 5  -1922212.653 3
  21975099.105   -14199923.356 9 -11044728.834 9
  23702980.248    18734187.714 6   6281527.368 5
  23942589.460   -10204149.527 6  -8063458.048 5
  22048709.036   -18561500.585 8 -13654022.191 9
 94  3 24 22  6  0.0030000  0  6 27 15  2 19 26  7
  21707596.604   -13981015.607 8 -10850257.751 9
  24755016.679    -2492483.944 5  -1934836.102 3
  21976195.506   -14194175.745 9 -11040250.178 9
  23719881.438    18823023.313 6   6350749.835 5
  23936628.057   -10235470.628 6  -8087864.087 5
  22040203.924   -18606190.944 8 -13688845.799 9
 94  3 24 22  6 30.0030000  0  6 27 15  2 19 26  7
  21718168.725   -13925447.875 8 -10806958.253 9
  24752028.857    -2508194.305 5  -1947077.890 3
  21977321.347   -14188245.445 9 -11035629.160 9
  23736848.971    18912150.791 6   6420199.753 5
  23930760.489   -10266288.976 6  -8111878.388 5
  22031780.656   -18650462.957 8 -13723343.435 9
 94  3 24 22  7  0.0030000  0  6 27 15  2 19 26  7
  21728827.756   -13869443.679 8 -10763318.658 9
  24749136.849    -2523425.166 5  -1958946.100 3
  21978484.542   -14182125.048 9 -11030860.034 9
  23753869.538    19001530.624 6   6489846.303 5
  23924994.401   -10296620.129 6  -8135513.069 5
  22023437.491   -18694313.944 8 -13757513.013 9
 94  3 24 22  7 30.0030000  0  6 27 15  2 19 26  7
  21739564.343   -13813019.020 8 -10719351.423 9
  24746320.869    -2538173.631 5  -1970438.332 3
  21979687.369   -14175809.658 9 -11025938.964 9
  23770916.517    19091146.139 6   6559676.485 5
  23919308.178   -10326465.753 6  -8158769.403 5
  22015177.610   -18737722.813 8 -13791338.076 9
 94  3 24 22  8  0.0030000  0  6 27 15  2 19 26  7
  21750382.264   -13756170.869 8 -10675054.188 9
  24743612.154    -2552429.163 5  -1981546.500 3
  21980928.390   -14169291.850 9 -11020860.144 9
  23788015.779    19181005.310 6   6629696.528 5
  23913723.344   -10355815.930 6  -8181639.675 5
  22007002.629   -18780663.560 8 -13824798.356 9
 94  3 24 22  8 30.0030000  0  6 27 15  2 19 26  7
  21761279.120   -13698899.779 8 -10630427.403 9
  24740976.768    -2566197.004 5  -1992274.638 3
  21982204.367   -14162567.939 9 -11015620.734 9
  23805159.981    19271101.104 6   6699900.966 5
  23908241.609   -10384682.764 7  -8204133.310 5
  21998921.514   -18823136.912 8 -13857894.439 9
 94  3 24 22  9  0.0030000  0  6 27 15  2 19 26  7
  21772257.969   -13641213.302 8 -10585476.942 9
  24738471.433    -2579481.454 5  -2002626.136 3
  21983523.004   -14155660.333 9 -11010238.200 9
  23822344.534    19361437.183 6   6770292.624 5
  23902834.492   -10413063.948 7  -8226248.511 6
  21990928.117   -18865142.324 8 -13890625.892 9
 94  3 24 22  9 30.0030000  0  6 27 15  2 19 26  7
  21783316.324   -13583106.564 8 -10540198.976 9
  24736024.796    -2592275.649 5  -2012595.582 3
  21984870.121   -14148588.442 9 -11004727.638 9
  23839586.977    19452035.266 6   6840888.433 5
  23897522.529   -10440950.552 6  -8247978.336 6
  21983022.980   -18906671.146 8 -13922985.981 9
 94  3 24 22 10  0.0030000  0  6 27 15  2 19 26  7
  21794452.115   -13524571.144 8 -10494587.008 9
  24733696.638    -2604580.912 5  -2022184.092 3
  21986241.312   -14141359.176 9 -10999094.443 9
  23856881.435    19542890.662 6   6911684.767 5
  23892315.404   -10468336.851 6  -8269318.322 6
  21975212.517   -18947737.841 8 -13954985.970 9
 94  3 24 22 10 30.0030000  0  6 27 15  2 19 26  7
  21805674.456   -13465600.409 8 -10448635.822 9
  24731440.550    -2616398.791 5  -2031392.771 3
  21987650.546   -14133978.671 9 -10993343.395 9
  23874211.627    19633982.803 6   6982665.566 5
  23887193.480   -10495223.963 6  -8290269.312 6
  21967480.150   -18988355.595 8 -13986636.141 9
 94  3 24 22 11  0.0030000  0  6 27 15  2 19 26  7
  21816979.270   -13406183.313 8 -10402336.828 9
  24729287.411    -2627726.140 5  -2040219.241 3
  21989077.109   -14126462.007 9 -10987486.261 9
  23891589.037    19725317.872 6   7053835.665 4
  23882173.096   -10521622.951 6  -8310839.954 6
  21959839.010   -19028521.683 8 -14017934.350 9
 94  3 24 22 11 30.0030000  0  6 27 15  2 19 26  7
  21828369.974   -13346329.936 8 -10355697.872 9
  24727226.128    -2638559.888 5  -2048661.092 3
  21990533.411   -14118799.810 9 -10981515.718 9
  23909019.031    19816895.604 6   7125194.839 4
  23877235.574   -10547543.616 6  -8331037.886 6
  21952280.313   -19068237.092 8 -14048881.400 9
 94  3 24 22 12  0.0030000  0  6 27 15  2 19 26  7
  21839839.254   -13286044.420 8 -10308722.177 9
  24725252.324    -2648901.718 5  -2056719.633 3
  21992024.548   -14110978.292 9 -10975421.040 9
  23926482.601    19908701.330 6   7196731.712 4
  23872398.213   -10572988.153 7  -8350864.807 6
  21944804.778   -19107515.562 8 -14079487.967 9
 94  3 24 22 12 30.0030000  0  6 27 15  2 19 26  7
  21851395.594   -13225333.952 8 -10261415.353 9
  24723382.698    -2658752.467 5  -2064395.483 3
  21993545.965   -14102999.594 9 -10969203.885 9
  23944002.052    20000741.396 6   7268451.135 4
  23867648.151   -10597970.239 7  -8370331.357 6
  21937413.395   -19146352.499 8 -14109750.493 9
 94  3 24 22 13  0.0030000  0  6 27 15  2 19 26  7
  21863027.241   -13164213.295 8 -10213788.906 9
  24721593.057    -2668104.437 5  -2071682.719 3
  21995094.723   -14094846.031 9 -10962850.453 9
  23961565.783    20093030.642 6   7340364.745 4
  23862979.873   -10622475.249 7  -8389426.190 6
  21930111.290   -19184735.315 8 -14139659.155 9
 94  3 24 22 13 30.0030000  0  6 27 15  2 19 26  7
  21874733.177   -13102688.959 8 -10165847.910 9
  24719909.453    -2676950.899 5  -2078576.035 3
  21996683.593   -14086493.830 9 -10956342.254 9
  23979180.988    20185561.968 6   7412466.984 4
  23858418.471   -10646472.042 7  -8408124.990 6
  21922892.827   -19222663.988 8 -14169213.930 9
 94  3 24 22 14  0.0030000  0  6 27 15  2 19 26  7
  21886522.786   -13040746.236 7 -10117580.898 9
  24718323.970    -2685289.139 5  -2085073.367 3
  21998308.018   -14077948.526 9 -10949683.581 9
  23996822.995    20278344.317 6   7484764.821 4
  23853951.593   -10669947.374 7  -8426417.466 6
  21915763.133   -19260142.313 8 -14198417.797 9
 94  3 24 22 14 30.0030000  0  6 27 15  2 19 26  7
  21898394.057   -12978367.034 8 -10068973.761 9
  24716827.616    -2693098.421 5  -2091158.511 3
  21999979.001   -14069200.291 9 -10942866.768 9
  24014530.956    20371397.353 6   7557273.595 4
  23849581.398   -10692880.137 7  -8444287.170 6
  21908715.402   -19297141.040 8 -14227247.942 9
 94  3 24 22 15  0.0030000  0  6 27 15  2 19 26  7
  21910352.748   -12915526.317 8 -10020007.014 9
  24715458.824    -2700358.929 5  -2096816.025 3
  22001683.561   -14060230.218 9 -10935877.111 9
  24032292.820    20464731.642 6   7630001.473 4
  23845330.581   -10715244.236 7  -8461713.751 6
  21901773.708   -19333650.883 8 -14255697.130 9
 94  3 24 22 15 30.0030000  0  6 27 15  2 19 26  7
  21922404.345   -12852194.053 8  -9970657.246 9
  24714182.008    -2707059.408 5  -2102037.166 3
  22003428.054   -14051039.296 9 -10928715.341 9
  24050120.308    20558362.201 6   7702960.301 4
  23841187.359   -10737028.649 7  -8478688.607 6
  21894918.084   -19369671.342 8 -14283764.998 9
 94  3 24 22 16  0.0030000  0  6 27 15  2 19 26  7
  21934549.208   -12788377.823 8  -9920930.332 9
  24713019.203    -2713201.549 5  -2106823.240 3
  22005218.414   -14041651.147 9 -10921399.922 9
  24067982.393    20652292.323 6   7776152.497 4
  23837144.478   -10758244.877 6  -8495220.755 6
  21888158.993   -19405191.486 8 -14311443.014 9
 94  3 24 22 16 30.0030000  0  6 27 15  2 19 26  7
  21946780.050   -12724097.189 8  -9870841.569 9
  24711948.374    -2718793.172 5  -2111180.322 3
  22007043.071   -14032067.384 9 -10913932.052 9
  24085907.403    20746504.866 6   7849564.792 4
  23833215.968   -10778902.965 7  -8511317.958 6
  21881494.846   -19440208.155 8 -14338728.699 9
 94  3 24 22 17  0.0030000  0  6 27 15  2 19 26  7
  21959094.805   -12659372.381 7  -9820406.714 9
  24710998.512    -2723846.106 5  -2115117.658 3
  22008901.515   -14022297.129 9 -10906318.863 9
  24103903.645    20840995.802 6   7923193.987 4
  23829394.513   -10799006.442 7  -8526983.023 6
  21874924.895   -19474737.336 8 -14365634.523 9
 94  3 24 22 17 30.0030000  0  6 27 15  2 19 26  7
  21971491.013   -12594239.071 7  -9769653.530 9
  24710121.559    -2728378.475 5  -2118649.401 3
  22010790.207   -14012363.617 9 -10898578.483 9
  24121938.679    20935751.640 6   7997029.598 4
  23825668.963   -10818579.029 7  -8542234.410 6
  21868447.489   -19508779.554 8 -14392160.901 9
 94  3 24 22 18  0.0030000  0  6 27 15  2 19 26  7
  21983958.452   -12528718.953 7  -9718598.924 9
  24709362.994    -2732392.548 5  -2121777.206 3
  22012714.605   -14002267.723 9 -10890711.547 9
  24140011.128    21030765.126 6   8071065.985 4
  23822035.538   -10837646.430 7  -8557092.136 6
  21862064.338   -19542320.741 8 -14418296.883 9
 94  3 24 22 18 30.0030000  0  6 27 15  2 19 26  7
  21996502.458   -12462795.284 7  -9667229.889 9
  24708692.088    -2735887.433 5  -2124500.470 3
  22014667.333   -13991993.444 9 -10882705.625 9
  24158141.017    21126030.463 6   8145298.616 4
  23818497.507   -10856226.315 7  -8571569.957 6
  21855770.465   -19575374.420 7 -14444052.946 9
 94  3 24 22 19  0.0030000  0  6 27 15  2 19 26  7
  22009126.029   -12396458.832 7  -9615539.187 9
  24708130.907    -2738859.962 5  -2126816.746 3
  22016655.257   -13981550.351 9 -10874568.145 9
  24176316.025    21221544.378 6   8219724.925 4
  23815057.299   -10874326.479 7  -8585674.009 6
  21849577.023   -19607946.632 7 -14469433.858 9
 94  3 24 22 19 30.0030000  0  6 27 15  2 19 26  7
  22021828.116   -12329692.784 7  -9563513.754 9
  24707665.209    -2741303.120 5  -2128720.504 3
  22018674.449   -13970939.295 9 -10866299.803 9
  24194531.924    21317299.194 6   8294338.975 4
  23811703.790   -10891952.965 7  -8599408.920 6
  21843471.719   -19640034.014 8 -14494436.981 9
 94  3 24 22 20  0.0030000  0  6 27 15  2 19 26  7
  22034621.609   -12262475.331 7  -9511136.578 9
  24707305.818    -2743213.522 5  -2130209.085 3
  22020725.629   -13960150.984 9 -10857893.336 9
  24212799.028    21413278.952 6   8369128.296 4
  23808438.601   -10909096.881 7  -8612767.849 6
  21837453.955   -19671650.979 8 -14519073.540 9
 94  3 24 22 20 30.0030000  0  6 27 15  2 19 26  7
  22047501.952   -12194798.856 7  -9458401.689 9
  24707041.731    -2744587.534 5  -2131279.752 3
  22022814.013   -13949175.859 9 -10849341.292 9
  24231110.231    21509482.657 6   8444092.111 4
  23805279.598   -10925722.763 7  -8625723.089 6
  21831523.071   -19702807.758 8 -14543351.536 9
 94  3 24 22 21  0.0030000  0  6 27 15  2 19 26  7
  22060464.708   -12126671.962 7  -9405315.852 9
  24706894.893    -2745410.822 5  -2131921.249 3
  22024939.841   -13938007.132 9 -10840638.398 9
  24249461.967    21605931.141 6   8519246.643 4
  23802217.428   -10941789.827 6  -8638242.889 6
  21825684.493   -19733481.503 8 -14567253.134 9
 94  3 24 22 21 30.0030000  0  6 27 15  2 19 26  7
  22073512.815   -12058095.840 7  -9351879.958 9
  24706832.056    -2745678.814 5  -2132130.106 3
  22027106.322   -13926634.745 9 -10831776.803 9
  24267867.515    21702629.692 6   8594596.067 4
  23799271.997   -10957288.270 7  -8650319.599 6
  21819943.617   -19763662.392 8 -14590770.685 9
 94  3 24 22 22  0.0030000  0  6 27 15  2 19 26  7
  22086648.581   -11989086.427 7  -9298106.438 9
  24706885.449    -2745392.659 5  -2131907.044 3
  22029309.616   -13915055.270 9 -10822753.848 9
  24286302.742    21799580.628 6   8670142.138 4
  23796429.395   -10972216.719 7  -8661952.159 6
  21814293.399   -19793350.216 8 -14613904.028 9
 94  3 24 22 22 30.0030000  0  6 27 15  2 19 26  7
  22099861.154   -11919649.880 7  -9244000.094 9
  24707058.249    -2744547.435 5  -2131248.425 3
  22031547.147   -13903286.904 9 -10813583.685 9
  24304810.580    21896798.215 5   8745896.009 4
  23793698.076   -10986568.194 6  -8673135.148 6
  21808739.414   -19822539.709 8 -14636649.061 9
 94  3 24 22 23  0.0030000  0  6 27 15  2 19 26  7
  22113157.340   -11849783.523 7  -9189558.838 9
  24707310.255    -2743145.791 5  -2130156.238 3
  22033820.803   -13891349.012 9 -10804281.434 9
  24323352.893    21994268.266 5   8821846.612 4
  23791073.483   -11000358.337 6  -8683880.709 6
  21803281.123   -19851228.114 8 -14659003.634 9
 94  3 24 22 23 30.0030000  0  6 27 15  2 19 26  7
  22126534.739   -11779468.186 7  -9134767.719 9
  24707701.334    -2741183.553 5  -2128627.216 3
  22036122.760   -13879233.080 9 -10794840.459 9
  24341953.786    22091982.190 5   8897987.207 4
  23788547.941   -11013589.806 6  -8694190.969 6
  21797916.696   -19879417.262 8 -14680969.191 9
 94  3 24 22 24  0.0030000  0  6 27 15  2 19 26  7
  22140004.384   -11708705.800 7  -9079628.266 9
  24708175.246    -2738660.343 5  -2126661.042 3
  22038467.676   -13866934.849 9 -10785257.429 9
  24360595.211    22189940.575 5   8974318.282 4
  23786147.803   -11026263.810 7  -8704066.807 6
  21792650.722   -19907109.807 8 -14702547.775 9
 94  3 24 22 24 30.0030000  0  6 27 15  2 19 26  7
  22153553.924   -11637485.555 7  -9024132.003 9
  24708751.028    -2735573.684 5  -2124255.842 3
  22040845.090   -13854447.116 9 -10775526.740 9
  24379284.722    22288138.637 5   9050836.157 4
  23783840.390   -11038372.984 6  -8713502.531 6
  21787476.874   -19934294.692 8 -14723730.773 9
 94  3 24 22 25  0.0030000  0  6 27 15  2 19 26  7
  22167189.804   -11565831.111 7  -8968297.417 9
  24709457.818    -2731938.745 5  -2121423.399 3
  22043255.302   -13841758.610 9 -10765639.592 9
  24398017.074    22386562.987 5   9127530.346 4
  23781638.384   -11049948.091 6  -8722522.097 6
  21782394.552   -19960983.453 8 -14744527.180 9
 94  3 24 22 25 30.0030000  0  7 27 13 15  2 19 26  7
  22180906.478   -11493753.843 7  -8912133.391 9
  25190699.602     -272963.00414   -206193.139
  24710241.086    -2727761.619 5  -2118168.491 3
  22045709.883   -13828869.048 9 -10755595.795 9
  24416781.654    22485217.720 5   9204404.031 4
  23779535.040   -11061008.365 6  -8731140.517 6
  21777409.003   -19987191.027 8 -14764948.655 9
 94  3 24 22 26  0.0040000  0  7 27 13 15  2 19 26  7
  22194697.291   -11421257.969 7  -8855643.153 9
  25170338.088     -380008.899 4   -289605.256 1
  24711147.748    -2723040.808 5  -2114489.925 3
  22048196.721   -13815782.673 9 -10745398.619 9
  24435611.258    22584113.379 5   9281465.479 4
  23777525.412   -11071564.731 6  -8739366.241 6
  21772513.962   -20012910.946 8 -14784990.133 9
 94  3 24 22 26 30.0040000  0  7 27 13 15  2 19 26  7
  22208580.230   -11348347.012 7  -8798829.457 8
  25149987.396     -486908.019 4   -372903.123 1
  24712140.901    -2717772.698 5  -2110384.854 3
  22050726.310   -13802505.268 9 -10735052.585 9
  24454465.776    22683249.699 5   9358714.453 4
  23775610.637   -11081614.847 6  -8747197.515 6
  21767715.604   -20038135.619 8 -14804645.693 9
 94  3 24 22 27  0.0040000  0  7 27 13 15  2 19 26  7
  22222530.802   -11275028.786 7  -8741698.442 8
  25129664.915     -593663.404 5   -456088.932 1
  24713257.358    -2711958.865 5  -2105854.572 3
  22053282.490   -13789057.599 9 -10724573.896 9
  24473384.898    22782643.400 5   9436163.985 4
  23773793.475   -11091175.530 7  -8754647.408 6
  21763006.494   -20062873.804 8 -14823922.187 9
 94  3 24 22 27 30.0040000  0  7 27 13 15  2 19 26  7
  22236559.800   -11201290.490 7  -8684240.099 8
  25109390.611     -700271.686 5   -539160.130 1
  24714468.879    -2705597.687 5  -2100897.811 3
  22055875.695   -13775445.945 9 -10713967.427 9
  24492344.163    22882295.634 5   9513814.961 4
  23772067.450   -11100229.762 7  -8761702.649 6
  21758391.339   -20087116.001 8 -14842812.188 9
 94  3 24 22 28  0.0040000  0  7 27 13 15  2 19 26  7
  22250666.714   -11127151.826 7  -8626469.758 8
  25089121.583     -806742.689 5   -622124.334 1
  24715765.182    -2698701.099 5  -2095523.833 3
  22058496.121   -13761682.696 9 -10703242.815 9
  24511349.386    22982183.831 5   9591649.805 4
  23770447.132   -11108778.850 7  -8768364.289 6
  21753872.987   -20110864.257 8 -14861317.304 9
 94  3 24 22 28 30.0040000  0  7 27 13 15  2 19 26  7
  22264850.615   -11052634.538 7  -8568404.395 8
  25068882.444     -913093.157 4   -704994.659 1
  24717180.082    -2691288.069 5  -2089747.436 3
  22061134.684   -13747792.409 9 -10692419.221 9
  24530398.888    23082272.142 5   9669640.580 4
  23768909.257   -11116827.470 7  -8774635.941 6
  21749440.616   -20134152.341 8 -14879463.840 9
 94  3 24 22 29  0.0040000  0  7 27 13 15  2 19 26  7
  22279099.780   -10977729.257 7  -8510036.694 8
  25048666.569    -1019317.179 5   -787766.480 1
  24718698.501    -2683354.457 5  -2083565.349 3
  22063805.715   -13733771.445 9 -10681493.803 9
  24549480.498    23182547.620 5   9747777.193 4
  23767477.088   -11124360.555 6  -8780505.884 6
  21745097.043   -20156985.095 8 -14897255.578 9
 94  3 24 22 29 30.0040000  0  7 27 13 15  2 19 26  7
  22293432.228   -10902435.380 7  -8451366.188 8
  25028482.352    -1125411.569 5   -870437.194 1
  24720303.770    -2674899.257 5  -2076976.870 3
  22066504.417   -13719602.404 9 -10670453.000 9
  24568604.379    23282983.470 5   9826038.779 4
  23766146.909   -11131363.243 7  -8785962.532 6
  21740834.743   -20179373.586 8 -14914701.132 9
 94  3 24 22 30  0.0040000  0  7 27 13 15  2 19 26  7
  22307832.789   -10826751.362 7  -8392391.692 8
  25008323.708    -1231361.471 5   -952995.397 2
  24722010.698    -2665909.871 5  -2069972.150 3
  22069225.963   -13705283.806 9 -10659295.661 9
  24587724.483    23383581.941 5   9904427.048 4
  23764917.250   -11137827.963 7  -8790999.980 6
  21736659.384   -20201323.569 8 -14931805.000 9
 94  3 24 22 30 30.0040000  0  7 27 13 15  2 19 26  7
  22322315.313   -10750658.190 7  -8333098.355 8
  24988190.726    -1337153.489 5  -1035430.590 2
  24723828.340    -2656375.146 5  -2062542.465 3
  22071984.863   -13690802.577 9 -10648011.594 9
  24606916.386    23484364.169 5   9982958.582 4
  23763788.502   -11143742.045 7  -8795608.376 6
  21732565.688   -20222834.832 8 -14948566.999 9
 94  3 24 22 31  0.0040000  0  7 27 13 15  2 19 26  7
  22336875.363   -10674143.097 7  -8273476.266 8
  24968089.281    -1442773.181 5  -1117731.512 2
  24725746.832    -2646282.906 5  -2054678.329 3
  22074773.382   -13676135.464 9 -10636582.681 9
  24626130.175    23585354.930 5  10061652.515 4
  23762767.978   -11149105.690 7  -8799787.852 6
  21728558.452   -20243885.725 8 -14964970.283 9
 94  3 24 22 31 30.0040000  0  7 27 13 15  2 19 26  7
  22351514.379   -10597212.436 7  -8213530.326 8
  24948025.851    -1548213.516 5  -1199892.670 2
  24727773.728    -2635628.328 5  -2046376.040 3
  22077601.055   -13661273.341 9 -10625001.805 9
  24645384.735    23686556.155 5  10140510.535 4
  23761855.530   -11153925.273 7  -8803543.378 6
  21724644.661   -20264456.683 8 -14980999.578 9
 94  3 24 22 32  0.0040000  0  7 27 13 15  2 19 26  7
  22366228.282   -10519873.162 7  -8153266.005 8
  24927994.678    -1653478.698 5  -1281917.342 2
  24729916.765    -2624417.885 6  -2037640.609 3
  22080461.884   -13646227.240 9 -10613277.582 9
  24664692.599    23787974.008 5  10219537.302 4
  23761034.308   -11158213.789 7  -8806885.084 6
  21720824.286   -20284538.333 8 -14996647.607 9
 94  3 24 22 32 30.0040000  0  7 27 13 15  2 19 26  7
  22381025.708   -10442128.717 7  -8092685.966 8
  24907999.391    -1758571.144 5  -1363807.470 2
  24732167.007    -2612656.297 6  -2028475.706 3
  22083367.713   -13630991.622 9 -10601405.663 9
  24684042.673    23889610.597 5  10298734.499 3
  23760314.896   -11161988.203 6  -8809826.204 6
  21717098.855   -20304120.767 8 -15011906.626 9
 94  3 24 22 33  0.0040000  0  7 27 13 15  2 19 26  7
  22395890.857   -10363998.791 7  -8031805.540 8
  24888024.249    -1863496.948 5  -1445567.772 2
  24734497.654    -2600352.007 6  -2018887.898 3
  22086296.265   -13615580.471 9 -10589396.982 9
  24703413.643    23991445.661 5  10378086.370 3
  23759698.613   -11165268.182 7  -8812382.041 6
  21713466.810   -20323193.522 8 -15026768.488 9
 94  3 24 22 33 30.0040000  0  7 27 13 15  2 19 26  7
  22410833.023   -10285491.284 7  -7970630.901 8
  24868097.255    -1968263.941 5  -1527204.273 2
  24736921.566    -2587515.296 5  -2008885.232 3
  22089255.726   -13600017.712 9 -10577270.159 9
  24722838.455    24093480.254 5  10457593.717 3
  23759157.008   -11168062.544 6  -8814559.475 6
  21709933.006   -20341764.988 8 -15041239.738 9
 94  3 24 22 34  0.0040000  0  7 27 13 15  2 19 26  7
  22425842.402   -10206600.828 7  -7909157.878 8
  24848189.207    -2072877.574 5  -1608721.275 2
  24739485.511    -2574154.101 5  -1998473.871 3
  22092246.846   -13584317.178 9 -10565035.997 9
  24742282.544    24195724.845 5  10537264.684 3
  23758722.219   -11170375.978 6  -8816362.170 6
  21706490.849   -20359851.503 8 -15055333.124 9
 94  3 24 22 34 30.0040000  0  7 27 13 15  2 19 26  7
  22440927.209   -10127323.289 7  -7847383.219 8
  24828309.399    -2177332.428 5  -1690114.610 2
  24742117.478    -2560265.189 5  -1987651.311 3
  22095258.951   -13568482.304 9 -10552697.129 9
  24761776.399    24298178.772 5  10617098.793 3
  23758371.402   -11172195.753 6  -8817780.173 6
  21703140.548   -20377452.266 8 -15069047.982
 94  3 24 22 35  0.0040000  0  7 27 13 15  2 19 26  7
  22456091.162   -10047654.015 7  -7785303.300 8
  24808462.719    -2281626.925 5  -1771382.961 2
  24744861.179    -2545849.359 5  -1976418.165 3
  22098296.807   -13552516.793 9 -10540256.473 9
  24781318.940    24400834.712 5  10697090.311 3
  23758126.561   -11173501.683 7  -8818797.794 6
  21699886.571   -20394577.179 8 -15082392.051 1
 94  3 24 22 35 30.0040000  0  7 27 13 15  2 19 26  7
  22471326.914    -9967580.681 7  -7722908.548 8
  24788650.904    -2385751.092 5  -1852518.648 2
  24747702.642    -2530898.809 5  -1964768.388 3
  22101364.044   -13536401.776 9 -10527699.347 9
  24800893.709    24503705.563 5  10777249.285 3
  23757979.663   -11174275.064 7  -8819400.448 6
  21696717.255   -20411237.729 8 -15095374.274 1
 94  3 24 22 36  0.0040000  0  7 27 13 15  2 19 26  7
  22486641.782    -9887106.679 7  -7660201.576 7
  24768877.853    -2489694.847 5  -1933513.701 2
  24750658.086    -2515406.094 6  -1952696.090 3
  22104462.759   -13520115.978 9 -10515009.094 9
  24820488.653    24606776.972 5  10857564.552 3
  23757938.711   -11174499.680 7  -8819575.484 6
  21693633.920   -20427434.687 8 -15107995.247 1
 94  3 24 22 36 30.0040000  0  7 27 13 15  2 19 26  7
  22502026.081    -9806241.514 7  -7597189.816 7
  24749120.001    -2593445.468 5  -2014358.222 2
  24753701.219    -2499360.707 5  -1940193.160 3
  22107595.950   -13503650.434 9 -10502178.820 9
  24840153.240    24710050.394 5  10938037.194 3
  23757999.059   -11174169.883 6  -8819318.524 6
  21690638.214   -20443163.878 7 -15120251.758 2
 94  3 24 22 37  0.0040000  0  7 27 13 15  2 19 26  7
  22517495.073    -9724973.644 7  -7533864.248 7
  24729426.664    -2696978.900 5  -2095033.540 2
  24756866.068    -2482741.306 5  -1927242.969 3
  22110769.883   -13486980.795 9 -10489189.500 9
  24859844.688    24813541.988 5  11018679.882 3
  23758170.091   -11173280.258 6  -8818625.317 6
  21687733.824   -20458417.306 8 -15132137.518 2
 94  3 24 22 37 30.0040000  0  7 27 13 15  2 19 26  7
  22533027.799    -9643319.735 7  -7470237.872 7
  24709768.133    -2800289.467 5  -2175535.196 2
  24760137.404    -2465544.978 5  -1913843.229 3
  22113980.180   -13470119.789 9 -10476051.054 9
  24879596.004    24917253.905 5  11099494.216 3
  23758446.949   -11171834.534 7  -8817498.781 6
  21684927.557   -20473182.149 8 -15143642.566 2
 94  3 24 22 38  0.0040000  0  7 27 13 15  2 19 26  7
  22548641.470    -9561295.139 7  -7406322.679 7
  24690151.094    -2903379.090 5  -2255864.691 2
  24763518.673    -2447776.083 5  -1899997.298 3
  22117217.159   -13453094.012 9 -10462784.217 9
  24899362.220    25021167.030 5  11180465.363 3
  23758824.928   -11169848.568 6  -8815951.289 6
  21682204.932   -20487469.995 8 -15154775.944 2
 94  3 24 22 38 30.0040000  0  7 27 13 15  2 19 26  7
  22564320.946    -9478886.241 7  -7342108.003 7
  24670559.987    -3006242.090 5  -2336017.591 2
  24767004.599    -2429431.408 5  -1885702.773 3
  22120485.586   -13435912.981 9 -10449396.407 9
  24919179.821    25125284.626 5  11261595.797 3
  23759301.298   -11167330.808 6  -8813989.428 6
  21679580.669   -20501276.858 8 -15165534.530 2
 94  3 24 22 39  0.0040000  0  7 27 13 15  2 19 26  7
  22580080.076    -9396086.716 7  -7277588.933 7
  24651035.313    -3108878.422 5  -2415993.802 2
  24770617.159    -2410513.221 5  -1870961.296 3
  22123788.520   -13418566.269 9 -10435879.481 9
  24939013.790    25229591.661 5  11342873.877 3
  23759879.028   -11164286.214 6  -8811617.027 6
  21677044.814   -20514593.878 8 -15175911.409 2
 94  3 24 22 39 30.0040000  0  7 27 13 15  2 19 26  7
  22595905.940    -9312899.834 7  -7212768.057 7
  24631546.555    -3211301.393 5  -2495803.777 2
  24774334.795    -2391037.848 5  -1855785.663 3
  22127120.383   -13401062.579 9 -10422240.254 9
  24958900.823    25334070.968 5  11424286.186 3
  23760552.692   -11160730.489 6  -8808846.342 6
  21674602.135   -20527428.106 8 -15185912.096 2
 94  3 24 22 40  0.0040000  0  7 27 13 15  2 19 26  7
  22611814.756    -9229308.595 7  -7147632.070 7
  24612102.976    -3313513.527 5  -2575449.504 2
  24778135.324    -2371010.496 5  -1840179.930 3
  22130481.177   -13383390.828 9 -10408470.064 9
  24978808.751    25438722.388 5  11505832.598 3
  23761325.287   -11156676.307 7  -8805687.246 6
  21672251.672   -20539797.054 8 -15195550.212 2
 94  3 24 22 40 30.0040000  0  7 27 13 15  2 19 26  7
  22627802.418    -9145303.221 7  -7082173.388 7
  24592689.975    -3415515.398 5  -2654931.342 2
  24782052.892    -2350434.424 5  -1824146.606 3
  22133877.915   -13365532.034 9 -10394554.129 9
  24998772.230    25543551.097 5  11587517.165 3
  23762199.901   -11152122.534 7  -8802138.875 6
  21669988.299   -20551676.252 8 -15204806.717 2
 94  3 24 22 41  0.0040000  0  7 27 13 15  2 19 26  7
  22643867.577    -9060875.174 7  -7016385.356 7
  24573318.196    -3517286.558 5  -2734233.406 2
  24786069.961    -2329291.665 5  -1807671.745 3
  22137321.511   -13347466.216 9 -10380476.866 9
  25018755.406    25648578.108 5  11669356.194 3
  23763162.955   -11147039.428 7  -8798178.018 6
  21667825.027   -20563048.725 8 -15213668.373 2
 94  3 24 22 41 30.0040000  0  7 27 13 15  2 19 26  7
  22660015.418    -8976017.694 7  -6950262.712 7
  24554001.189    -3618809.958 5  -2813342.413 2
  24790194.715    -2307567.649 5  -1790743.947 3
  22140794.577   -13329196.842 9 -10366240.997 9
  25038786.459    25753830.268 5  11751370.718 3
  23764233.903   -11141394.204 7  -8793779.153 6
  21665759.127   -20573921.345 8 -15222140.529 2
 94  3 24 22 42  0.0040000  0  7 27 13 15  2 19 26  7
  22676241.055    -8890738.924 7  -6883811.776 7
  24534729.900    -3720081.502 5  -2892255.156 2
  24794446.642    -2285260.808 5  -1773361.989 3
  22144307.095   -13310732.521 9 -10351853.230 9
  25058846.142    25859307.633 5  11833560.744 3
  23765419.642   -11135169.424 7  -8788928.696 6
  21663783.285   -20584293.712 8 -15230222.867 2
 94  3 24 22 42 30.0040000  0  7 27 13 15  2 19 26  7
  22692546.557    -8805056.389 7  -6817046.226 7
  24515506.758    -3821102.208 5  -2970972.447 2
  24798800.797    -2262375.169 5  -1755529.018 3
  22147856.548   -13292079.332 9 -10337318.275 9
  25078966.143    25964989.756 5  11915910.330 3
  23766720.742   -11128363.782 7  -8783625.600 6
  21661900.468   -20594171.379 8 -15237919.742 3
 94  3 24 22 43  0.0040000  0  7 27 13 15  2 19 26  7
  22708931.564    -8718967.411 7  -6749963.961 7
  24496333.231    -3921857.419 5  -3049482.857 2
  24803257.962    -2238899.018 5  -1737235.939 3
  22151442.306   -13273245.838 9 -10322642.840 9
  25099120.590    26070892.842 5  11998432.036 2
  23768125.899   -11120961.973 7  -8777857.980 6
  21660113.495   -20603567.637 8 -15245241.485 3
 94  3 24 22 43 30.0040000  0  7 27 13 15  2 19 26  7
  22725394.187    -8632460.917 7  -6682556.341 7
  24477213.548    -4022338.193 5  -3127779.434 2
  24807863.164    -2214825.974 5  -1718477.706 3
  22155058.102   -13254223.661 9 -10307820.355 9
  25119315.270    26177027.843 5  12081134.472 2
  23769648.005   -11112970.468 7  -8771630.825 6
  21658425.574   -20612461.856 8 -15252172.034 3
 94  3 24 22 44  0.0040000  0  7 27 13 15  2 19 26  7
  22741932.538    -8545530.443 7  -6614818.368 7
  24458139.283    -4122545.552 5  -3205862.961 2
  24812546.012    -2190159.890 5  -1699257.340 3
  22158715.391   -13235016.350 9 -10292853.630 9
  25139539.119    26283382.379 5  12164007.982 2
  23771268.953   -11104421.354 7  -8764969.211 6
  21656831.248   -20620831.668 8 -15258693.949 3
 94  3 24 22 44 30.0040000  0  7 27 13 15  2 19 26  7
  22758557.319    -8458171.667 7  -6546746.635 7
  24439124.106    -4222470.305 5  -3283726.246 2
  24817352.135    -2164894.173 5  -1679569.799 3
  22162408.984   -13215613.770 8 -10277734.747 9
  25159847.090    26389971.845 5  12247064.554 2
  23773003.222   -11095326.611 7  -8757882.399 6
  21655339.810   -20628658.058 8 -15264792.418 3
 94  3 24 22 45  0.0040000  0  7 27 13 15  2 19 26  7
  22775261.904    -8370398.476 7  -6478351.997 7
  24420164.962    -4322121.510 6  -3361376.444 2
  24822280.063    -2139040.979 5  -1659424.423 3
  22166135.344   -13196028.544 9 -10262473.531 9
  25180154.492    26496790.358 4  12330299.648 2
  23774830.697   -11085701.225 7  -8750382.115 6
  21653957.017   -20635938.087 8 -15270465.161 3
 94  3 24 22 45 30.0040000  0  7 27 13 15  2 19 26  7
  22792045.875    -8282219.311 7  -6409641.033 7
  24401255.223    -4421504.721 5  -3438817.795 2
  24827290.494    -2112608.450 5  -1638827.650 3
  22169898.069   -13176257.864 9 -10247067.826 9
  25200520.023    26603803.911 5  12413686.657 2
  23776771.284   -11075558.126 7  -8742478.422 6
  21652676.004   -20642672.635 8 -15275712.846 3
 94  3 24 22 46  0.0040000  0  7 27 13 15  2 19 26  7
  22808895.170    -8193657.885 7  -6340632.180 7
  24382388.114    -4520630.010 5  -3516058.158 2
  24832444.077    -2085609.779 5  -1617789.704 3
  22173691.793   -13156310.587 9 -10231524.495 9
  25220939.697    26710986.001 5  12497205.008 2
  23778801.029   -11064903.148 7  -8734175.852 6
  21651488.077   -20648896.216 8 -15280562.370 3
 94  3 24 22 46 30.0040000  0  7 27 13 15  2 19 26  7
  22825813.328    -8104744.799 7  -6271349.308 7
  24363574.398    -4619511.219 5  -3593108.334 2
  24837691.854    -2058061.780 5  -1596323.756 3
  22177519.872   -13136187.579 9 -10215844.236 9
  25241347.739    26818313.228 5  12580836.421 2
  23780918.703   -11053731.864 7  -8725470.968 6
  21650394.943   -20654650.106 8 -15285045.888 3
 94  3 24 22 47  0.0040000  0  7 27 13 15  2 19 26  7
  22842798.909    -8015503.793 7  -6201810.919 7
  24344800.735    -4718161.955 6  -3669978.936 2
  24843028.909    -2029981.035 5  -1574442.606 3
  22181383.328   -13115902.343 9 -10200037.556 9
  25261796.162    26925752.530 5  12664555.220 2
  23783139.145   -11042054.504 7  -8716371.727 6
  21649382.275   -20659974.129 8 -15289194.463 3
 94  3 24 22 47 30.0040000  0  7 27 13 15  2 19 26  7
  22859841.541    -7925948.464 7  -6132027.591 7
  24326075.308    -4816584.726 6  -3746671.924 2
  24848474.729    -2001372.888 5  -1552150.566 3
  22185272.356   -13095453.678 8 -10184103.543 9
  25282268.210    27033303.183 5  12748360.768 2
  23785460.079   -11029882.173 7  -8706886.822 6
  21648448.991   -20664879.951 8 -15293017.171 4
 94  3 24 22 48  0.0040000  0  7 27 13 15  2 19 26  7
  22876938.495    -7836084.295 7  -6062003.618 7
  24307390.804    -4914775.569 6  -3823184.181 2
  24854025.056    -1972236.174 5  -1529446.607 3
  22189196.039   -13074837.975 9 -10168039.377 9
  25302740.677    27140989.648 4  12832272.118 2
  23787867.892   -11017212.409 7  -8697014.284 6
  21647596.831   -20669351.714 8 -15296501.638 4
 94  3 24 22 48 30.0040000  0  7 27 13 15  2 19 26  7
  22894101.583    -7745887.589 7  -5991720.543 7
  24288749.828    -5012710.644 5  -3899497.166 2
  24859653.330    -1942549.589 5  -1506314.259 3
  22193154.319   -13054038.599 9 -10151832.070 9
  25323267.677    27248839.927 5  12916311.113 2
  23790382.701   -11004017.798 7  -8686732.794 6
  21646834.698   -20673354.878 8 -15299620.961 4
 94  3 24 22 49  0.0040000  0  7 27 13 15  2 19 26  7
  22911335.722    -7655319.793 7  -5921148.273 7
  24270166.024    -5110357.591 6  -3975585.633 2
  24865426.523    -1912284.366 5  -1482730.938 3
  22197150.672   -13033042.032 9 -10135471.127 9
  25343830.022    27356894.427 4  13000509.282 2
  23792993.174   -10990275.198 7  -8676024.276 6
  21646172.097   -20676842.725 8 -15302338.748 4
 94  3 24 22 49 30.0040000  0  7 27 13 15  2 19 26  7
  22928653.324    -7564350.538 7  -5850263.218 7
  24251642.207    -5207703.791 6  -4051439.749 2
  24871304.824    -1881430.718 5  -1458689.105 3
  22201182.221   -13011843.936 9 -10118953.118 9
  25364443.151    27465171.984 5  13084881.224 2
  23795717.807   -10975964.015 7  -8664872.708 6
  21645610.586   -20679801.111 8 -15304643.961 4
 94  3 24 22 50  0.0040000  0  7 27 13 15  2 19 26  7
  22946040.027    -7472951.543 7  -5779043.296 7
  24233178.200    -5304736.934 6  -4127049.882 2
  24877286.793    -1849979.135 5  -1434181.378 3
  22205257.930   -12990449.064 9 -10102281.811 9
  25385081.524    27573677.690 4  13169430.991 2
  23798550.486   -10961057.185 6  -8653257.032 6
  21645142.999   -20682235.418 8 -15306540.800 4
 94  3 24 22 50 30.0040000  0  7 27 13 15  2 19 26  7
  22963516.788    -7381118.962 7  -5707485.486 7
  24214774.121    -5401462.724 6  -4202420.556 2
  24883382.833    -1817938.842 5  -1409214.913 3
  22209360.230   -12968872.845 9 -10085469.179 9
  25405759.199    27682398.743 4  13254148.529 2
  23801501.763   -10945564.300 6  -8641184.670 6
  21644776.323   -20684177.041 8 -15308053.733 4
 94  3 24 22 51  0.0040000  0  7 27 13 15  2 19 26  7
  22981081.478    -7288852.196 7  -5635589.365 7
  24196425.533    -5497884.041 6  -4277553.956 2
  24889584.969    -1785315.601 5  -1383794.176 3
  22213500.993   -12947121.243 9 -10068519.879 9
  25426519.857    27791321.850 5  13339023.504 2
  23804557.937   -10929507.707 6  -8628673.038 6
  21644499.135   -20685630.095 8 -15309185.968 4
 94  3 24 22 51 30.0040000  0  7 27 13 15  2 19 26  7
  22998718.329    -7196149.276 7  -5563353.390 7
  24178133.666    -5593994.484 6  -4352445.140 3
  24895914.877    -1752105.897 5  -1357916.450 3
  22217676.862   -12925184.390 9 -10051426.234 9
  25447272.330    27900439.377 5  13424049.954 2
  23807714.092   -10912891.502 6  -8615725.387 5
  21644314.043   -20686592.413 8 -15309935.810 4
 94  3 24 22 52  0.0040000  0  7 27 13 15  2 19 26  7
  23016428.358    -7103037.469 7  -5490798.782 7
  24159905.655    -5689800.776 6  -4427099.300 2
  24902331.485    -1718319.803 5  -1331589.629 3
  22221884.899   -12903074.782 9 -10034197.982 9
  25468070.732    28009730.975 5  13509212.078 2
  23810979.612   -10895747.255 7  -8602366.230 5
  21644225.814   -20687055.245 8 -15310296.437 4
 94  3 24 22 52 30.0040000  0  7 27 13 15  2 19 26  7
  23034221.190    -7009532.196 7  -5417937.596 7
  24141733.676    -5785300.698 6  -4501514.777 2
  24908872.237    -1683958.235 5  -1304814.374 3
  22226124.714   -12880783.456 9 -10016828.102 9
  25488909.875    28119181.695 5  13594498.205 2
  23814337.018   -10878094.964 7  -8588611.209 5
  21644240.054   -20687000.878 8 -15310254.074 4
 94  3 24 22 53  0.0040000  0  7 27 13 15  2 19 26  7
  23052090.230    -6915649.546 7  -5344782.342 7
  24123619.526    -5880495.105 6  -4575692.160 3
  24915520.614    -1649025.469 5  -1277594.007 3
  22230400.084   -12858305.545 9  -9999312.845 9
  25509754.654    28228777.957 4  13679897.706 2
  23817792.965   -10859950.237 6  -8574472.476 5
  21644346.751   -20686427.571 8 -15309807.315 4
 94  3 24 22 53 30.0040000  0  7 27 13 15  2 19 26  7
  23070030.650    -6821397.242 7  -5271339.034 7
  24105559.339    -5975377.878 6  -4649626.689 3
  24922275.238    -1613517.987 5  -1249925.792 3
  22234717.635   -12835634.416 9  -9981647.026 9
  25530620.869    28338530.324 4  13765418.855 2
  23821342.658   -10841301.964 7  -8559941.379 5
  21644553.667   -20685343.312 8 -15308962.426 4
 94  3 24 22 54  0.0040000  0  7 27 13 15  2 19 26  7
  23088035.166    -6726775.958 7  -5197608.236 6
  24087566.275    -6069939.905 6  -4723311.310 3
  24929142.704    -1577430.077 5  -1221805.331 3
  22239067.894   -12812756.560 9  -9963820.135 9
  25551558.044    28448450.709 4  13851070.871 2
  23824988.224   -10822135.400 6  -8545006.426 6
  21644857.597   -20683751.991 8 -15307722.425 4
 94  3 24 22 54 30.0040000  0  8 27  9 13 15  2 19 26  7
  23106116.159    -6631788.000 7  -5123591.723 6
  26018582.470    -1356666.81315  -1089954.292 2
  24069631.971    -6164181.967 6  -4796746.601 3
  24936111.080    -1540765.532 5  -1193235.562 3
  22243465.789   -12789661.260 9  -9945823.789 9
  25572501.456    28558554.077 4  13936865.513 2
  23828737.908   -10802438.947 6  -8529658.526 5
  21645249.635   -20681680.796 8 -15306108.488 4
 94  3 24 22 55  0.0040000  0  8 27  9 13 15  2 19 26  7
  23124252.823    -6536438.137 7  -5049293.183 6
  26001476.193    -1446580.549 5  -1160016.887 2
  24051757.295    -6258106.977 6  -4869934.848 3
  24943212.383    -1503530.538 5  -1164221.256 3
  22247901.938   -12766354.594 9  -9927662.765 9
  25593498.769    28668854.176 4  14022813.461 2
  23832590.661   -10782211.671 6  -8513897.060 5
  21645733.650   -20679143.393 8 -15304131.266 5
 94  3 24 22 55 30.0040000  0  8 27  9 13 15  2 19 26  7
  23142468.842    -6440732.738 7  -4974717.628 6
  25984385.055    -1536473.569 5  -1230063.349 2
  24033949.623    -6351709.980 6  -4942872.180 3
  24950399.458    -1465723.433 5  -1134761.172 3
  22252376.370   -12742830.400 9  -9909332.222 9
  25614506.486    28779355.206 4  14108917.984 2
  23836542.555   -10761435.169 6  -8497707.606 5
  21646305.594   -20676133.056 8 -15301785.554 5
 94  3 24 22 56  0.0040000  0  8 27  9 13 15  2 19 26  7
  23160743.981    -6344685.780 7  -4899875.917 6
  25967258.931    -1626349.079 5  -1300096.191 2
  24016188.808    -6445000.450 6  -5015565.959 3
  24957705.910    -1427356.694 5  -1104864.986 2
  22256888.996   -12719100.720 9  -9890841.570 9
  25635599.194    28890040.994 5  14195166.448 2
  23840595.569   -10740122.518 6  -8481100.338 5
  21646965.917   -20672661.755 8 -15299080.627 5
 94  3 24 22 56 30.0040000  0  8 27  9 13 15  2 19 26  7
  23179076.080    -6248323.019 7  -4824788.100 6
  25950163.386    -1716220.677 5  -1370125.941 2
  23998501.353    -6537991.556 6  -5088026.495 3
  24965119.507    -1388446.856 5  -1074545.640 2
  22261440.925   -12695189.907 9  -9872209.770 9
  25656676.672    29000889.723 4  14281541.887 2
  23844751.022   -10718298.248 6  -8464094.446 5
  21647715.518   -20668741.320 8 -15296025.720 5
 94  3 24 22 57  0.0040000  0  8 27  9 13 15  2 19 26  7
  23197479.499    -6151659.087 7  -4749465.629 6
  25933049.583    -1806082.947 5  -1440148.433 2
  23980856.528    -6630687.315 6  -5160256.891 3
  24972608.083    -1349001.567 5  -1043809.015 2
  22266026.011   -12671113.356 9  -9853448.815 9
  25677793.603    29111870.191 4  14368019.989 2
  23848993.056   -10695976.554 6  -8446700.937 5
  21648543.485   -20664366.439 8 -15292616.712 5
 94  3 24 22 57 30.0040000  0  8 27  9 13 15  2 19 26  7
  23215928.367    -6054684.376 7  -4673900.989 6
  25915958.985    -1895942.707 5  -1510168.976 2
  23963277.958    -6723082.538 6  -5232253.121 3
  24980217.445    -1309018.603 5  -1012653.478 2
  22270633.971   -12646885.471 9  -9834569.943 9
  25698921.657    29222964.797 4  14454587.068 2
  23853334.650   -10673155.213 6  -8428918.092 5
  21649465.467   -20659540.224 8 -15288856.005 5
 94  3 24 22 58  0.0040000  0  9 27  4  9 13 15  2 19 26  7
  23234444.089    -5957382.680 7  -4598081.571 6
  25934640.492    -1891380.26215   -822789.395 2
  25898854.686    -1985805.154 5  -1580191.617 2
  23945755.718    -6815170.061 6  -5304009.550 3
  24987930.266    -1268494.016 5   -981075.839 2
  22275272.450   -12622521.714 9  -9815585.205 9
  25720111.497    29334171.148 4  14541241.144 2
  23857782.221   -10649838.367 6  -8410749.156 5
  21650467.523   -20654266.318 8 -15284746.463 5
 94  3 24 22 58 30.0040000  0  9 27  4  9 13 15  2 19 26  7
  23253027.144    -5859759.635 7  -4522011.723 6
  25917060.153    -1983801.896 5   -894805.863 2
  25881761.270    -2075669.572 5  -1650215.795 2
  23928293.377    -6906954.794 6  -5375530.071 3
  24995750.712    -1227435.989 5   -949082.596 3
  22279928.407   -12598034.750 9  -9796504.455 9
  25741273.427    29445473.216 4  14627969.811 2
  23862307.198   -10626031.561 6  -8392198.407 5
  21651554.571   -20648541.574 8 -15280285.588 5
 94  3 24 22 59  0.0040000  0  9 27  4  9 13 15  2 19 26  7
  23271664.462    -5761811.530 7  -4445688.584 6
  25899450.853    -2076317.519 5   -966895.600 2
  25864669.592    -2165536.699 5  -1720242.088 2
  23910876.155    -6998443.975 6  -5446820.304 3
  25003660.766    -1185855.138 5   -916681.920 3
  22284610.055   -12573431.790 9  -9777333.311 9
  25762465.966    29556857.367 4  14714762.465 2
  23866931.377   -10601737.801 6  -8373268.223 5
  21652728.558   -20642376.091 8 -15275481.304 5
 94  3 24 22 59 30.0040000  0  9 27  4  9 13 15  2 19 26  7
  23290362.607    -5663532.847 7  -4369107.861 6
  25881827.614    -2168922.126 4  -1039054.611 2
  25847556.389    -2255405.501 5  -1790269.712 2
  23893527.915    -7089634.901 6  -5517878.123 3
  25011668.642    -1143752.073 5   -883874.333 3
  22289316.407   -12548708.421 9  -9758068.359 9
  25783693.041    29668334.277 4  14801627.441 2
  23871648.911   -10576951.201 7  -8353954.019 5
  21653983.129   -20635770.005 8 -15270333.698 5
 94  3 24 23  0  0.0040000  0  9 27  4  9 13 15  2 19 26  7
  23309123.470    -5564930.842 6  -4292275.206 6
  25864183.298    -2261611.112 5  -1111279.401 2
  25830464.052    -2345254.983 5  -1860282.245 2
  23876224.224    -7180522.754 6  -5588699.783 3
  25019788.371    -1101125.400 5   -850658.768 3
  22294048.302   -12523840.809 9  -9738691.006 9
  25804922.604    29779914.538 4  14888572.898 2
  23876459.531   -10551672.111 7  -8334256.058 5
  21655330.936   -20628716.493 8 -15264837.434 5
 94  3 24 23  0 30.0040000  0  9 27  4  9 13 15  2 19 26  7
  23327948.277    -5465991.662 6  -4215179.803 6
  25846540.273    -2354371.107 5  -1183559.537 2
  25813376.182    -2435059.341 5  -1930259.592 2
  23858996.710    -7271087.767 6  -5659269.892 3
  25027984.577    -1057958.971 5   -817022.569 3
  22298814.582   -12498792.583 9  -9719172.920 9
  25826176.690    29891620.500 4  14975616.313 2
  23881367.253   -10525884.050 7  -8314161.469 5
  21656760.107   -20621196.660 8 -15258977.798 5
 94  3 24 23  1  0.0040000  0  9 27  4  9 13 15  2 19 26  7
  23346850.012    -5366701.907 6  -4137811.240 6
  25828866.188    -2447200.327 4  -1255893.619 2
  25796280.337    -2524809.668 5  -2000194.910 2
  23841827.956    -7361322.395 6  -5729582.546 3
  25036321.295    -1014248.313 5   -782962.331 3
  22303616.148   -12473555.456 9  -9699507.631 9
  25847461.864    30003469.628 4  15062771.251 2
  23886368.871   -10499592.761 6  -8293674.786 5
  21658277.177   -20613221.113 8 -15252763.079 5
 94  3 24 23  1 30.0040000  0  9 27  4  9 13 15  2 19 26  7
  23365804.300    -5267062.452 6  -4060170.178 6
  25811197.620    -2540106.021 5  -1328287.351 2
  25779233.988    -2614500.359 5  -2070083.715 2
  23824719.400    -7451218.320 6  -5799631.241 3
  25044741.536     -969988.880 5   -748474.434 3
  22308457.796   -12448129.685 9  -9679695.348 9
  25868779.627    30115473.135 4  15150046.479 2
  23891467.921   -10472796.384 6  -8272794.518 5
  21659883.824   -20604787.863 8 -15246191.690 5
 94  3 24 23  2  0.0040000  0  9 27  4  9 13 15  2 19 26  7
  23384833.207    -5167086.238 6  -3982266.691 6
  25793474.789    -2633099.019 3  -1400749.167 2
  25762162.696    -2704141.845 5  -2139934.153 2
  23807670.323    -7540779.916 6  -5869419.467 3
  25053255.882     -925188.083 5   -713564.751 3
  22313327.595   -12422525.447 9  -9659743.993 9
  25890138.940    30227622.325 4  15237435.277 2
  23896653.941   -10445517.004 6  -8251537.866 5
  21661571.686   -20595901.659 8 -15239267.361 5
 94  3 24 23  2 30.0040000  0  9 27  4  9 13 15  2 19 26  7
  23403920.693    -5066768.264 6  -3904096.882 6
  25775780.379    -2726163.407 4  -1473266.491 2
  25745103.845    -2793737.098 5  -2209748.628 2
  23790699.042    -7629993.617 6  -5938936.575 3
  25061892.663     -879835.750 5   -678225.285 3
  22318233.039   -12396736.323 9  -9639648.563 9
  25911501.401    30339931.731 5  15324948.894 2
  23901936.883   -10417745.657 6  -8229897.874 5
  21663357.130   -20586547.801 8 -15231978.622 5
 94  3 24 23  3  0.0040000  0  9 27  4  9 13 15  2 19 26  7
  23423074.853    -4966105.615 6  -3825658.529 6
  25758061.925    -2819290.120 5  -1545832.511 2
  25728074.974    -2883280.712 5  -2279522.775 2
  23773788.858    -7718847.746 6  -6008173.510 3
  25070632.602     -833923.591 5   -642449.568 3
  22323178.865   -12370767.671 9  -9619413.260 9
  25932894.741    30452403.640 4  15412589.082 2
  23907317.139   -10389470.520 6  -8207865.310 5
  21665223.518   -20576719.754 8 -15224320.399 5
 94  3 24 23  3 30.0040000  0  9 27  4  9 13 15  2 19 26  7
  23442303.271    -4865107.366 7  -3746958.665 5
  25740330.910    -2912473.427 5  -1618442.647 2
  25711047.302    -2972774.413 5  -2349258.077 2
  23756944.959    -7807334.667 6  -6077124.283 3
  25079465.867     -787447.506 5   -606234.431 3
  22328155.689   -12344611.853 9  -9599032.095 9
  25954321.717    30565021.069 4  15500342.721 2
  23912801.332   -10360677.958 6  -8185429.572 5
  21667185.600   -20566399.532 8 -15216278.644 5
 94  3 24 23  4  0.0040000  0  9 27  4  9 13 15  2 19 26  7
  23461572.671    -4763777.152 6  -3668000.134 5
  25722600.494    -3005707.650 5  -1691092.489 2
  25694032.701    -3062217.806 5  -2418954.220 2
  23740188.809    -7895452.295 6  -6145787.324 3
  25088422.317     -740408.728 5   -569580.833 3
  22333173.256   -12318257.329 9  -9578496.101 9
  25975783.619    30677772.567 4  15588200.815 2
  23918374.894   -10331377.110 6  -8162597.754 5
  21669246.043   -20555585.905 8 -15207852.428 5
 94  3 24 23  4 30.0040000  0  9 27  4  9 13 15  2 19 26  7
  23480924.184    -4662114.001 6  -3588782.161 5
  25704837.371    -3098997.348 5  -1763785.513 2
  25677014.443    -3151605.999 5  -2488607.285 2
  23723481.585    -7983207.074 6  -6214167.608 3
  25097480.366     -692817.312 5   -532496.623 3
  22338224.699   -12291706.190 9  -9557806.916 9
  25997252.686    30790641.672 4  15676150.541 2
  23924055.631   -10301562.249 6  -8139365.428 5
  21671390.549   -20544299.334 8 -15199057.684 5
 94  3 24 23  5  0.0040000  0  9 27  4  9 13 15  2 19 26  7
  23500335.326    -4560124.721 6  -3509310.057 5
  25687068.433    -3192344.354 5  -1836523.206 2
  25660011.504    -3240924.455 5  -2558206.041 2
  23706851.138    -8070606.066 6  -6282270.659 3
  25106632.370     -644684.172 5   -494990.279 3
  22343312.447   -12264969.719 9  -9536973.300 9
  26018767.892    30903612.330 4  15764179.354 2
  23929817.192   -10271247.394 6  -8115743.475 5
  21673627.300   -20532549.324 8 -15189901.812 5
 94  3 24 23  5 30.0040000  0  9 27  4  9 13 15  2 19 26  7
  23519808.375    -4457820.662 6  -3429592.677 5
  25669299.764    -3285728.509 5  -1909289.877 2
  25643041.092    -3330165.774 5  -2627744.677 2
  23690289.404    -8157652.241 6  -6350098.780 3
  25115908.878     -596015.449 5   -457066.623 3
  22348436.379   -12238038.773 9  -9515988.165 9
  26040279.140    31016677.799 4  15852282.103 2
  23935683.801   -10240441.259 6  -8091738.679 5
  21675955.518   -20520335.216 8 -15180384.300 5
 94  3 24 23  6  0.0040000  0  8 27  4  9 13 15  2 26  7
  23539326.034    -4355193.233 6  -3349623.330 5
  25651527.107    -3379123.382 5  -1982064.806 2
  25626067.353    -3419314.024 5  -2697210.788 2
  23673796.172    -8244334.432 7  -6417643.276 3
  25125254.998     -546803.628 5   -418719.726 3
  22353599.585   -12210898.771 9  -9494840.106 9
  23941637.979   -10209138.397 6  -8067346.876 5
  21678363.931   -20507659.120 8 -15170506.816 5
 94  3 24 23  6 30.0040000  0  8 27  4  9 13 15  2 26  7
  23558920.649    -4252241.052 6  -3269400.911 5
  25633760.927    -3472500.749 5  -2054826.221 2
  25609131.837    -3508364.142 5  -2766600.447 2
  23657370.993    -8330646.138 7  -6484899.114 3
  25134734.286     -497045.603 5   -379947.269 3
  22358806.051   -12183557.931 9  -9473535.562 9
  23947698.283   -10177331.090 6  -8042561.993 5
  21680865.039   -20494511.715 8 -15160262.075 5
 94  3 24 23  7  0.0040000  0  8 27  4  9 13 15  2 26  7
  23578569.586    -4148972.912 6  -3188932.304 5
  25615996.904    -3565852.274 5  -2127567.371 2
  25592192.184    -3597340.635 5  -2835932.715 2
  23641014.676    -8416584.658 7  -6551864.131 3
  25144310.136     -446742.238 5   -340749.846 3
  22364044.264   -12156019.991 9  -9452077.428 9
  23953840.581   -10145029.943 6  -8017392.283 5
  21683458.664   -20480885.455 8 -15149644.185 5
 94  3 24 23  7 30.0040000  0  8 27  4  9 13 15  2 26  7
  23598288.015    -4045378.172 6  -3108209.219 5
  25598248.621    -3659182.834 5  -2200292.202 2
  25575271.688    -3686257.618 5  -2905218.626 2
  23624730.879    -8502139.203 7  -6618529.968 3
  25153983.120     -395886.051 5   -301121.622 3
  22369323.040   -12128270.229 9  -9430454.248 9
  23960087.027   -10112220.772 6  -7991826.710 5
  21686143.185   -20466776.516 8 -15138650.198 5
 94  3 24 23  8  0.0040000  0  8 27  4  9 13 15  2 26  7
  23618068.681    -3941418.343 6  -3027201.615 5
  25580463.494    -3752489.276 5  -2272998.269 2
  25558368.939    -3775106.115 5  -2974451.162 2
  23608531.054    -8587281.551 7  -6684874.605 3
  25163769.995     -344452.562 5   -261043.587 3
  22374649.393   -12100286.501 9  -9408648.741 9
  23966427.068   -10078885.259 6  -7965851.016 5
  21688928.797   -20452162.090 8 -15127262.323 5
 94  3 24 23  8 30.0040000  0  8 27  4  9 13 15  2 26  7
  23637921.867    -3837089.547 6  -2945906.522 5
  25562729.241    -3845784.859 5  -2345695.860 2
  25541464.932    -3863889.530 5  -3043632.988 2
  23592408.605    -8672010.377 7  -6750897.026 4
  25173667.133     -292444.167 5   -220517.578 3
  22380016.907   -12072076.019 9  -9386666.550 9
  23972866.310   -10045027.959 6  -7939468.712 5
  21691800.299   -20437050.203 8 -15115486.808 5
 94  3 24 23  9  0.0040000  0  8 27  4  9 13 15  2 26  7
  23657839.838    -3732407.763 6  -2864336.393 5
  25544958.863    -3939108.834 5  -2418415.606 2
  25524583.648    -3952612.950 5  -3112768.087 2
  23576357.897    -8756336.318 6  -6816605.505 4
  25183671.567     -239875.036 5   -179554.612 3
  22385423.993   -12043638.645 8  -9364507.561 9
  23979410.270   -10010656.777 6  -7912685.986 5
  21694767.585   -20421471.720 8 -15103347.732 5
 94  3 24 23  9 30.0040000  0  8 27  4  9 13 15  2 26  7
  23677836.625    -3627398.916 6  -2782511.366 5
  25527200.957    -4032471.293 5  -2491165.301 2
  25507702.695    -4041261.342 5  -3181844.722 2
  23560389.452    -8840274.472 7  -6882011.824 4
  25193785.335     -186763.839 5   -138169.255 3
  22390879.437   -12014996.881 9  -9342189.301 9
  23986046.595    -9975788.153 6  -7885515.649 5
  21697814.076   -20405452.505 8 -15090865.206 5
 94  3 24 23 10  0.0040000  0  8 27  4  9 13 15  2 26  7
  23697873.464    -3522073.567 6  -2700439.743 5
  25509406.236    -4125851.067 4  -2563928.528 2
  25490861.284    -4129814.748 5  -3250847.311 2
  23544490.558    -8923823.984 7  -6947115.289 4
  25203988.022     -133113.377 5    -96363.739 3
  22396365.309   -11986164.423 8  -9319722.462 9
  23992770.730    -9940427.128 6  -7857961.631 5
  21700943.519   -20389005.979 8 -15078049.727 5
 94  3 24 23 10 30.0040000  0  8 27  4  9 13 15  2 26  7
  23717977.006    -3416435.138 6  -2618124.164 5
  25491666.317    -4219220.861 5  -2636683.948 2
  25474040.709    -4218248.575 6  -3319756.771 2
  23528667.273    -9006972.408 7  -7011906.215 4
  25214291.229      -78914.500 5    -54130.827 3
  22401886.167   -11957152.860 9  -9297116.062 9
  23999597.364    -9904563.170 6  -7830015.708 5
  21704157.295   -20372127.878 8 -15064897.948 5
 94  3 24 23 11  0.0040000  0  8 27  4  9 13 15  2 26  7
  23738138.229    -3310489.357 6  -2535569.083 5
  25473894.080    -4312561.696 5  -2709416.873 3
  25457234.733    -4306558.214 5  -3388569.445 2
  23512921.783    -9089713.436 7  -7076379.699 4
  25224720.589      -24164.657 5    -11468.621 3
  22407439.402   -11927968.809 8  -9274375.250 9
  24006518.823    -9868196.430 6  -7801678.008 5
  21707451.264   -20354806.569 8 -15051400.819 5
 94  3 24 23 11 30.0040000  0  8 27  4  9 13 15  2 26  7
  23758353.294    -3204228.652 6  -2452768.612 5
  25456135.754    -4405858.974 4  -2782115.825 3
  25440450.103    -4394734.630 5  -3457278.252 3
  23497260.025    -9172038.314 7  -7140528.935 4
  25235249.540       31141.136 5     31626.793 3
  22413026.934   -11898615.776 9  -9251502.757 9
  24013533.397    -9831333.539 6  -7772953.688 5
  21710835.531   -20337026.095 8 -15037545.902 5
 94  3 24 23 12  0.0040000  0  8 27  4  9 13 15  2 26  7
  23778643.638    -3097630.899 6  -2369705.519 5
  25438403.300    -4499108.708 5  -2854777.740 3
  25423701.598    -4482780.939 6  -3525885.735 3
  23481674.055    -9253930.883 7  -7204341.298 4
  25245881.650       87015.591 5     75165.307 3
  22418647.443   -11869076.422 9  -9228485.101 9
  24020641.716    -9793968.305 6  -7743837.956 5
  21714310.755   -20318761.000 8 -15023313.350 5
 94  3 24 23 12 30.0040000  0  8 27  4  9 13 15  2 26  7
  23798993.729    -2990691.939 6  -2286376.539 5
  25420658.524    -4592325.206 4  -2927413.780 3
  25406970.001    -4570711.357 6  -3594402.891 3
  23466168.400    -9335393.902 7  -7267818.906 4
  25256622.284      143452.258 5    119141.957 3
  22424304.407   -11839346.522 8  -9205318.949 9
  24027847.078    -9756107.239 6  -7714335.849 5
  21717883.682   -20300005.745 8 -15008698.850 5
 94  3 24 23 13  0.0040000  0  8 27  4  9 13 15  2 26  7
  23819402.161    -2883422.956 6  -2202790.408 5
  25402920.884    -4685523.138 5  -3000035.356 3
  25390256.841    -4658527.709 5  -3662831.141 3
  23450749.384    -9416434.987 7  -7330967.765 4
  25267467.186      200440.054 5    163547.993 3
  22430002.532   -11809396.941 8  -9181981.628 9
  24035143.606    -9717750.755 6  -7684447.691 5
  21721545.707   -20280760.642 8 -14993702.660 5
 94  3 24 23 13 30.0040000  0  8 27  4  9 13 15  2 26  7
  23839874.988    -2775837.391 6  -2118957.585 5
  25385195.595    -4778722.002 5  -3072657.642 3
  25373567.425    -4746236.474 5  -3731175.615 3
  23435404.417    -9497061.054 7  -7393793.194 4
  25278407.273      257968.071 5    208375.012 3
  22435747.155   -11779223.921 8  -9158470.189 9
  24042543.384    -9678897.416 6  -7654172.383 5
  21725292.423   -20261032.383 8 -14978330.002 5
 94  3 24 23 14  0.0040000  0  8 27  4  9 13 15  2 26  7
  23860404.566    -2667949.538 6  -2034889.198 5
  25367455.976    -4871922.263 5  -3145281.035 3
  25356877.049    -4833857.408 5  -3799451.622 3
  23420142.283    -9577277.698 7  -7456299.621 4
  25289454.625      316027.262 5    253615.946 3
  22441527.814   -11748836.966 8  -9134792.048 9
  24050026.983    -9639541.965 6  -7623505.811 5
  21729141.189   -20240832.806 8 -14962590.061 6
 94  3 24 23 14 30.0040000  0  8 27  4  9 13 15  2 26  7
  23880997.699    -2559763.823 6  -1950588.755 5
  25349726.280    -4965107.270 5  -3217892.548 3
  25340244.444    -4921368.935 6  -3867642.354 3
  23404955.456    -9657076.256 7  -7518480.256 4
  25300605.495      374622.371 5    299274.453 3
  22447352.002   -11718226.693 8  -9110939.909 9
  24057618.897    -9599669.283 6  -7592436.222 5
  21733071.917   -20220173.404 8 -14946491.841 6
 94  3 24 23 15  0.0040000  0  8 27  4  9 13 15  2 26  7
  23901643.117    -2451283.297 6  -1866058.540 5
  25331989.658    -5058255.524 5  -3290475.401 3
  25323625.959    -5008755.707 6  -3935735.882 3
  23389851.703    -9736442.827 7  -7580324.300 4
  25311874.994      433763.849 5    345358.686 3
  22453220.409   -11687379.591 8  -9086903.204 9
  24065301.109    -9559270.265 6  -7560956.468 5
  21737096.241   -20199047.153 8 -14930029.810 6
 94  3 24 23 15 30.0040000  0  8 27  4  9 13 15  2 26  7
  23922330.895    -2342501.988 6  -1781293.978 5
  25314283.106    -5151363.633 5  -3363027.013 2
  25306993.683    -5096024.999 5  -4003737.893 3
  23374833.360    -9815377.409 7  -7641831.696 4
  25323218.211      493447.926 5    391865.736 3
  22459131.627   -11656323.503 8  -9062703.679 9
  24073099.520    -9518357.818 6  -7529076.644 5
  21741199.471   -20177467.326 8 -14913214.356 6
 94  3 24 23 16  0.0040000  0  8 27  4  9 13 15  2 26  7
  23943089.124    -2233410.857 6  -1696287.981 5
  25296561.745    -5244420.640 5  -3435538.739 2
  25290427.991    -5183168.015 6  -4071641.459 3
  23359894.671    -9893882.115 7  -7703004.129 5
  25334679.936      553668.904 5    438791.151 2
  22465081.038   -11625054.197 8  -9038337.987 9
  24080967.303    -9476953.338 6  -7496813.421 5
  21745389.910   -20155444.558 8 -14896053.743 6
 94  3 24 23 16 30.0040000  0  8 27  4  9 13 15  2 26  7
  23963914.987    -2124007.831 6  -1611038.964 5
  25278888.919    -5337420.308 5  -3508005.800 2
  25273857.712    -5270185.546 6  -4139447.307 3
  23345029.762    -9971960.807 7  -7763844.603 5
  25346240.533      614419.244 5    486129.100 2
  22471074.849   -11593565.187 8  -9013801.120 9
  24088934.408    -9435081.174 6  -7464185.786 5
  21749665.790   -20132988.682 8 -14878555.659 6
 94  3 24 23 17  0.0040000  0  8 27  4  9 13 15  2 26  7
  23984791.484    -2014295.731 6  -1525549.137 5
  25261179.369    -5430376.834 5  -3580439.265 2
  25257321.220    -5357093.048 6  -4207167.394 3
  23330262.076   -10049616.840 7  -7824355.754 5
  25357905.008      675691.802 5    533873.925 2
  22477107.422   -11561868.852 8  -8989102.686 9
  24096985.814    -9392757.057 6  -7431205.958 5
  21754020.065   -20110094.994 8 -14860716.414 6
 94  3 24 23 17 30.0040000  0  8 27  4  9 13 15  2 26  7
  24005734.506    -1904270.033 6  -1439814.896 5
  25243514.279    -5523291.266 5  -3652839.916 3
  25240805.384    -5443876.474 6  -4274790.783 4
  23315565.350   -10126840.578 7  -7884530.027 5
  25369646.649      737492.498 5    582030.345 2
  22483178.489   -11529968.663 8  -8964245.413 9
  24105137.021    -9349979.780 6  -7397873.054 5
  21758458.493   -20086759.554 8 -14842532.945 6
 94  3 24 23 18  0.0040000  0  8 27  4  9 13 15  2 26  7
  24026722.256    -1793937.005 6  -1353841.202 4
  25225833.269    -5616147.591 5  -3725195.296 3
  25224326.722    -5530523.411 6  -4342307.797 4
  23300953.556   -10203621.474 7  -7944359.224 5
  25381528.114      799828.073 5    630603.449 2
  22489286.941   -11497854.367 8  -8939221.296 9
  24113354.032    -9306748.817 6  -7364186.610 5
  21762986.438   -20062975.492 8 -14823999.907 6
 94  3 24 23 18 30.0040000  0  8 27  4  9 13 15  2 26  7
  24047782.796    -1683310.389 6  -1267638.723 4
  25208140.657    -5708945.162 5  -3797504.920 3
  25207857.923    -5617032.688 6  -4409717.593 4
  23286425.313   -10279953.989 7  -8003839.046 5
  25393488.873      862700.326 5    679594.788 2
  22495435.354   -11465541.264 8  -8914042.273 9
  24121679.509    -9263059.268 6  -7330142.830 5
  21767601.533   -20038736.767 8 -14805112.575 6
 94  3 24 23 19  0.0040000  0  8 27  4  9 13 15  2 26  7
  24068888.455    -1572413.120 6  -1181225.379 4
  25190526.621    -5801704.922 5  -3869785.087 3
  25191434.453    -5703398.847 6  -4477015.862 4
  23271981.882   -10355847.596 7  -8062976.865 5
  25405558.578      926096.397 5    728994.344 2
  22501617.854   -11433045.988 8  -8888721.283 9
  24130072.049    -9218910.987 6  -7295741.599 5
  21772297.182   -20014043.591 8 -14785871.135 6
 94  3 24 23 19 30.0040000  0  8 27  4  9 13 15  2 26  7
  24090039.233    -1461249.923 6  -1094604.796 4
  25172879.398    -5894424.178 5  -3942033.683 3
  25175015.959    -5789629.433 6  -4544208.476 4
  23257620.504   -10431313.489 7  -8121781.400 5
  25417710.425      990001.378 5    778790.381 2
  22507837.229   -11400370.200 8  -8863259.645 9
  24138563.310    -9174315.703 6  -7260992.047 5
  21777082.230   -19988910.132 8 -14766286.608 6
 94  3 24 23 20  0.0040000  0  8 27  4  9 13 15  2 26  7
  24111241.995    -1349821.549 6  -1007777.591 4
  25155251.422    -5987105.679 6  -4014252.849 3
  25158623.547    -5875738.510 6  -4611306.377 4
  23243342.739   -10506361.423 7  -8180260.251 5
  25429975.534     1054401.429 5    828972.277 2
  22514090.060   -11367519.379 8  -8837661.589 9
  24147132.098    -9129282.718 6  -7225901.417 5
  21781943.904   -19963346.725 8 -14746367.068 6
 94  3 24 23 20 30.0040000  0  8 27  4  9 13 15  2 26  7
  24132488.886    -1238123.112 6   -920739.922 4
  25137597.214    -6079762.047 5  -4086452.492 3
  25142265.522    -5961736.802 6  -4678317.985 4
  23229137.643   -10580993.543 7  -8238415.078 5
  25442314.392     1119291.251 5    879535.731 2
  22520376.558   -11334487.748 8  -8811922.677 9
  24155783.569    -9083805.774 6  -7190464.858 5
  21786891.289   -19937358.725 8 -14726116.673 6
 94  3 24 23 21  0.0040000  0  8 27  4  9 13 15  2 26  7
  24153805.508    -1126150.238 6   -833488.427 4
  25119961.592    -6172400.387 5  -4158638.069 3
  25125925.604    -6047635.196 6  -4745251.763 4
  23215014.180   -10655212.988 7  -8296248.364 5
  25454752.032     1184663.490 5    930475.118 2
  22526700.380   -11301264.130 8  -8786034.158 9
  24164510.887    -9037894.281 6  -7154689.676 5
  21791912.933   -19910955.578 8 -14705542.776 6
 94  3 24 23 21 30.0040000  0  8 27  4  9 13 15  2 26  7
  24175151.631    -1013908.890 6   -746027.733 4
  25102358.559    -6265006.587 6  -4230798.638 3
  25109588.384    -6133442.615 6  -4812114.636 4
  23200967.554   -10729019.933 7  -8353760.224 5
  25467275.142     1250514.543 5    981787.622 2
  22533054.601   -11267859.230 8  -8760004.381 9
  24173347.120    -8991558.072 6  -7118583.586 5
  21797016.899   -19884151.536 8 -14684656.522 6
 94  3 24 23 22  0.0040000  0  8 27  4  9 13 15  2 26  7
  24196570.093     -901414.342 6   -658369.747 4
  25084727.974    -6357579.017 5  -4302932.853 3
  25093277.186    -6219151.235 6  -4878900.501 4
  23187006.190   -10802415.524 7  -8410951.537 5
  25479901.741     1316839.083 5   1033469.086 2
  22539444.078   -11234276.016 8  -8733835.630 9
  24182231.559    -8944796.466 6  -7082145.964 5
  21802192.366   -19856949.644 8 -14663460.216 6
 94  3 24 23 22 30.0040000  0  9 27  4 12  9 13 15  2 26  7
  24218017.246     -788675.299 6   -570521.234 4
  25067141.699    -6450104.919 5  -4375030.807 3
  25983188.733    -1825160.00515   -592166.882 2
  25076997.646    -6304753.452 6  -4945603.516 4
  23173116.625   -10875395.355 7  -8467818.879 5
  25492629.220     1383638.181 5   1085520.271 2
  22545869.200   -11200511.041 8  -8707525.266 9
  24191228.751    -8897610.451 6  -7045377.687 5
  21807443.021   -19829347.686 8 -14641952.200 6
 94  3 24 23 23  0.0040000  0  9 27  4 12  9 13 15  2 26  7
  24239522.078     -675693.704 6   -482483.698 4
  25049543.972    -6542551.825 5  -4447067.256 3
  25967672.255    -1906624.722 5   -655645.811 2
  25060718.795    -6390222.192 6  -5012202.493 4
  23159307.975   -10947948.718 7  -8524353.923 5
  25505416.388     1450918.546 5   1137946.524 2
  22552328.528   -11166569.089 8  -8681077.004 9
  24200270.881    -8849996.726 6  -7008276.076 5
  21812773.691   -19801334.840 8 -14620124.003 6
 94  3 24 23 23 30.0040000  0  9 27  4 12  9 13 15  2 26  7
  24261075.837     -562474.009 6   -394260.683 4
  25031974.395    -6634904.334 5  -4519030.128 3
  25952151.280    -1988131.424 5   -719157.467 2
  25044488.272    -6475549.902 6  -5078691.561 4
  23145585.215   -11020066.849 7  -8580549.809 5
  25518312.710     1518685.378 5   1190751.836 2
  22558824.551   -11132449.399 8  -8654490.228 9
  24209419.887    -8801944.449 6  -6970832.776 5
  21818181.827   -19772920.277 8 -14597982.782 6
 94  3 24 23 24  0.0040000  0  9 27  4 12  9 13 15  2 26  7
  24282656.816     -449008.209 6   -305845.848 4
  25014416.150    -6727172.649 5  -4590927.394 3
  25936648.922    -2069677.055 5   -782699.452 2
  25028272.767    -6560736.088 6  -5145070.354 4
  23131949.305   -11091746.167 7  -8636403.746 5
  25531303.227     1586938.341 5   1243935.941 2
  22565350.883   -11098134.262 8  -8627751.164 9
  24218647.919    -8753460.801 6  -6933053.318 5
  21823663.562   -19744112.610 8 -14575535.244 6
 94  3 24 23 24 30.0040000  0  9 27  4 12  9 13 15  2 26  7
  24304300.213     -335308.113 6   -217248.469 4
  24996871.216    -6819371.941 5  -4662770.864 3
  25921128.486    -2151266.279 5   -846275.503 2
  25012087.032    -6645795.466 6  -5211350.364 4
  23118388.133   -11162990.811 7  -8691918.993 5
  25544384.281     1655669.532 5   1297492.677 2
  22571914.209   -11063637.186 8  -8600870.325 9
  24227950.779    -8704560.001 6  -6894948.827 5
  21829215.658   -19714931.222 8 -14552796.490 6
 94  3 24 23 25  0.0040000  0  9 27  4 12  9 13 15  2 26  7
  24325970.921     -221382.957 6   -128475.708 4
  24979333.148    -6911517.615 5  -4734572.565 3
  25905575.223    -2232904.022 5   -909889.258 2
  24995922.433    -6730746.501 6  -5277545.908 4
  23104912.972   -11233804.860 7  -8747098.697 5
  25557558.211     1724870.945 5   1351415.836 2
  22578511.652   -11028959.148 8  -8573848.496 9
  24237338.600    -8655249.575 6  -6856525.155 5
  21834836.677   -19685384.166 8 -14529772.806 5
